<?xml version="1.0" encoding="UTF-8" standalone="no" ?>
<gpx xmlns="http://www.topografix.com/GPX/1/1" xmlns:xsi="http://www.w3.org/2001/XMLSchema-instance" xsi:schemaLocation="http://www.topografix.com/GPX/1/1 http://www.topografix.com/GPX/1/1/gpx.xsd" version="1.1" creator="VisuGPX - https://www.visugpx.com">
  <metadata>
    <name>Pic saint loup - piste rouge</name>
    <desc><![CDATA[Pic saint loup]]></desc>
  </metadata>
  <trk>
    <name><![CDATA[01/11/2012 13:41]]></name>
    <desc><![CDATA[Pic saint loup]]></desc>
    <trkseg>
      <trkpt lat="43.77052" lon="3.79218">
        <ele>391.5</ele>
        <time>2012-11-01T12:41:41.270Z</time>
      </trkpt>
      <trkpt lat="43.77052" lon="3.79218">
        <ele>355.4</ele>
        <time>2012-11-01T12:41:52.999Z</time>
      </trkpt>
      <trkpt lat="43.77053" lon="3.79209">
        <ele>354.2</ele>
        <time>2012-11-01T12:41:53.999Z</time>
      </trkpt>
      <trkpt lat="43.77054" lon="3.79204">
        <ele>356.5</ele>
        <time>2012-11-01T12:41:56.999Z</time>
      </trkpt>
      <trkpt lat="43.77055" lon="3.79203">
        <ele>356.9</ele>
        <time>2012-11-01T12:41:57.999Z</time>
      </trkpt>
      <trkpt lat="43.77057" lon="3.79198">
        <ele>357.4</ele>
        <time>2012-11-01T12:42:00.999Z</time>
      </trkpt>
      <trkpt lat="43.77058" lon="3.79195">
        <ele>357.3</ele>
        <time>2012-11-01T12:42:01.999Z</time>
      </trkpt>
      <trkpt lat="43.77059" lon="3.79194">
        <ele>358.6</ele>
        <time>2012-11-01T12:42:04.999Z</time>
      </trkpt>
      <trkpt lat="43.7706" lon="3.7919">
        <ele>357.7</ele>
        <time>2012-11-01T12:42:05.999Z</time>
      </trkpt>
      <trkpt lat="43.77063" lon="3.79185">
        <ele>351.3</ele>
        <time>2012-11-01T12:42:10.999Z</time>
      </trkpt>
      <trkpt lat="43.77064" lon="3.79184">
        <ele>351.4</ele>
        <time>2012-11-01T12:42:11.999Z</time>
      </trkpt>
      <trkpt lat="43.77065" lon="3.79182">
        <ele>351.5</ele>
        <time>2012-11-01T12:42:14.999Z</time>
      </trkpt>
      <trkpt lat="43.77067" lon="3.79181">
        <ele>351.6</ele>
        <time>2012-11-01T12:42:15.999Z</time>
      </trkpt>
      <trkpt lat="43.7707" lon="3.79176">
        <ele>351.7</ele>
        <time>2012-11-01T12:42:18.999Z</time>
      </trkpt>
      <trkpt lat="43.7707" lon="3.79174">
        <ele>351.6</ele>
        <time>2012-11-01T12:42:19.999Z</time>
      </trkpt>
      <trkpt lat="43.77072" lon="3.79169">
        <ele>351.6</ele>
        <time>2012-11-01T12:42:22.999Z</time>
      </trkpt>
      <trkpt lat="43.77072" lon="3.79168">
        <ele>351.5</ele>
        <time>2012-11-01T12:42:23.999Z</time>
      </trkpt>
      <trkpt lat="43.77074" lon="3.79163">
        <ele>351.4</ele>
        <time>2012-11-01T12:42:28.999Z</time>
      </trkpt>
      <trkpt lat="43.77075" lon="3.79161">
        <ele>351.5</ele>
        <time>2012-11-01T12:42:29.999Z</time>
      </trkpt>
      <trkpt lat="43.77078" lon="3.79164">
        <ele>351.6</ele>
        <time>2012-11-01T12:42:35.999Z</time>
      </trkpt>
      <trkpt lat="43.77079" lon="3.79164">
        <ele>351.7</ele>
        <time>2012-11-01T12:42:36.999Z</time>
      </trkpt>
      <trkpt lat="43.77082" lon="3.79162">
        <ele>352</ele>
        <time>2012-11-01T12:42:39.999Z</time>
      </trkpt>
      <trkpt lat="43.77083" lon="3.79162">
        <ele>352.1</ele>
        <time>2012-11-01T12:42:40.999Z</time>
      </trkpt>
      <trkpt lat="43.77087" lon="3.79158">
        <ele>352.4</ele>
        <time>2012-11-01T12:42:45.999Z</time>
      </trkpt>
      <trkpt lat="43.77087" lon="3.79158">
        <ele>352.5</ele>
        <time>2012-11-01T12:42:46.999Z</time>
      </trkpt>
      <trkpt lat="43.7709" lon="3.79154">
        <ele>353</ele>
        <time>2012-11-01T12:42:52.999Z</time>
      </trkpt>
      <trkpt lat="43.77091" lon="3.79153">
        <ele>353.1</ele>
        <time>2012-11-01T12:42:53.999Z</time>
      </trkpt>
      <trkpt lat="43.77093" lon="3.79148">
        <ele>353.1</ele>
        <time>2012-11-01T12:42:56.999Z</time>
      </trkpt>
      <trkpt lat="43.77095" lon="3.79146">
        <ele>353.1</ele>
        <time>2012-11-01T12:42:57.999Z</time>
      </trkpt>
      <trkpt lat="43.77097" lon="3.79141">
        <ele>353.2</ele>
        <time>2012-11-01T12:43:00.999Z</time>
      </trkpt>
      <trkpt lat="43.77097" lon="3.7914">
        <ele>353.2</ele>
        <time>2012-11-01T12:43:01.999Z</time>
      </trkpt>
      <trkpt lat="43.77097" lon="3.79134">
        <ele>353.5</ele>
        <time>2012-11-01T12:43:05.999Z</time>
      </trkpt>
      <trkpt lat="43.77097" lon="3.79133">
        <ele>353.6</ele>
        <time>2012-11-01T12:43:06.999Z</time>
      </trkpt>
      <trkpt lat="43.771" lon="3.79128">
        <ele>353.8</ele>
        <time>2012-11-01T12:43:12.999Z</time>
      </trkpt>
      <trkpt lat="43.77101" lon="3.79128">
        <ele>353.9</ele>
        <time>2012-11-01T12:43:13.999Z</time>
      </trkpt>
      <trkpt lat="43.77105" lon="3.79127">
        <ele>354.2</ele>
        <time>2012-11-01T12:43:17.999Z</time>
      </trkpt>
      <trkpt lat="43.77107" lon="3.79126">
        <ele>354.3</ele>
        <time>2012-11-01T12:43:18.999Z</time>
      </trkpt>
      <trkpt lat="43.77109" lon="3.79122">
        <ele>354.5</ele>
        <time>2012-11-01T12:43:20.999Z</time>
      </trkpt>
      <trkpt lat="43.77109" lon="3.7912">
        <ele>354.7</ele>
        <time>2012-11-01T12:43:21.999Z</time>
      </trkpt>
      <trkpt lat="43.77108" lon="3.79115">
        <ele>355</ele>
        <time>2012-11-01T12:43:24.999Z</time>
      </trkpt>
      <trkpt lat="43.77108" lon="3.79114">
        <ele>355.1</ele>
        <time>2012-11-01T12:43:25.999Z</time>
      </trkpt>
      <trkpt lat="43.77109" lon="3.79109">
        <ele>355.3</ele>
        <time>2012-11-01T12:43:27.999Z</time>
      </trkpt>
      <trkpt lat="43.77108" lon="3.79107">
        <ele>355.3</ele>
        <time>2012-11-01T12:43:28.999Z</time>
      </trkpt>
      <trkpt lat="43.77109" lon="3.79101">
        <ele>355.5</ele>
        <time>2012-11-01T12:43:32.999Z</time>
      </trkpt>
      <trkpt lat="43.77109" lon="3.791">
        <ele>355.6</ele>
        <time>2012-11-01T12:43:33.999Z</time>
      </trkpt>
      <trkpt lat="43.7711" lon="3.79095">
        <ele>356</ele>
        <time>2012-11-01T12:43:36.999Z</time>
      </trkpt>
      <trkpt lat="43.7711" lon="3.79093">
        <ele>356.1</ele>
        <time>2012-11-01T12:43:37.999Z</time>
      </trkpt>
      <trkpt lat="43.7711" lon="3.79088">
        <ele>356.5</ele>
        <time>2012-11-01T12:43:40.999Z</time>
      </trkpt>
      <trkpt lat="43.7711" lon="3.79086">
        <ele>356.7</ele>
        <time>2012-11-01T12:43:41.999Z</time>
      </trkpt>
      <trkpt lat="43.7711" lon="3.7908">
        <ele>357.3</ele>
        <time>2012-11-01T12:43:44.999Z</time>
      </trkpt>
      <trkpt lat="43.7711" lon="3.79079">
        <ele>357.5</ele>
        <time>2012-11-01T12:43:45.999Z</time>
      </trkpt>
      <trkpt lat="43.77108" lon="3.79074">
        <ele>357.8</ele>
        <time>2012-11-01T12:43:48.999Z</time>
      </trkpt>
      <trkpt lat="43.77108" lon="3.79073">
        <ele>357.9</ele>
        <time>2012-11-01T12:43:49.999Z</time>
      </trkpt>
      <trkpt lat="43.77107" lon="3.79068">
        <ele>358.2</ele>
        <time>2012-11-01T12:43:54.999Z</time>
      </trkpt>
      <trkpt lat="43.77106" lon="3.79066">
        <ele>358.2</ele>
        <time>2012-11-01T12:43:55.999Z</time>
      </trkpt>
      <trkpt lat="43.77105" lon="3.79061">
        <ele>358.5</ele>
        <time>2012-11-01T12:43:59.999Z</time>
      </trkpt>
      <trkpt lat="43.77105" lon="3.79059">
        <ele>358.6</ele>
        <time>2012-11-01T12:44:00.999Z</time>
      </trkpt>
      <trkpt lat="43.77105" lon="3.79054">
        <ele>359.2</ele>
        <time>2012-11-01T12:44:05.999Z</time>
      </trkpt>
      <trkpt lat="43.77104" lon="3.79052">
        <ele>359.1</ele>
        <time>2012-11-01T12:44:06.999Z</time>
      </trkpt>
      <trkpt lat="43.77102" lon="3.79047">
        <ele>359.1</ele>
        <time>2012-11-01T12:44:09.999Z</time>
      </trkpt>
      <trkpt lat="43.77101" lon="3.79046">
        <ele>359.1</ele>
        <time>2012-11-01T12:44:10.999Z</time>
      </trkpt>
      <trkpt lat="43.771" lon="3.79041">
        <ele>358.9</ele>
        <time>2012-11-01T12:44:13.999Z</time>
      </trkpt>
      <trkpt lat="43.771" lon="3.79039">
        <ele>358.8</ele>
        <time>2012-11-01T12:44:14.999Z</time>
      </trkpt>
      <trkpt lat="43.77099" lon="3.79035">
        <ele>358.7</ele>
        <time>2012-11-01T12:44:16.999Z</time>
      </trkpt>
      <trkpt lat="43.77099" lon="3.79032">
        <ele>358.8</ele>
        <time>2012-11-01T12:44:17.999Z</time>
      </trkpt>
      <trkpt lat="43.77098" lon="3.79028">
        <ele>358.7</ele>
        <time>2012-11-01T12:44:19.999Z</time>
      </trkpt>
      <trkpt lat="43.77098" lon="3.79026">
        <ele>358.6</ele>
        <time>2012-11-01T12:44:20.999Z</time>
      </trkpt>
      <trkpt lat="43.77097" lon="3.79022">
        <ele>358.5</ele>
        <time>2012-11-01T12:44:22.999Z</time>
      </trkpt>
      <trkpt lat="43.77096" lon="3.7902">
        <ele>358.5</ele>
        <time>2012-11-01T12:44:23.999Z</time>
      </trkpt>
      <trkpt lat="43.77095" lon="3.79014">
        <ele>358.5</ele>
        <time>2012-11-01T12:44:26.999Z</time>
      </trkpt>
      <trkpt lat="43.77095" lon="3.79013">
        <ele>358.5</ele>
        <time>2012-11-01T12:44:27.999Z</time>
      </trkpt>
      <trkpt lat="43.77094" lon="3.79008">
        <ele>358.7</ele>
        <time>2012-11-01T12:44:30.999Z</time>
      </trkpt>
      <trkpt lat="43.77093" lon="3.79006">
        <ele>358.8</ele>
        <time>2012-11-01T12:44:31.999Z</time>
      </trkpt>
      <trkpt lat="43.77092" lon="3.79002">
        <ele>359.1</ele>
        <time>2012-11-01T12:44:34.999Z</time>
      </trkpt>
      <trkpt lat="43.77092" lon="3.79">
        <ele>359.2</ele>
        <time>2012-11-01T12:44:35.999Z</time>
      </trkpt>
      <trkpt lat="43.77091" lon="3.78994">
        <ele>359.6</ele>
        <time>2012-11-01T12:44:39.999Z</time>
      </trkpt>
      <trkpt lat="43.7709" lon="3.78993">
        <ele>359.7</ele>
        <time>2012-11-01T12:44:40.999Z</time>
      </trkpt>
      <trkpt lat="43.77088" lon="3.78987">
        <ele>359.9</ele>
        <time>2012-11-01T12:44:44.999Z</time>
      </trkpt>
      <trkpt lat="43.77088" lon="3.78986">
        <ele>359.9</ele>
        <time>2012-11-01T12:44:45.999Z</time>
      </trkpt>
      <trkpt lat="43.77086" lon="3.78982">
        <ele>359.8</ele>
        <time>2012-11-01T12:44:48.999Z</time>
      </trkpt>
      <trkpt lat="43.77085" lon="3.7898">
        <ele>359.9</ele>
        <time>2012-11-01T12:44:49.999Z</time>
      </trkpt>
      <trkpt lat="43.77085" lon="3.78974">
        <ele>360</ele>
        <time>2012-11-01T12:44:52.999Z</time>
      </trkpt>
      <trkpt lat="43.77086" lon="3.78972">
        <ele>360</ele>
        <time>2012-11-01T12:44:53.999Z</time>
      </trkpt>
      <trkpt lat="43.77087" lon="3.78967">
        <ele>359.9</ele>
        <time>2012-11-01T12:44:56.999Z</time>
      </trkpt>
      <trkpt lat="43.77087" lon="3.78965">
        <ele>359.9</ele>
        <time>2012-11-01T12:44:57.999Z</time>
      </trkpt>
      <trkpt lat="43.77089" lon="3.7896">
        <ele>359.7</ele>
        <time>2012-11-01T12:45:01.999Z</time>
      </trkpt>
      <trkpt lat="43.77089" lon="3.78959">
        <ele>359.7</ele>
        <time>2012-11-01T12:45:02.999Z</time>
      </trkpt>
      <trkpt lat="43.7709" lon="3.78954">
        <ele>359.7</ele>
        <time>2012-11-01T12:45:05.999Z</time>
      </trkpt>
      <trkpt lat="43.7709" lon="3.78952">
        <ele>359.7</ele>
        <time>2012-11-01T12:45:06.999Z</time>
      </trkpt>
      <trkpt lat="43.77091" lon="3.78946">
        <ele>359.8</ele>
        <time>2012-11-01T12:45:09.999Z</time>
      </trkpt>
      <trkpt lat="43.77091" lon="3.78945">
        <ele>359.8</ele>
        <time>2012-11-01T12:45:10.999Z</time>
      </trkpt>
      <trkpt lat="43.77094" lon="3.78941">
        <ele>360</ele>
        <time>2012-11-01T12:45:13.999Z</time>
      </trkpt>
      <trkpt lat="43.77095" lon="3.78939">
        <ele>360.1</ele>
        <time>2012-11-01T12:45:14.999Z</time>
      </trkpt>
      <trkpt lat="43.77097" lon="3.78936">
        <ele>360.4</ele>
        <time>2012-11-01T12:45:17.999Z</time>
      </trkpt>
      <trkpt lat="43.77098" lon="3.78935">
        <ele>360.5</ele>
        <time>2012-11-01T12:45:18.999Z</time>
      </trkpt>
      <trkpt lat="43.77101" lon="3.78933">
        <ele>360.6</ele>
        <time>2012-11-01T12:45:21.999Z</time>
      </trkpt>
      <trkpt lat="43.77102" lon="3.78932">
        <ele>360.6</ele>
        <time>2012-11-01T12:45:22.999Z</time>
      </trkpt>
      <trkpt lat="43.77105" lon="3.7893">
        <ele>360.7</ele>
        <time>2012-11-01T12:45:25.999Z</time>
      </trkpt>
      <trkpt lat="43.77106" lon="3.78929">
        <ele>360.7</ele>
        <time>2012-11-01T12:45:26.999Z</time>
      </trkpt>
      <trkpt lat="43.77109" lon="3.78925">
        <ele>360.9</ele>
        <time>2012-11-01T12:45:29.999Z</time>
      </trkpt>
      <trkpt lat="43.7711" lon="3.78924">
        <ele>361</ele>
        <time>2012-11-01T12:45:30.999Z</time>
      </trkpt>
      <trkpt lat="43.77113" lon="3.7892">
        <ele>361.3</ele>
        <time>2012-11-01T12:45:33.999Z</time>
      </trkpt>
      <trkpt lat="43.77114" lon="3.78918">
        <ele>361.4</ele>
        <time>2012-11-01T12:45:34.999Z</time>
      </trkpt>
      <trkpt lat="43.77117" lon="3.78916">
        <ele>361.6</ele>
        <time>2012-11-01T12:45:37.999Z</time>
      </trkpt>
      <trkpt lat="43.77118" lon="3.78916">
        <ele>361.6</ele>
        <time>2012-11-01T12:45:38.999Z</time>
      </trkpt>
      <trkpt lat="43.77121" lon="3.78915">
        <ele>361.7</ele>
        <time>2012-11-01T12:45:40.999Z</time>
      </trkpt>
      <trkpt lat="43.77123" lon="3.78916">
        <ele>361.7</ele>
        <time>2012-11-01T12:45:41.999Z</time>
      </trkpt>
      <trkpt lat="43.77126" lon="3.78918">
        <ele>361.6</ele>
        <time>2012-11-01T12:45:43.999Z</time>
      </trkpt>
      <trkpt lat="43.77127" lon="3.78919">
        <ele>361.6</ele>
        <time>2012-11-01T12:45:44.999Z</time>
      </trkpt>
      <trkpt lat="43.77131" lon="3.78921">
        <ele>361.6</ele>
        <time>2012-11-01T12:45:47.999Z</time>
      </trkpt>
      <trkpt lat="43.77132" lon="3.78922">
        <ele>361.6</ele>
        <time>2012-11-01T12:45:48.999Z</time>
      </trkpt>
      <trkpt lat="43.77135" lon="3.78924">
        <ele>361.6</ele>
        <time>2012-11-01T12:45:50.999Z</time>
      </trkpt>
      <trkpt lat="43.77136" lon="3.78925">
        <ele>361.5</ele>
        <time>2012-11-01T12:45:51.999Z</time>
      </trkpt>
      <trkpt lat="43.77139" lon="3.78928">
        <ele>361.6</ele>
        <time>2012-11-01T12:45:53.999Z</time>
      </trkpt>
      <trkpt lat="43.7714" lon="3.7893">
        <ele>361.6</ele>
        <time>2012-11-01T12:45:54.999Z</time>
      </trkpt>
      <trkpt lat="43.77142" lon="3.78933">
        <ele>362</ele>
        <time>2012-11-01T12:45:57.999Z</time>
      </trkpt>
      <trkpt lat="43.77142" lon="3.78935">
        <ele>362.1</ele>
        <time>2012-11-01T12:45:58.999Z</time>
      </trkpt>
      <trkpt lat="43.77145" lon="3.78938">
        <ele>362.1</ele>
        <time>2012-11-01T12:46:01.999Z</time>
      </trkpt>
      <trkpt lat="43.77147" lon="3.78939">
        <ele>362</ele>
        <time>2012-11-01T12:46:02.999Z</time>
      </trkpt>
      <trkpt lat="43.7715" lon="3.78941">
        <ele>362</ele>
        <time>2012-11-01T12:46:05.999Z</time>
      </trkpt>
      <trkpt lat="43.77152" lon="3.78941">
        <ele>362</ele>
        <time>2012-11-01T12:46:06.999Z</time>
      </trkpt>
      <trkpt lat="43.77156" lon="3.78942">
        <ele>362</ele>
        <time>2012-11-01T12:46:09.999Z</time>
      </trkpt>
      <trkpt lat="43.77157" lon="3.78943">
        <ele>361.9</ele>
        <time>2012-11-01T12:46:10.999Z</time>
      </trkpt>
      <trkpt lat="43.7716" lon="3.78944">
        <ele>362</ele>
        <time>2012-11-01T12:46:12.999Z</time>
      </trkpt>
      <trkpt lat="43.77161" lon="3.78944">
        <ele>362</ele>
        <time>2012-11-01T12:46:13.999Z</time>
      </trkpt>
      <trkpt lat="43.77165" lon="3.78944">
        <ele>362</ele>
        <time>2012-11-01T12:46:16.999Z</time>
      </trkpt>
      <trkpt lat="43.77166" lon="3.78944">
        <ele>362</ele>
        <time>2012-11-01T12:46:17.999Z</time>
      </trkpt>
      <trkpt lat="43.7717" lon="3.78944">
        <ele>362.1</ele>
        <time>2012-11-01T12:46:21.999Z</time>
      </trkpt>
      <trkpt lat="43.77171" lon="3.78944">
        <ele>362.1</ele>
        <time>2012-11-01T12:46:22.999Z</time>
      </trkpt>
      <trkpt lat="43.77175" lon="3.78944">
        <ele>362.5</ele>
        <time>2012-11-01T12:46:26.999Z</time>
      </trkpt>
      <trkpt lat="43.77176" lon="3.78943">
        <ele>362.6</ele>
        <time>2012-11-01T12:46:27.999Z</time>
      </trkpt>
      <trkpt lat="43.77179" lon="3.7894">
        <ele>362.6</ele>
        <time>2012-11-01T12:46:30.999Z</time>
      </trkpt>
      <trkpt lat="43.77181" lon="3.7894">
        <ele>362.7</ele>
        <time>2012-11-01T12:46:31.999Z</time>
      </trkpt>
      <trkpt lat="43.77184" lon="3.78938">
        <ele>363</ele>
        <time>2012-11-01T12:46:34.999Z</time>
      </trkpt>
      <trkpt lat="43.77185" lon="3.78938">
        <ele>363.1</ele>
        <time>2012-11-01T12:46:35.999Z</time>
      </trkpt>
      <trkpt lat="43.77189" lon="3.78937">
        <ele>363.4</ele>
        <time>2012-11-01T12:46:39.999Z</time>
      </trkpt>
      <trkpt lat="43.7719" lon="3.78937">
        <ele>363.5</ele>
        <time>2012-11-01T12:46:40.999Z</time>
      </trkpt>
      <trkpt lat="43.77195" lon="3.78936">
        <ele>363.8</ele>
        <time>2012-11-01T12:46:44.999Z</time>
      </trkpt>
      <trkpt lat="43.77196" lon="3.78935">
        <ele>363.9</ele>
        <time>2012-11-01T12:46:45.999Z</time>
      </trkpt>
      <trkpt lat="43.772" lon="3.78933">
        <ele>364.2</ele>
        <time>2012-11-01T12:46:48.999Z</time>
      </trkpt>
      <trkpt lat="43.77201" lon="3.78933">
        <ele>364.3</ele>
        <time>2012-11-01T12:46:49.999Z</time>
      </trkpt>
      <trkpt lat="43.77205" lon="3.78932">
        <ele>364.6</ele>
        <time>2012-11-01T12:46:53.999Z</time>
      </trkpt>
      <trkpt lat="43.77206" lon="3.78932">
        <ele>364.7</ele>
        <time>2012-11-01T12:46:54.999Z</time>
      </trkpt>
      <trkpt lat="43.7721" lon="3.78931">
        <ele>365.1</ele>
        <time>2012-11-01T12:46:58.999Z</time>
      </trkpt>
      <trkpt lat="43.77212" lon="3.7893">
        <ele>365.2</ele>
        <time>2012-11-01T12:46:59.999Z</time>
      </trkpt>
      <trkpt lat="43.77215" lon="3.78927">
        <ele>366</ele>
        <time>2012-11-01T12:47:03.999Z</time>
      </trkpt>
      <trkpt lat="43.77216" lon="3.78926">
        <ele>366.1</ele>
        <time>2012-11-01T12:47:04.999Z</time>
      </trkpt>
      <trkpt lat="43.77219" lon="3.78923">
        <ele>366.6</ele>
        <time>2012-11-01T12:47:07.999Z</time>
      </trkpt>
      <trkpt lat="43.7722" lon="3.78923">
        <ele>366.8</ele>
        <time>2012-11-01T12:47:08.999Z</time>
      </trkpt>
      <trkpt lat="43.77223" lon="3.78918">
        <ele>367.3</ele>
        <time>2012-11-01T12:47:12.999Z</time>
      </trkpt>
      <trkpt lat="43.77223" lon="3.78917">
        <ele>367.3</ele>
        <time>2012-11-01T12:47:13.999Z</time>
      </trkpt>
      <trkpt lat="43.77226" lon="3.78912">
        <ele>367.6</ele>
        <time>2012-11-01T12:47:19.999Z</time>
      </trkpt>
      <trkpt lat="43.77226" lon="3.78912">
        <ele>367.7</ele>
        <time>2012-11-01T12:47:20.999Z</time>
      </trkpt>
      <trkpt lat="43.77229" lon="3.78909">
        <ele>367.9</ele>
        <time>2012-11-01T12:47:24.999Z</time>
      </trkpt>
      <trkpt lat="43.77231" lon="3.78909">
        <ele>368</ele>
        <time>2012-11-01T12:47:25.999Z</time>
      </trkpt>
      <trkpt lat="43.77235" lon="3.78908">
        <ele>367.8</ele>
        <time>2012-11-01T12:47:28.999Z</time>
      </trkpt>
      <trkpt lat="43.77236" lon="3.78908">
        <ele>367.7</ele>
        <time>2012-11-01T12:47:29.999Z</time>
      </trkpt>
      <trkpt lat="43.77239" lon="3.78905">
        <ele>367.5</ele>
        <time>2012-11-01T12:47:35.999Z</time>
      </trkpt>
      <trkpt lat="43.7724" lon="3.78904">
        <ele>367.4</ele>
        <time>2012-11-01T12:47:36.999Z</time>
      </trkpt>
      <trkpt lat="43.7724" lon="3.78898">
        <ele>367.4</ele>
        <time>2012-11-01T12:47:39.999Z</time>
      </trkpt>
      <trkpt lat="43.7724" lon="3.78897">
        <ele>367.4</ele>
        <time>2012-11-01T12:47:40.999Z</time>
      </trkpt>
      <trkpt lat="43.77242" lon="3.78892">
        <ele>367.4</ele>
        <time>2012-11-01T12:47:44.999Z</time>
      </trkpt>
      <trkpt lat="43.77243" lon="3.78891">
        <ele>367.4</ele>
        <time>2012-11-01T12:47:45.999Z</time>
      </trkpt>
      <trkpt lat="43.77245" lon="3.78886">
        <ele>367.8</ele>
        <time>2012-11-01T12:47:48.999Z</time>
      </trkpt>
      <trkpt lat="43.77245" lon="3.78885">
        <ele>367.9</ele>
        <time>2012-11-01T12:47:49.999Z</time>
      </trkpt>
      <trkpt lat="43.77247" lon="3.78881">
        <ele>368.2</ele>
        <time>2012-11-01T12:47:54.999Z</time>
      </trkpt>
      <trkpt lat="43.77248" lon="3.7888">
        <ele>368.4</ele>
        <time>2012-11-01T12:47:55.999Z</time>
      </trkpt>
      <trkpt lat="43.77251" lon="3.78875">
        <ele>368.9</ele>
        <time>2012-11-01T12:47:59.999Z</time>
      </trkpt>
      <trkpt lat="43.77251" lon="3.78873">
        <ele>369.1</ele>
        <time>2012-11-01T12:48:00.999Z</time>
      </trkpt>
      <trkpt lat="43.77254" lon="3.7887">
        <ele>369.4</ele>
        <time>2012-11-01T12:48:02.999Z</time>
      </trkpt>
      <trkpt lat="43.77255" lon="3.78868">
        <ele>369.6</ele>
        <time>2012-11-01T12:48:03.999Z</time>
      </trkpt>
      <trkpt lat="43.77257" lon="3.78864">
        <ele>370.3</ele>
        <time>2012-11-01T12:48:06.999Z</time>
      </trkpt>
      <trkpt lat="43.77258" lon="3.78863">
        <ele>370.6</ele>
        <time>2012-11-01T12:48:07.999Z</time>
      </trkpt>
      <trkpt lat="43.77261" lon="3.78859">
        <ele>371.4</ele>
        <time>2012-11-01T12:48:11.999Z</time>
      </trkpt>
      <trkpt lat="43.77261" lon="3.78858">
        <ele>371.5</ele>
        <time>2012-11-01T12:48:12.999Z</time>
      </trkpt>
      <trkpt lat="43.77262" lon="3.78852">
        <ele>372.3</ele>
        <time>2012-11-01T12:48:17.999Z</time>
      </trkpt>
      <trkpt lat="43.77262" lon="3.78851">
        <ele>372.4</ele>
        <time>2012-11-01T12:48:18.999Z</time>
      </trkpt>
      <trkpt lat="43.77264" lon="3.78848">
        <ele>372.9</ele>
        <time>2012-11-01T12:48:21.999Z</time>
      </trkpt>
      <trkpt lat="43.77265" lon="3.78846">
        <ele>373.1</ele>
        <time>2012-11-01T12:48:22.999Z</time>
      </trkpt>
      <trkpt lat="43.77266" lon="3.78842">
        <ele>373.4</ele>
        <time>2012-11-01T12:48:24.999Z</time>
      </trkpt>
      <trkpt lat="43.77267" lon="3.7884">
        <ele>373.5</ele>
        <time>2012-11-01T12:48:25.999Z</time>
      </trkpt>
      <trkpt lat="43.77269" lon="3.78837">
        <ele>373.8</ele>
        <time>2012-11-01T12:48:27.999Z</time>
      </trkpt>
      <trkpt lat="43.7727" lon="3.78835">
        <ele>373.9</ele>
        <time>2012-11-01T12:48:28.999Z</time>
      </trkpt>
      <trkpt lat="43.77272" lon="3.78831">
        <ele>374.3</ele>
        <time>2012-11-01T12:48:32.999Z</time>
      </trkpt>
      <trkpt lat="43.77273" lon="3.78829">
        <ele>374.4</ele>
        <time>2012-11-01T12:48:33.999Z</time>
      </trkpt>
      <trkpt lat="43.77274" lon="3.78824">
        <ele>374.4</ele>
        <time>2012-11-01T12:48:36.999Z</time>
      </trkpt>
      <trkpt lat="43.77275" lon="3.78823">
        <ele>374.3</ele>
        <time>2012-11-01T12:48:37.999Z</time>
      </trkpt>
      <trkpt lat="43.77277" lon="3.78818">
        <ele>374.2</ele>
        <time>2012-11-01T12:48:40.999Z</time>
      </trkpt>
      <trkpt lat="43.77278" lon="3.78816">
        <ele>374.2</ele>
        <time>2012-11-01T12:48:41.999Z</time>
      </trkpt>
      <trkpt lat="43.77281" lon="3.78813">
        <ele>374.2</ele>
        <time>2012-11-01T12:48:44.999Z</time>
      </trkpt>
      <trkpt lat="43.77282" lon="3.78812">
        <ele>374.1</ele>
        <time>2012-11-01T12:48:45.999Z</time>
      </trkpt>
      <trkpt lat="43.77284" lon="3.78807">
        <ele>374.1</ele>
        <time>2012-11-01T12:48:49.999Z</time>
      </trkpt>
      <trkpt lat="43.77285" lon="3.78807">
        <ele>374.2</ele>
        <time>2012-11-01T12:48:50.999Z</time>
      </trkpt>
      <trkpt lat="43.77287" lon="3.78802">
        <ele>374.7</ele>
        <time>2012-11-01T12:48:55.999Z</time>
      </trkpt>
      <trkpt lat="43.77287" lon="3.78801">
        <ele>374.7</ele>
        <time>2012-11-01T12:48:56.999Z</time>
      </trkpt>
      <trkpt lat="43.77291" lon="3.78797">
        <ele>375.3</ele>
        <time>2012-11-01T12:49:00.999Z</time>
      </trkpt>
      <trkpt lat="43.77291" lon="3.78796">
        <ele>375.4</ele>
        <time>2012-11-01T12:49:01.999Z</time>
      </trkpt>
      <trkpt lat="43.77294" lon="3.78791">
        <ele>376.1</ele>
        <time>2012-11-01T12:49:05.999Z</time>
      </trkpt>
      <trkpt lat="43.77294" lon="3.7879">
        <ele>376.2</ele>
        <time>2012-11-01T12:49:06.999Z</time>
      </trkpt>
      <trkpt lat="43.77297" lon="3.78785">
        <ele>376.5</ele>
        <time>2012-11-01T12:49:09.999Z</time>
      </trkpt>
      <trkpt lat="43.77298" lon="3.78784">
        <ele>376.7</ele>
        <time>2012-11-01T12:49:10.999Z</time>
      </trkpt>
      <trkpt lat="43.773" lon="3.7878">
        <ele>377.3</ele>
        <time>2012-11-01T12:49:15.999Z</time>
      </trkpt>
      <trkpt lat="43.77302" lon="3.78778">
        <ele>377.5</ele>
        <time>2012-11-01T12:49:16.999Z</time>
      </trkpt>
      <trkpt lat="43.77304" lon="3.78774">
        <ele>378</ele>
        <time>2012-11-01T12:49:21.999Z</time>
      </trkpt>
      <trkpt lat="43.77305" lon="3.78773">
        <ele>378.1</ele>
        <time>2012-11-01T12:49:22.999Z</time>
      </trkpt>
      <trkpt lat="43.77307" lon="3.78768">
        <ele>378.5</ele>
        <time>2012-11-01T12:49:25.999Z</time>
      </trkpt>
      <trkpt lat="43.77307" lon="3.78767">
        <ele>378.7</ele>
        <time>2012-11-01T12:49:26.999Z</time>
      </trkpt>
      <trkpt lat="43.77309" lon="3.78762">
        <ele>379</ele>
        <time>2012-11-01T12:49:30.999Z</time>
      </trkpt>
      <trkpt lat="43.7731" lon="3.78761">
        <ele>379.1</ele>
        <time>2012-11-01T12:49:31.999Z</time>
      </trkpt>
      <trkpt lat="43.77312" lon="3.78757">
        <ele>379.6</ele>
        <time>2012-11-01T12:49:35.999Z</time>
      </trkpt>
      <trkpt lat="43.77312" lon="3.78755">
        <ele>379.6</ele>
        <time>2012-11-01T12:49:36.999Z</time>
      </trkpt>
      <trkpt lat="43.77314" lon="3.7875">
        <ele>380.2</ele>
        <time>2012-11-01T12:49:42.999Z</time>
      </trkpt>
      <trkpt lat="43.77315" lon="3.7875">
        <ele>380.3</ele>
        <time>2012-11-01T12:49:43.999Z</time>
      </trkpt>
      <trkpt lat="43.77318" lon="3.78745">
        <ele>380.7</ele>
        <time>2012-11-01T12:49:47.999Z</time>
      </trkpt>
      <trkpt lat="43.77319" lon="3.78745">
        <ele>380.8</ele>
        <time>2012-11-01T12:49:48.999Z</time>
      </trkpt>
      <trkpt lat="43.77321" lon="3.78741">
        <ele>381.2</ele>
        <time>2012-11-01T12:49:53.999Z</time>
      </trkpt>
      <trkpt lat="43.77322" lon="3.78739">
        <ele>381.4</ele>
        <time>2012-11-01T12:49:54.999Z</time>
      </trkpt>
      <trkpt lat="43.77324" lon="3.78735">
        <ele>381.8</ele>
        <time>2012-11-01T12:49:57.999Z</time>
      </trkpt>
      <trkpt lat="43.77325" lon="3.78734">
        <ele>382</ele>
        <time>2012-11-01T12:49:58.999Z</time>
      </trkpt>
      <trkpt lat="43.77327" lon="3.78729">
        <ele>382.4</ele>
        <time>2012-11-01T12:50:02.999Z</time>
      </trkpt>
      <trkpt lat="43.77328" lon="3.78729">
        <ele>382.4</ele>
        <time>2012-11-01T12:50:03.999Z</time>
      </trkpt>
      <trkpt lat="43.77331" lon="3.78725">
        <ele>382.9</ele>
        <time>2012-11-01T12:50:06.999Z</time>
      </trkpt>
      <trkpt lat="43.77331" lon="3.78724">
        <ele>383</ele>
        <time>2012-11-01T12:50:07.999Z</time>
      </trkpt>
      <trkpt lat="43.77332" lon="3.78719">
        <ele>383.6</ele>
        <time>2012-11-01T12:50:11.999Z</time>
      </trkpt>
      <trkpt lat="43.77333" lon="3.78718">
        <ele>383.8</ele>
        <time>2012-11-01T12:50:12.999Z</time>
      </trkpt>
      <trkpt lat="43.77333" lon="3.78713">
        <ele>384.7</ele>
        <time>2012-11-01T12:50:16.999Z</time>
      </trkpt>
      <trkpt lat="43.77334" lon="3.78712">
        <ele>384.9</ele>
        <time>2012-11-01T12:50:17.999Z</time>
      </trkpt>
      <trkpt lat="43.77337" lon="3.78708">
        <ele>385.2</ele>
        <time>2012-11-01T12:50:20.999Z</time>
      </trkpt>
      <trkpt lat="43.77337" lon="3.78707">
        <ele>385.3</ele>
        <time>2012-11-01T12:50:21.999Z</time>
      </trkpt>
      <trkpt lat="43.7734" lon="3.78703">
        <ele>385.7</ele>
        <time>2012-11-01T12:50:27.999Z</time>
      </trkpt>
      <trkpt lat="43.7734" lon="3.78702">
        <ele>385.8</ele>
        <time>2012-11-01T12:50:28.999Z</time>
      </trkpt>
      <trkpt lat="43.77343" lon="3.78698">
        <ele>385.9</ele>
        <time>2012-11-01T12:50:31.999Z</time>
      </trkpt>
      <trkpt lat="43.77344" lon="3.78697">
        <ele>386</ele>
        <time>2012-11-01T12:50:32.999Z</time>
      </trkpt>
      <trkpt lat="43.77345" lon="3.78692">
        <ele>386.5</ele>
        <time>2012-11-01T12:50:35.999Z</time>
      </trkpt>
      <trkpt lat="43.77345" lon="3.7869">
        <ele>386.7</ele>
        <time>2012-11-01T12:50:36.999Z</time>
      </trkpt>
      <trkpt lat="43.77346" lon="3.78685">
        <ele>387.1</ele>
        <time>2012-11-01T12:50:40.999Z</time>
      </trkpt>
      <trkpt lat="43.77347" lon="3.78683">
        <ele>387.2</ele>
        <time>2012-11-01T12:50:41.999Z</time>
      </trkpt>
      <trkpt lat="43.77349" lon="3.78679">
        <ele>387.5</ele>
        <time>2012-11-01T12:50:44.999Z</time>
      </trkpt>
      <trkpt lat="43.77349" lon="3.78677">
        <ele>387.6</ele>
        <time>2012-11-01T12:50:45.999Z</time>
      </trkpt>
      <trkpt lat="43.7735" lon="3.78673">
        <ele>388.2</ele>
        <time>2012-11-01T12:50:49.999Z</time>
      </trkpt>
      <trkpt lat="43.7735" lon="3.78671">
        <ele>388.5</ele>
        <time>2012-11-01T12:50:50.999Z</time>
      </trkpt>
      <trkpt lat="43.77352" lon="3.78667">
        <ele>389.4</ele>
        <time>2012-11-01T12:50:55.999Z</time>
      </trkpt>
      <trkpt lat="43.77353" lon="3.78666">
        <ele>389.5</ele>
        <time>2012-11-01T12:50:56.999Z</time>
      </trkpt>
      <trkpt lat="43.77357" lon="3.78663">
        <ele>390</ele>
        <time>2012-11-01T12:50:59.999Z</time>
      </trkpt>
      <trkpt lat="43.77357" lon="3.78661">
        <ele>390.1</ele>
        <time>2012-11-01T12:51:00.999Z</time>
      </trkpt>
      <trkpt lat="43.77356" lon="3.78656">
        <ele>391</ele>
        <time>2012-11-01T12:51:05.999Z</time>
      </trkpt>
      <trkpt lat="43.77356" lon="3.78654">
        <ele>391.2</ele>
        <time>2012-11-01T12:51:06.999Z</time>
      </trkpt>
      <trkpt lat="43.77356" lon="3.78649">
        <ele>391.4</ele>
        <time>2012-11-01T12:51:08.999Z</time>
      </trkpt>
      <trkpt lat="43.77356" lon="3.78648">
        <ele>391.6</ele>
        <time>2012-11-01T12:51:09.999Z</time>
      </trkpt>
      <trkpt lat="43.77359" lon="3.78643">
        <ele>392.5</ele>
        <time>2012-11-01T12:51:15.999Z</time>
      </trkpt>
      <trkpt lat="43.7736" lon="3.78643">
        <ele>392.7</ele>
        <time>2012-11-01T12:51:16.999Z</time>
      </trkpt>
      <trkpt lat="43.77363" lon="3.78639">
        <ele>393.6</ele>
        <time>2012-11-01T12:51:21.999Z</time>
      </trkpt>
      <trkpt lat="43.77363" lon="3.78637">
        <ele>393.9</ele>
        <time>2012-11-01T12:51:22.999Z</time>
      </trkpt>
      <trkpt lat="43.77365" lon="3.78632">
        <ele>394.8</ele>
        <time>2012-11-01T12:51:26.999Z</time>
      </trkpt>
      <trkpt lat="43.77365" lon="3.78632">
        <ele>394.9</ele>
        <time>2012-11-01T12:51:27.999Z</time>
      </trkpt>
      <trkpt lat="43.77369" lon="3.78633">
        <ele>395.9</ele>
        <time>2012-11-01T12:51:33.999Z</time>
      </trkpt>
      <trkpt lat="43.7737" lon="3.78633">
        <ele>396.1</ele>
        <time>2012-11-01T12:51:34.999Z</time>
      </trkpt>
      <trkpt lat="43.77374" lon="3.78633">
        <ele>396.9</ele>
        <time>2012-11-01T12:51:39.999Z</time>
      </trkpt>
      <trkpt lat="43.77375" lon="3.78633">
        <ele>397</ele>
        <time>2012-11-01T12:51:40.999Z</time>
      </trkpt>
      <trkpt lat="43.77379" lon="3.78631">
        <ele>398.2</ele>
        <time>2012-11-01T12:51:48.999Z</time>
      </trkpt>
      <trkpt lat="43.7738" lon="3.78632">
        <ele>398.3</ele>
        <time>2012-11-01T12:51:49.999Z</time>
      </trkpt>
      <trkpt lat="43.77384" lon="3.78633">
        <ele>398.9</ele>
        <time>2012-11-01T12:51:54.999Z</time>
      </trkpt>
      <trkpt lat="43.77385" lon="3.78634">
        <ele>399.1</ele>
        <time>2012-11-01T12:51:55.999Z</time>
      </trkpt>
      <trkpt lat="43.77386" lon="3.78639">
        <ele>400.1</ele>
        <time>2012-11-01T12:52:01.999Z</time>
      </trkpt>
      <trkpt lat="43.77386" lon="3.7864">
        <ele>400.3</ele>
        <time>2012-11-01T12:52:02.999Z</time>
      </trkpt>
      <trkpt lat="43.77387" lon="3.78645">
        <ele>400.8</ele>
        <time>2012-11-01T12:52:06.999Z</time>
      </trkpt>
      <trkpt lat="43.77387" lon="3.78646">
        <ele>401</ele>
        <time>2012-11-01T12:52:07.999Z</time>
      </trkpt>
      <trkpt lat="43.7739" lon="3.78649">
        <ele>401.5</ele>
        <time>2012-11-01T12:52:12.999Z</time>
      </trkpt>
      <trkpt lat="43.77391" lon="3.7865">
        <ele>401.7</ele>
        <time>2012-11-01T12:52:13.999Z</time>
      </trkpt>
      <trkpt lat="43.77395" lon="3.78653">
        <ele>407.3</ele>
        <time>2012-11-01T12:53:56.999Z</time>
      </trkpt>
      <trkpt lat="43.77396" lon="3.78653">
        <ele>407.4</ele>
        <time>2012-11-01T12:53:57.999Z</time>
      </trkpt>
      <trkpt lat="43.77399" lon="3.78653">
        <ele>407.8</ele>
        <time>2012-11-01T12:54:01.999Z</time>
      </trkpt>
      <trkpt lat="43.774" lon="3.78654">
        <ele>407.9</ele>
        <time>2012-11-01T12:54:02.999Z</time>
      </trkpt>
      <trkpt lat="43.77404" lon="3.78655">
        <ele>408.5</ele>
        <time>2012-11-01T12:54:07.999Z</time>
      </trkpt>
      <trkpt lat="43.77405" lon="3.78656">
        <ele>408.6</ele>
        <time>2012-11-01T12:54:08.999Z</time>
      </trkpt>
      <trkpt lat="43.77406" lon="3.78661">
        <ele>409.2</ele>
        <time>2012-11-01T12:54:14.999Z</time>
      </trkpt>
      <trkpt lat="43.77406" lon="3.78662">
        <ele>409.3</ele>
        <time>2012-11-01T12:54:15.999Z</time>
      </trkpt>
      <trkpt lat="43.77406" lon="3.78667">
        <ele>409.5</ele>
        <time>2012-11-01T12:54:18.999Z</time>
      </trkpt>
      <trkpt lat="43.77406" lon="3.78668">
        <ele>409.7</ele>
        <time>2012-11-01T12:54:19.999Z</time>
      </trkpt>
      <trkpt lat="43.77408" lon="3.78672">
        <ele>410.5</ele>
        <time>2012-11-01T12:54:25.999Z</time>
      </trkpt>
      <trkpt lat="43.77409" lon="3.78674">
        <ele>410.7</ele>
        <time>2012-11-01T12:54:26.999Z</time>
      </trkpt>
      <trkpt lat="43.77412" lon="3.78679">
        <ele>411.1</ele>
        <time>2012-11-01T12:54:30.999Z</time>
      </trkpt>
      <trkpt lat="43.77412" lon="3.7868">
        <ele>411.2</ele>
        <time>2012-11-01T12:54:31.999Z</time>
      </trkpt>
      <trkpt lat="43.77411" lon="3.78685">
        <ele>411.4</ele>
        <time>2012-11-01T12:54:34.999Z</time>
      </trkpt>
      <trkpt lat="43.77411" lon="3.78687">
        <ele>411.6</ele>
        <time>2012-11-01T12:54:35.999Z</time>
      </trkpt>
      <trkpt lat="43.77411" lon="3.78692">
        <ele>412.3</ele>
        <time>2012-11-01T12:54:40.999Z</time>
      </trkpt>
      <trkpt lat="43.77411" lon="3.78693">
        <ele>412.5</ele>
        <time>2012-11-01T12:54:41.999Z</time>
      </trkpt>
      <trkpt lat="43.77411" lon="3.78699">
        <ele>412.9</ele>
        <time>2012-11-01T12:54:44.999Z</time>
      </trkpt>
      <trkpt lat="43.77411" lon="3.787">
        <ele>413</ele>
        <time>2012-11-01T12:54:45.999Z</time>
      </trkpt>
      <trkpt lat="43.77415" lon="3.78703">
        <ele>413.8</ele>
        <time>2012-11-01T12:54:52.999Z</time>
      </trkpt>
      <trkpt lat="43.77415" lon="3.78703">
        <ele>414</ele>
        <time>2012-11-01T12:54:53.999Z</time>
      </trkpt>
      <trkpt lat="43.77417" lon="3.78708">
        <ele>415.6</ele>
        <time>2012-11-01T12:55:02.999Z</time>
      </trkpt>
      <trkpt lat="43.77418" lon="3.78709">
        <ele>415.8</ele>
        <time>2012-11-01T12:55:03.999Z</time>
      </trkpt>
      <trkpt lat="43.7742" lon="3.78713">
        <ele>416.4</ele>
        <time>2012-11-01T12:55:07.999Z</time>
      </trkpt>
      <trkpt lat="43.77421" lon="3.78713">
        <ele>416.6</ele>
        <time>2012-11-01T12:55:08.999Z</time>
      </trkpt>
      <trkpt lat="43.77424" lon="3.78717">
        <ele>417.4</ele>
        <time>2012-11-01T12:55:13.999Z</time>
      </trkpt>
      <trkpt lat="43.77425" lon="3.78717">
        <ele>417.6</ele>
        <time>2012-11-01T12:55:14.999Z</time>
      </trkpt>
      <trkpt lat="43.77428" lon="3.78721">
        <ele>419</ele>
        <time>2012-11-01T12:55:21.999Z</time>
      </trkpt>
      <trkpt lat="43.77429" lon="3.78722">
        <ele>419.2</ele>
        <time>2012-11-01T12:55:22.999Z</time>
      </trkpt>
      <trkpt lat="43.77433" lon="3.78724">
        <ele>420.3</ele>
        <time>2012-11-01T12:55:28.999Z</time>
      </trkpt>
      <trkpt lat="43.77433" lon="3.78725">
        <ele>420.6</ele>
        <time>2012-11-01T12:55:29.999Z</time>
      </trkpt>
      <trkpt lat="43.77437" lon="3.78726">
        <ele>421.9</ele>
        <time>2012-11-01T12:55:35.999Z</time>
      </trkpt>
      <trkpt lat="43.77437" lon="3.78726">
        <ele>422.1</ele>
        <time>2012-11-01T12:55:36.999Z</time>
      </trkpt>
      <trkpt lat="43.77441" lon="3.78723">
        <ele>423.9</ele>
        <time>2012-11-01T12:55:46.999Z</time>
      </trkpt>
      <trkpt lat="43.77442" lon="3.78723">
        <ele>424.1</ele>
        <time>2012-11-01T12:55:47.999Z</time>
      </trkpt>
      <trkpt lat="43.77446" lon="3.78721">
        <ele>424.9</ele>
        <time>2012-11-01T12:55:53.999Z</time>
      </trkpt>
      <trkpt lat="43.77447" lon="3.78721">
        <ele>425</ele>
        <time>2012-11-01T12:55:54.999Z</time>
      </trkpt>
      <trkpt lat="43.77451" lon="3.78721">
        <ele>425.8</ele>
        <time>2012-11-01T12:56:02.999Z</time>
      </trkpt>
      <trkpt lat="43.77451" lon="3.7872">
        <ele>426</ele>
        <time>2012-11-01T12:56:03.999Z</time>
      </trkpt>
      <trkpt lat="43.77455" lon="3.78717">
        <ele>426.5</ele>
        <time>2012-11-01T12:56:08.999Z</time>
      </trkpt>
      <trkpt lat="43.77455" lon="3.78717">
        <ele>426.7</ele>
        <time>2012-11-01T12:56:09.999Z</time>
      </trkpt>
      <trkpt lat="43.77459" lon="3.78718">
        <ele>427.6</ele>
        <time>2012-11-01T12:56:14.999Z</time>
      </trkpt>
      <trkpt lat="43.7746" lon="3.78718">
        <ele>427.7</ele>
        <time>2012-11-01T12:56:15.999Z</time>
      </trkpt>
      <trkpt lat="43.77462" lon="3.78724">
        <ele>429</ele>
        <time>2012-11-01T12:56:21.999Z</time>
      </trkpt>
      <trkpt lat="43.77463" lon="3.78725">
        <ele>429.2</ele>
        <time>2012-11-01T12:56:22.999Z</time>
      </trkpt>
      <trkpt lat="43.77464" lon="3.7873">
        <ele>430.2</ele>
        <time>2012-11-01T12:56:27.999Z</time>
      </trkpt>
      <trkpt lat="43.77465" lon="3.78731">
        <ele>430.4</ele>
        <time>2012-11-01T12:56:28.999Z</time>
      </trkpt>
      <trkpt lat="43.77467" lon="3.78735">
        <ele>431.2</ele>
        <time>2012-11-01T12:56:35.999Z</time>
      </trkpt>
      <trkpt lat="43.77467" lon="3.78736">
        <ele>431.4</ele>
        <time>2012-11-01T12:56:36.999Z</time>
      </trkpt>
      <trkpt lat="43.7747" lon="3.78739">
        <ele>431.8</ele>
        <time>2012-11-01T12:56:41.999Z</time>
      </trkpt>
      <trkpt lat="43.77471" lon="3.78739">
        <ele>431.8</ele>
        <time>2012-11-01T12:56:42.999Z</time>
      </trkpt>
      <trkpt lat="43.77475" lon="3.78742">
        <ele>432.2</ele>
        <time>2012-11-01T12:56:47.999Z</time>
      </trkpt>
      <trkpt lat="43.77475" lon="3.78742">
        <ele>432.4</ele>
        <time>2012-11-01T12:56:48.999Z</time>
      </trkpt>
      <trkpt lat="43.77477" lon="3.78748">
        <ele>433.4</ele>
        <time>2012-11-01T12:56:54.999Z</time>
      </trkpt>
      <trkpt lat="43.77477" lon="3.7875">
        <ele>433.5</ele>
        <time>2012-11-01T12:56:55.999Z</time>
      </trkpt>
      <trkpt lat="43.77478" lon="3.78756">
        <ele>434.6</ele>
        <time>2012-11-01T12:57:00.999Z</time>
      </trkpt>
      <trkpt lat="43.77479" lon="3.78757">
        <ele>434.8</ele>
        <time>2012-11-01T12:57:01.999Z</time>
      </trkpt>
      <trkpt lat="43.77478" lon="3.78763">
        <ele>435.9</ele>
        <time>2012-11-01T12:57:08.999Z</time>
      </trkpt>
      <trkpt lat="43.77478" lon="3.78763">
        <ele>436.1</ele>
        <time>2012-11-01T12:57:09.999Z</time>
      </trkpt>
      <trkpt lat="43.77478" lon="3.78768">
        <ele>437.4</ele>
        <time>2012-11-01T12:57:15.999Z</time>
      </trkpt>
      <trkpt lat="43.77479" lon="3.7877">
        <ele>437.6</ele>
        <time>2012-11-01T12:57:16.999Z</time>
      </trkpt>
      <trkpt lat="43.7748" lon="3.78775">
        <ele>438.6</ele>
        <time>2012-11-01T12:57:21.999Z</time>
      </trkpt>
      <trkpt lat="43.77482" lon="3.78777">
        <ele>438.8</ele>
        <time>2012-11-01T12:57:22.999Z</time>
      </trkpt>
      <trkpt lat="43.77483" lon="3.78782">
        <ele>439.6</ele>
        <time>2012-11-01T12:57:27.999Z</time>
      </trkpt>
      <trkpt lat="43.77483" lon="3.78783">
        <ele>439.8</ele>
        <time>2012-11-01T12:57:28.999Z</time>
      </trkpt>
      <trkpt lat="43.77484" lon="3.78788">
        <ele>440.2</ele>
        <time>2012-11-01T12:57:31.999Z</time>
      </trkpt>
      <trkpt lat="43.77485" lon="3.78789">
        <ele>440.4</ele>
        <time>2012-11-01T12:57:32.999Z</time>
      </trkpt>
      <trkpt lat="43.77485" lon="3.78795">
        <ele>441.8</ele>
        <time>2012-11-01T12:57:38.999Z</time>
      </trkpt>
      <trkpt lat="43.77484" lon="3.78796">
        <ele>442</ele>
        <time>2012-11-01T12:57:39.999Z</time>
      </trkpt>
      <trkpt lat="43.7748" lon="3.78798">
        <ele>443.5</ele>
        <time>2012-11-01T12:57:45.999Z</time>
      </trkpt>
      <trkpt lat="43.77479" lon="3.78798">
        <ele>443.7</ele>
        <time>2012-11-01T12:57:46.999Z</time>
      </trkpt>
      <trkpt lat="43.77475" lon="3.78799">
        <ele>444.4</ele>
        <time>2012-11-01T12:57:53.999Z</time>
      </trkpt>
      <trkpt lat="43.77475" lon="3.78799">
        <ele>444.4</ele>
        <time>2012-11-01T12:57:54.999Z</time>
      </trkpt>
      <trkpt lat="43.77472" lon="3.78795">
        <ele>448.6</ele>
        <time>2012-11-01T12:59:06.999Z</time>
      </trkpt>
      <trkpt lat="43.77471" lon="3.78795">
        <ele>448.6</ele>
        <time>2012-11-01T12:59:07.999Z</time>
      </trkpt>
      <trkpt lat="43.77474" lon="3.78798">
        <ele>450.8</ele>
        <time>2012-11-01T13:00:03.999Z</time>
      </trkpt>
      <trkpt lat="43.77475" lon="3.78799">
        <ele>450.8</ele>
        <time>2012-11-01T13:00:04.999Z</time>
      </trkpt>
      <trkpt lat="43.77476" lon="3.78804">
        <ele>450.6</ele>
        <time>2012-11-01T13:00:08.999Z</time>
      </trkpt>
      <trkpt lat="43.77476" lon="3.78805">
        <ele>450.6</ele>
        <time>2012-11-01T13:00:09.999Z</time>
      </trkpt>
      <trkpt lat="43.7748" lon="3.78809">
        <ele>450.5</ele>
        <time>2012-11-01T13:00:15.999Z</time>
      </trkpt>
      <trkpt lat="43.7748" lon="3.78809">
        <ele>450.5</ele>
        <time>2012-11-01T13:00:16.999Z</time>
      </trkpt>
      <trkpt lat="43.77484" lon="3.78807">
        <ele>450.4</ele>
        <time>2012-11-01T13:00:22.999Z</time>
      </trkpt>
      <trkpt lat="43.77485" lon="3.78807">
        <ele>450.4</ele>
        <time>2012-11-01T13:00:23.999Z</time>
      </trkpt>
      <trkpt lat="43.77489" lon="3.7881">
        <ele>450.4</ele>
        <time>2012-11-01T13:00:27.999Z</time>
      </trkpt>
      <trkpt lat="43.7749" lon="3.78811">
        <ele>450.4</ele>
        <time>2012-11-01T13:00:28.999Z</time>
      </trkpt>
      <trkpt lat="43.77492" lon="3.78817">
        <ele>450.5</ele>
        <time>2012-11-01T13:00:33.999Z</time>
      </trkpt>
      <trkpt lat="43.77491" lon="3.78818">
        <ele>450.5</ele>
        <time>2012-11-01T13:00:34.999Z</time>
      </trkpt>
      <trkpt lat="43.77491" lon="3.78822">
        <ele>450.6</ele>
        <time>2012-11-01T13:00:37.999Z</time>
      </trkpt>
      <trkpt lat="43.77491" lon="3.78825">
        <ele>450.6</ele>
        <time>2012-11-01T13:00:38.999Z</time>
      </trkpt>
      <trkpt lat="43.7749" lon="3.78831">
        <ele>450.7</ele>
        <time>2012-11-01T13:00:42.999Z</time>
      </trkpt>
      <trkpt lat="43.7749" lon="3.78832">
        <ele>450.8</ele>
        <time>2012-11-01T13:00:43.999Z</time>
      </trkpt>
      <trkpt lat="43.77489" lon="3.78838">
        <ele>450.9</ele>
        <time>2012-11-01T13:00:46.999Z</time>
      </trkpt>
      <trkpt lat="43.77489" lon="3.78839">
        <ele>450.9</ele>
        <time>2012-11-01T13:00:47.999Z</time>
      </trkpt>
      <trkpt lat="43.77492" lon="3.78841">
        <ele>451.1</ele>
        <time>2012-11-01T13:00:51.999Z</time>
      </trkpt>
      <trkpt lat="43.77493" lon="3.78842">
        <ele>451.2</ele>
        <time>2012-11-01T13:00:52.999Z</time>
      </trkpt>
      <trkpt lat="43.77494" lon="3.78847">
        <ele>451.6</ele>
        <time>2012-11-01T13:00:56.999Z</time>
      </trkpt>
      <trkpt lat="43.77495" lon="3.78848">
        <ele>451.7</ele>
        <time>2012-11-01T13:00:57.999Z</time>
      </trkpt>
      <trkpt lat="43.77497" lon="3.78853">
        <ele>452.3</ele>
        <time>2012-11-01T13:01:04.999Z</time>
      </trkpt>
      <trkpt lat="43.77498" lon="3.78854">
        <ele>452.4</ele>
        <time>2012-11-01T13:01:05.999Z</time>
      </trkpt>
      <trkpt lat="43.77501" lon="3.78857">
        <ele>452.8</ele>
        <time>2012-11-01T13:01:09.999Z</time>
      </trkpt>
      <trkpt lat="43.77502" lon="3.78857">
        <ele>452.9</ele>
        <time>2012-11-01T13:01:10.999Z</time>
      </trkpt>
      <trkpt lat="43.77506" lon="3.78858">
        <ele>453.3</ele>
        <time>2012-11-01T13:01:15.999Z</time>
      </trkpt>
      <trkpt lat="43.77506" lon="3.78858">
        <ele>453.4</ele>
        <time>2012-11-01T13:01:16.999Z</time>
      </trkpt>
      <trkpt lat="43.7751" lon="3.7886">
        <ele>454.2</ele>
        <time>2012-11-01T13:01:22.999Z</time>
      </trkpt>
      <trkpt lat="43.7751" lon="3.78861">
        <ele>454.3</ele>
        <time>2012-11-01T13:01:23.999Z</time>
      </trkpt>
      <trkpt lat="43.77511" lon="3.78867">
        <ele>455.1</ele>
        <time>2012-11-01T13:01:28.999Z</time>
      </trkpt>
      <trkpt lat="43.77512" lon="3.78868">
        <ele>455.3</ele>
        <time>2012-11-01T13:01:29.999Z</time>
      </trkpt>
      <trkpt lat="43.77511" lon="3.78873">
        <ele>456</ele>
        <time>2012-11-01T13:01:35.999Z</time>
      </trkpt>
      <trkpt lat="43.77511" lon="3.78874">
        <ele>456.1</ele>
        <time>2012-11-01T13:01:36.999Z</time>
      </trkpt>
      <trkpt lat="43.77511" lon="3.7888">
        <ele>456.7</ele>
        <time>2012-11-01T13:01:42.999Z</time>
      </trkpt>
      <trkpt lat="43.77511" lon="3.78881">
        <ele>456.8</ele>
        <time>2012-11-01T13:01:43.999Z</time>
      </trkpt>
      <trkpt lat="43.77512" lon="3.78886">
        <ele>457.7</ele>
        <time>2012-11-01T13:01:52.999Z</time>
      </trkpt>
      <trkpt lat="43.77512" lon="3.78887">
        <ele>457.9</ele>
        <time>2012-11-01T13:01:53.999Z</time>
      </trkpt>
      <trkpt lat="43.77515" lon="3.78892">
        <ele>459.6</ele>
        <time>2012-11-01T13:02:13.999Z</time>
      </trkpt>
      <trkpt lat="43.77515" lon="3.78892">
        <ele>459.8</ele>
        <time>2012-11-01T13:02:14.999Z</time>
      </trkpt>
      <trkpt lat="43.77518" lon="3.78895">
        <ele>460.7</ele>
        <time>2012-11-01T13:02:25.999Z</time>
      </trkpt>
      <trkpt lat="43.77519" lon="3.78896">
        <ele>460.8</ele>
        <time>2012-11-01T13:02:27.000Z</time>
      </trkpt>
      <trkpt lat="43.77519" lon="3.78902">
        <ele>461.3</ele>
        <time>2012-11-01T13:02:31.000Z</time>
      </trkpt>
      <trkpt lat="43.7752" lon="3.78903">
        <ele>461.4</ele>
        <time>2012-11-01T13:02:32.000Z</time>
      </trkpt>
      <trkpt lat="43.77522" lon="3.78908">
        <ele>461.9</ele>
        <time>2012-11-01T13:02:37.000Z</time>
      </trkpt>
      <trkpt lat="43.77522" lon="3.78909">
        <ele>461.9</ele>
        <time>2012-11-01T13:02:38.000Z</time>
      </trkpt>
      <trkpt lat="43.77522" lon="3.78914">
        <ele>462.6</ele>
        <time>2012-11-01T13:02:43.000Z</time>
      </trkpt>
      <trkpt lat="43.77523" lon="3.78915">
        <ele>462.8</ele>
        <time>2012-11-01T13:02:44.000Z</time>
      </trkpt>
      <trkpt lat="43.77525" lon="3.78919">
        <ele>463.6</ele>
        <time>2012-11-01T13:02:50.000Z</time>
      </trkpt>
      <trkpt lat="43.77525" lon="3.7892">
        <ele>463.7</ele>
        <time>2012-11-01T13:02:51.000Z</time>
      </trkpt>
      <trkpt lat="43.77528" lon="3.78924">
        <ele>464.2</ele>
        <time>2012-11-01T13:02:55.000Z</time>
      </trkpt>
      <trkpt lat="43.77529" lon="3.78925">
        <ele>464.3</ele>
        <time>2012-11-01T13:02:56.000Z</time>
      </trkpt>
      <trkpt lat="43.77533" lon="3.78927">
        <ele>465.3</ele>
        <time>2012-11-01T13:03:03.000Z</time>
      </trkpt>
      <trkpt lat="43.77533" lon="3.78928">
        <ele>465.5</ele>
        <time>2012-11-01T13:03:04.000Z</time>
      </trkpt>
      <trkpt lat="43.77536" lon="3.78932">
        <ele>467.5</ele>
        <time>2012-11-01T13:03:18.000Z</time>
      </trkpt>
      <trkpt lat="43.77536" lon="3.78932">
        <ele>467.7</ele>
        <time>2012-11-01T13:03:19.000Z</time>
      </trkpt>
      <trkpt lat="43.77538" lon="3.78938">
        <ele>469.5</ele>
        <time>2012-11-01T13:03:30.000Z</time>
      </trkpt>
      <trkpt lat="43.77538" lon="3.78939">
        <ele>469.6</ele>
        <time>2012-11-01T13:03:31.000Z</time>
      </trkpt>
      <trkpt lat="43.77539" lon="3.78944">
        <ele>470.2</ele>
        <time>2012-11-01T13:03:35.000Z</time>
      </trkpt>
      <trkpt lat="43.77539" lon="3.78946">
        <ele>470.3</ele>
        <time>2012-11-01T13:03:36.000Z</time>
      </trkpt>
      <trkpt lat="43.77538" lon="3.78952">
        <ele>471.2</ele>
        <time>2012-11-01T13:03:42.000Z</time>
      </trkpt>
      <trkpt lat="43.77539" lon="3.78954">
        <ele>471.3</ele>
        <time>2012-11-01T13:03:43.000Z</time>
      </trkpt>
      <trkpt lat="43.7754" lon="3.7896">
        <ele>472.8</ele>
        <time>2012-11-01T13:03:54.000Z</time>
      </trkpt>
      <trkpt lat="43.7754" lon="3.7896">
        <ele>473</ele>
        <time>2012-11-01T13:03:55.000Z</time>
      </trkpt>
      <trkpt lat="43.7754" lon="3.78966">
        <ele>474.1</ele>
        <time>2012-11-01T13:04:01.000Z</time>
      </trkpt>
      <trkpt lat="43.7754" lon="3.78967">
        <ele>474.3</ele>
        <time>2012-11-01T13:04:02.000Z</time>
      </trkpt>
      <trkpt lat="43.77543" lon="3.78971">
        <ele>476.1</ele>
        <time>2012-11-01T13:04:11.000Z</time>
      </trkpt>
      <trkpt lat="43.77543" lon="3.78971">
        <ele>476.3</ele>
        <time>2012-11-01T13:04:12.000Z</time>
      </trkpt>
      <trkpt lat="43.77547" lon="3.78975">
        <ele>478.2</ele>
        <time>2012-11-01T13:04:21.000Z</time>
      </trkpt>
      <trkpt lat="43.77547" lon="3.78976">
        <ele>478.5</ele>
        <time>2012-11-01T13:04:22.000Z</time>
      </trkpt>
      <trkpt lat="43.77547" lon="3.78981">
        <ele>481.4</ele>
        <time>2012-11-01T13:04:34.000Z</time>
      </trkpt>
      <trkpt lat="43.77547" lon="3.78982">
        <ele>481.7</ele>
        <time>2012-11-01T13:04:35.000Z</time>
      </trkpt>
      <trkpt lat="43.77546" lon="3.78987">
        <ele>483.3</ele>
        <time>2012-11-01T13:04:41.000Z</time>
      </trkpt>
      <trkpt lat="43.77546" lon="3.78988">
        <ele>483.6</ele>
        <time>2012-11-01T13:04:42.000Z</time>
      </trkpt>
      <trkpt lat="43.77547" lon="3.78994">
        <ele>485.1</ele>
        <time>2012-11-01T13:04:49.000Z</time>
      </trkpt>
      <trkpt lat="43.77547" lon="3.78995">
        <ele>485.3</ele>
        <time>2012-11-01T13:04:50.000Z</time>
      </trkpt>
      <trkpt lat="43.7755" lon="3.78991">
        <ele>486.7</ele>
        <time>2012-11-01T13:04:57.000Z</time>
      </trkpt>
      <trkpt lat="43.77551" lon="3.7899">
        <ele>486.8</ele>
        <time>2012-11-01T13:04:58.000Z</time>
      </trkpt>
      <trkpt lat="43.77554" lon="3.78988">
        <ele>487.9</ele>
        <time>2012-11-01T13:05:03.000Z</time>
      </trkpt>
      <trkpt lat="43.77555" lon="3.78987">
        <ele>488.1</ele>
        <time>2012-11-01T13:05:04.000Z</time>
      </trkpt>
      <trkpt lat="43.77559" lon="3.78988">
        <ele>489.5</ele>
        <time>2012-11-01T13:05:11.000Z</time>
      </trkpt>
      <trkpt lat="43.77559" lon="3.78987">
        <ele>489.8</ele>
        <time>2012-11-01T13:05:12.000Z</time>
      </trkpt>
      <trkpt lat="43.77563" lon="3.78985">
        <ele>491.2</ele>
        <time>2012-11-01T13:05:19.000Z</time>
      </trkpt>
      <trkpt lat="43.77564" lon="3.78984">
        <ele>491.4</ele>
        <time>2012-11-01T13:05:20.000Z</time>
      </trkpt>
      <trkpt lat="43.77568" lon="3.78982">
        <ele>492</ele>
        <time>2012-11-01T13:05:26.000Z</time>
      </trkpt>
      <trkpt lat="43.77569" lon="3.78981">
        <ele>492.1</ele>
        <time>2012-11-01T13:05:27.000Z</time>
      </trkpt>
      <trkpt lat="43.77572" lon="3.78979">
        <ele>493.2</ele>
        <time>2012-11-01T13:05:35.000Z</time>
      </trkpt>
      <trkpt lat="43.77573" lon="3.7898">
        <ele>493.4</ele>
        <time>2012-11-01T13:05:36.000Z</time>
      </trkpt>
      <trkpt lat="43.77577" lon="3.78981">
        <ele>494</ele>
        <time>2012-11-01T13:05:40.000Z</time>
      </trkpt>
      <trkpt lat="43.77579" lon="3.78981">
        <ele>494.2</ele>
        <time>2012-11-01T13:05:41.000Z</time>
      </trkpt>
      <trkpt lat="43.77583" lon="3.78981">
        <ele>496.7</ele>
        <time>2012-11-01T13:06:05.000Z</time>
      </trkpt>
      <trkpt lat="43.77583" lon="3.78981">
        <ele>496.9</ele>
        <time>2012-11-01T13:06:06.000Z</time>
      </trkpt>
      <trkpt lat="43.77586" lon="3.78986">
        <ele>498.4</ele>
        <time>2012-11-01T13:06:15.000Z</time>
      </trkpt>
      <trkpt lat="43.77586" lon="3.78987">
        <ele>498.5</ele>
        <time>2012-11-01T13:06:16.000Z</time>
      </trkpt>
      <trkpt lat="43.77586" lon="3.78992">
        <ele>499.2</ele>
        <time>2012-11-01T13:06:20.000Z</time>
      </trkpt>
      <trkpt lat="43.77585" lon="3.78994">
        <ele>499.4</ele>
        <time>2012-11-01T13:06:21.000Z</time>
      </trkpt>
      <trkpt lat="43.77585" lon="3.79">
        <ele>500.4</ele>
        <time>2012-11-01T13:06:26.000Z</time>
      </trkpt>
      <trkpt lat="43.77585" lon="3.79001">
        <ele>500.6</ele>
        <time>2012-11-01T13:06:27.000Z</time>
      </trkpt>
      <trkpt lat="43.77585" lon="3.79006">
        <ele>501.6</ele>
        <time>2012-11-01T13:06:32.000Z</time>
      </trkpt>
      <trkpt lat="43.77585" lon="3.79007">
        <ele>501.8</ele>
        <time>2012-11-01T13:06:33.000Z</time>
      </trkpt>
      <trkpt lat="43.77589" lon="3.79011">
        <ele>503</ele>
        <time>2012-11-01T13:06:41.000Z</time>
      </trkpt>
      <trkpt lat="43.77589" lon="3.79011">
        <ele>503.2</ele>
        <time>2012-11-01T13:06:42.000Z</time>
      </trkpt>
      <trkpt lat="43.77592" lon="3.79015">
        <ele>503.6</ele>
        <time>2012-11-01T13:06:47.000Z</time>
      </trkpt>
      <trkpt lat="43.77592" lon="3.79015">
        <ele>503.6</ele>
        <time>2012-11-01T13:06:48.000Z</time>
      </trkpt>
      <trkpt lat="43.77596" lon="3.79015">
        <ele>503.9</ele>
        <time>2012-11-01T13:06:53.000Z</time>
      </trkpt>
      <trkpt lat="43.77597" lon="3.79015">
        <ele>504</ele>
        <time>2012-11-01T13:06:54.000Z</time>
      </trkpt>
      <trkpt lat="43.77601" lon="3.79015">
        <ele>504.4</ele>
        <time>2012-11-01T13:07:01.000Z</time>
      </trkpt>
      <trkpt lat="43.77602" lon="3.79015">
        <ele>504.5</ele>
        <time>2012-11-01T13:07:02.000Z</time>
      </trkpt>
      <trkpt lat="43.77605" lon="3.79012">
        <ele>505.9</ele>
        <time>2012-11-01T13:07:20.000Z</time>
      </trkpt>
      <trkpt lat="43.77605" lon="3.79011">
        <ele>506</ele>
        <time>2012-11-01T13:07:21.000Z</time>
      </trkpt>
      <trkpt lat="43.77604" lon="3.79006">
        <ele>508.1</ele>
        <time>2012-11-01T13:08:48.000Z</time>
      </trkpt>
      <trkpt lat="43.77604" lon="3.79005">
        <ele>508.2</ele>
        <time>2012-11-01T13:08:49.000Z</time>
      </trkpt>
      <trkpt lat="43.77604" lon="3.79011">
        <ele>508.9</ele>
        <time>2012-11-01T13:09:37.000Z</time>
      </trkpt>
      <trkpt lat="43.77604" lon="3.79012">
        <ele>509</ele>
        <time>2012-11-01T13:09:38.000Z</time>
      </trkpt>
      <trkpt lat="43.77601" lon="3.79015">
        <ele>512.1</ele>
        <time>2012-11-01T13:13:41.000Z</time>
      </trkpt>
      <trkpt lat="43.776" lon="3.79016">
        <ele>512.2</ele>
        <time>2012-11-01T13:13:42.000Z</time>
      </trkpt>
      <trkpt lat="43.77599" lon="3.79021">
        <ele>512.3</ele>
        <time>2012-11-01T13:13:45.000Z</time>
      </trkpt>
      <trkpt lat="43.77599" lon="3.79023">
        <ele>512.4</ele>
        <time>2012-11-01T13:13:46.000Z</time>
      </trkpt>
      <trkpt lat="43.77598" lon="3.79028">
        <ele>512.5</ele>
        <time>2012-11-01T13:13:49.000Z</time>
      </trkpt>
      <trkpt lat="43.77598" lon="3.79029">
        <ele>512.5</ele>
        <time>2012-11-01T13:13:50.000Z</time>
      </trkpt>
      <trkpt lat="43.77597" lon="3.79034">
        <ele>512.9</ele>
        <time>2012-11-01T13:14:03.000Z</time>
      </trkpt>
      <trkpt lat="43.77596" lon="3.79035">
        <ele>512.9</ele>
        <time>2012-11-01T13:14:04.000Z</time>
      </trkpt>
      <trkpt lat="43.77593" lon="3.79037">
        <ele>512.9</ele>
        <time>2012-11-01T13:14:07.000Z</time>
      </trkpt>
      <trkpt lat="43.77592" lon="3.79038">
        <ele>512.9</ele>
        <time>2012-11-01T13:14:08.000Z</time>
      </trkpt>
      <trkpt lat="43.77588" lon="3.79042">
        <ele>513.1</ele>
        <time>2012-11-01T13:14:11.000Z</time>
      </trkpt>
      <trkpt lat="43.77587" lon="3.79044">
        <ele>513.1</ele>
        <time>2012-11-01T13:14:12.000Z</time>
      </trkpt>
      <trkpt lat="43.77583" lon="3.79047">
        <ele>513.5</ele>
        <time>2012-11-01T13:14:16.000Z</time>
      </trkpt>
      <trkpt lat="43.77583" lon="3.79048">
        <ele>513.6</ele>
        <time>2012-11-01T13:14:17.000Z</time>
      </trkpt>
      <trkpt lat="43.77583" lon="3.79053">
        <ele>513.8</ele>
        <time>2012-11-01T13:14:21.000Z</time>
      </trkpt>
      <trkpt lat="43.77583" lon="3.79055">
        <ele>513.9</ele>
        <time>2012-11-01T13:14:22.000Z</time>
      </trkpt>
      <trkpt lat="43.77583" lon="3.7906">
        <ele>514.1</ele>
        <time>2012-11-01T13:14:25.000Z</time>
      </trkpt>
      <trkpt lat="43.77584" lon="3.79062">
        <ele>514.2</ele>
        <time>2012-11-01T13:14:26.000Z</time>
      </trkpt>
      <trkpt lat="43.77586" lon="3.79067">
        <ele>514.4</ele>
        <time>2012-11-01T13:14:29.000Z</time>
      </trkpt>
      <trkpt lat="43.77586" lon="3.79068">
        <ele>514.4</ele>
        <time>2012-11-01T13:14:30.000Z</time>
      </trkpt>
      <trkpt lat="43.77587" lon="3.79074">
        <ele>514.4</ele>
        <time>2012-11-01T13:14:33.000Z</time>
      </trkpt>
      <trkpt lat="43.77587" lon="3.79075">
        <ele>514.5</ele>
        <time>2012-11-01T13:14:34.000Z</time>
      </trkpt>
      <trkpt lat="43.77587" lon="3.7908">
        <ele>514.7</ele>
        <time>2012-11-01T13:14:37.000Z</time>
      </trkpt>
      <trkpt lat="43.77587" lon="3.79082">
        <ele>514.8</ele>
        <time>2012-11-01T13:14:38.000Z</time>
      </trkpt>
      <trkpt lat="43.77587" lon="3.79087">
        <ele>515.1</ele>
        <time>2012-11-01T13:14:42.000Z</time>
      </trkpt>
      <trkpt lat="43.77587" lon="3.79088">
        <ele>515.1</ele>
        <time>2012-11-01T13:14:43.000Z</time>
      </trkpt>
      <trkpt lat="43.77587" lon="3.79094">
        <ele>515.3</ele>
        <time>2012-11-01T13:14:47.000Z</time>
      </trkpt>
      <trkpt lat="43.77588" lon="3.79095">
        <ele>515.3</ele>
        <time>2012-11-01T13:14:48.000Z</time>
      </trkpt>
      <trkpt lat="43.77589" lon="3.791">
        <ele>515.3</ele>
        <time>2012-11-01T13:14:53.000Z</time>
      </trkpt>
      <trkpt lat="43.7759" lon="3.791">
        <ele>515.4</ele>
        <time>2012-11-01T13:14:54.000Z</time>
      </trkpt>
      <trkpt lat="43.77591" lon="3.79105">
        <ele>515.7</ele>
        <time>2012-11-01T13:14:57.000Z</time>
      </trkpt>
      <trkpt lat="43.77592" lon="3.79107">
        <ele>515.8</ele>
        <time>2012-11-01T13:14:58.000Z</time>
      </trkpt>
      <trkpt lat="43.77594" lon="3.79111">
        <ele>515.7</ele>
        <time>2012-11-01T13:15:01.000Z</time>
      </trkpt>
      <trkpt lat="43.77595" lon="3.79114">
        <ele>515.7</ele>
        <time>2012-11-01T13:15:02.000Z</time>
      </trkpt>
      <trkpt lat="43.77596" lon="3.79119">
        <ele>515.6</ele>
        <time>2012-11-01T13:15:05.000Z</time>
      </trkpt>
      <trkpt lat="43.77596" lon="3.79121">
        <ele>515.6</ele>
        <time>2012-11-01T13:15:06.000Z</time>
      </trkpt>
      <trkpt lat="43.77596" lon="3.79126">
        <ele>515.4</ele>
        <time>2012-11-01T13:15:09.000Z</time>
      </trkpt>
      <trkpt lat="43.77596" lon="3.79128">
        <ele>515.4</ele>
        <time>2012-11-01T13:15:10.000Z</time>
      </trkpt>
      <trkpt lat="43.77599" lon="3.79132">
        <ele>515.3</ele>
        <time>2012-11-01T13:15:15.000Z</time>
      </trkpt>
      <trkpt lat="43.776" lon="3.79133">
        <ele>515.2</ele>
        <time>2012-11-01T13:15:16.000Z</time>
      </trkpt>
      <trkpt lat="43.77604" lon="3.79134">
        <ele>515.1</ele>
        <time>2012-11-01T13:15:21.000Z</time>
      </trkpt>
      <trkpt lat="43.77605" lon="3.79135">
        <ele>515.1</ele>
        <time>2012-11-01T13:15:22.000Z</time>
      </trkpt>
      <trkpt lat="43.77608" lon="3.79136">
        <ele>515.1</ele>
        <time>2012-11-01T13:15:26.000Z</time>
      </trkpt>
      <trkpt lat="43.7761" lon="3.79137">
        <ele>515.2</ele>
        <time>2012-11-01T13:15:27.000Z</time>
      </trkpt>
      <trkpt lat="43.77614" lon="3.79139">
        <ele>515</ele>
        <time>2012-11-01T13:15:30.000Z</time>
      </trkpt>
      <trkpt lat="43.77614" lon="3.79141">
        <ele>515</ele>
        <time>2012-11-01T13:15:31.000Z</time>
      </trkpt>
      <trkpt lat="43.77617" lon="3.79145">
        <ele>515.1</ele>
        <time>2012-11-01T13:15:36.000Z</time>
      </trkpt>
      <trkpt lat="43.77617" lon="3.79146">
        <ele>515.1</ele>
        <time>2012-11-01T13:15:37.000Z</time>
      </trkpt>
      <trkpt lat="43.77619" lon="3.79151">
        <ele>515.4</ele>
        <time>2012-11-01T13:15:43.000Z</time>
      </trkpt>
      <trkpt lat="43.7762" lon="3.79152">
        <ele>515.4</ele>
        <time>2012-11-01T13:15:44.000Z</time>
      </trkpt>
      <trkpt lat="43.77622" lon="3.79156">
        <ele>515.7</ele>
        <time>2012-11-01T13:15:49.000Z</time>
      </trkpt>
      <trkpt lat="43.77622" lon="3.79157">
        <ele>515.7</ele>
        <time>2012-11-01T13:15:50.000Z</time>
      </trkpt>
      <trkpt lat="43.77624" lon="3.79163">
        <ele>515.9</ele>
        <time>2012-11-01T13:15:54.000Z</time>
      </trkpt>
      <trkpt lat="43.77624" lon="3.79165">
        <ele>516</ele>
        <time>2012-11-01T13:15:55.000Z</time>
      </trkpt>
      <trkpt lat="43.77625" lon="3.79171">
        <ele>516.7</ele>
        <time>2012-11-01T13:16:00.000Z</time>
      </trkpt>
      <trkpt lat="43.77625" lon="3.79172">
        <ele>516.8</ele>
        <time>2012-11-01T13:16:01.000Z</time>
      </trkpt>
      <trkpt lat="43.77624" lon="3.79178">
        <ele>517.7</ele>
        <time>2012-11-01T13:16:08.000Z</time>
      </trkpt>
      <trkpt lat="43.77624" lon="3.79179">
        <ele>517.7</ele>
        <time>2012-11-01T13:16:09.000Z</time>
      </trkpt>
      <trkpt lat="43.77622" lon="3.79183">
        <ele>517.8</ele>
        <time>2012-11-01T13:16:16.000Z</time>
      </trkpt>
      <trkpt lat="43.77622" lon="3.79184">
        <ele>517.9</ele>
        <time>2012-11-01T13:16:17.000Z</time>
      </trkpt>
      <trkpt lat="43.77622" lon="3.7919">
        <ele>517.9</ele>
        <time>2012-11-01T13:16:21.000Z</time>
      </trkpt>
      <trkpt lat="43.77622" lon="3.79192">
        <ele>517.9</ele>
        <time>2012-11-01T13:16:22.000Z</time>
      </trkpt>
      <trkpt lat="43.77623" lon="3.79197">
        <ele>517.9</ele>
        <time>2012-11-01T13:16:25.000Z</time>
      </trkpt>
      <trkpt lat="43.77623" lon="3.79198">
        <ele>518</ele>
        <time>2012-11-01T13:16:26.000Z</time>
      </trkpt>
      <trkpt lat="43.77624" lon="3.79204">
        <ele>518.5</ele>
        <time>2012-11-01T13:16:31.000Z</time>
      </trkpt>
      <trkpt lat="43.77625" lon="3.79205">
        <ele>518.7</ele>
        <time>2012-11-01T13:16:32.000Z</time>
      </trkpt>
      <trkpt lat="43.77625" lon="3.79211">
        <ele>519.4</ele>
        <time>2012-11-01T13:16:40.000Z</time>
      </trkpt>
      <trkpt lat="43.77625" lon="3.79212">
        <ele>519.5</ele>
        <time>2012-11-01T13:16:41.000Z</time>
      </trkpt>
      <trkpt lat="43.77625" lon="3.79218">
        <ele>520.1</ele>
        <time>2012-11-01T13:16:46.000Z</time>
      </trkpt>
      <trkpt lat="43.77625" lon="3.79219">
        <ele>520.1</ele>
        <time>2012-11-01T13:16:47.000Z</time>
      </trkpt>
      <trkpt lat="43.77627" lon="3.79223">
        <ele>520.6</ele>
        <time>2012-11-01T13:16:52.000Z</time>
      </trkpt>
      <trkpt lat="43.77627" lon="3.79224">
        <ele>520.7</ele>
        <time>2012-11-01T13:16:53.000Z</time>
      </trkpt>
      <trkpt lat="43.77629" lon="3.7923">
        <ele>521.1</ele>
        <time>2012-11-01T13:16:58.000Z</time>
      </trkpt>
      <trkpt lat="43.7763" lon="3.79231">
        <ele>521.1</ele>
        <time>2012-11-01T13:16:59.000Z</time>
      </trkpt>
      <trkpt lat="43.77628" lon="3.79236">
        <ele>521.4</ele>
        <time>2012-11-01T13:17:07.000Z</time>
      </trkpt>
      <trkpt lat="43.77628" lon="3.79237">
        <ele>521.5</ele>
        <time>2012-11-01T13:17:08.000Z</time>
      </trkpt>
      <trkpt lat="43.77627" lon="3.79243">
        <ele>521.9</ele>
        <time>2012-11-01T13:17:19.000Z</time>
      </trkpt>
      <trkpt lat="43.77628" lon="3.79243">
        <ele>522</ele>
        <time>2012-11-01T13:17:20.000Z</time>
      </trkpt>
      <trkpt lat="43.7763" lon="3.79247">
        <ele>522.5</ele>
        <time>2012-11-01T13:17:25.000Z</time>
      </trkpt>
      <trkpt lat="43.77631" lon="3.79248">
        <ele>522.6</ele>
        <time>2012-11-01T13:17:26.000Z</time>
      </trkpt>
      <trkpt lat="43.77634" lon="3.79252">
        <ele>523</ele>
        <time>2012-11-01T13:17:31.000Z</time>
      </trkpt>
      <trkpt lat="43.77635" lon="3.79253">
        <ele>523.2</ele>
        <time>2012-11-01T13:17:32.000Z</time>
      </trkpt>
      <trkpt lat="43.77639" lon="3.79254">
        <ele>523.6</ele>
        <time>2012-11-01T13:17:39.000Z</time>
      </trkpt>
      <trkpt lat="43.7764" lon="3.79254">
        <ele>523.7</ele>
        <time>2012-11-01T13:17:40.000Z</time>
      </trkpt>
      <trkpt lat="43.77644" lon="3.79255">
        <ele>524.7</ele>
        <time>2012-11-01T13:17:45.000Z</time>
      </trkpt>
      <trkpt lat="43.77645" lon="3.79256">
        <ele>525</ele>
        <time>2012-11-01T13:17:46.000Z</time>
      </trkpt>
      <trkpt lat="43.77648" lon="3.79258">
        <ele>526.2</ele>
        <time>2012-11-01T13:17:51.000Z</time>
      </trkpt>
      <trkpt lat="43.77649" lon="3.79258">
        <ele>526.4</ele>
        <time>2012-11-01T13:17:52.000Z</time>
      </trkpt>
      <trkpt lat="43.77652" lon="3.79262">
        <ele>527.8</ele>
        <time>2012-11-01T13:18:03.000Z</time>
      </trkpt>
      <trkpt lat="43.77652" lon="3.79262">
        <ele>527.9</ele>
        <time>2012-11-01T13:18:04.000Z</time>
      </trkpt>
      <trkpt lat="43.77652" lon="3.79268">
        <ele>529</ele>
        <time>2012-11-01T13:18:14.000Z</time>
      </trkpt>
      <trkpt lat="43.77653" lon="3.79268">
        <ele>529.2</ele>
        <time>2012-11-01T13:18:15.000Z</time>
      </trkpt>
      <trkpt lat="43.77654" lon="3.79274">
        <ele>530.2</ele>
        <time>2012-11-01T13:18:21.000Z</time>
      </trkpt>
      <trkpt lat="43.77654" lon="3.79274">
        <ele>530.4</ele>
        <time>2012-11-01T13:18:22.000Z</time>
      </trkpt>
      <trkpt lat="43.77657" lon="3.79278">
        <ele>531.9</ele>
        <time>2012-11-01T13:18:29.000Z</time>
      </trkpt>
      <trkpt lat="43.77657" lon="3.79279">
        <ele>532.1</ele>
        <time>2012-11-01T13:18:30.000Z</time>
      </trkpt>
      <trkpt lat="43.77659" lon="3.79285">
        <ele>533.5</ele>
        <time>2012-11-01T13:18:36.000Z</time>
      </trkpt>
      <trkpt lat="43.77659" lon="3.79286">
        <ele>533.7</ele>
        <time>2012-11-01T13:18:37.000Z</time>
      </trkpt>
      <trkpt lat="43.77656" lon="3.7929">
        <ele>535.7</ele>
        <time>2012-11-01T13:18:47.000Z</time>
      </trkpt>
      <trkpt lat="43.77656" lon="3.79291">
        <ele>536</ele>
        <time>2012-11-01T13:18:48.000Z</time>
      </trkpt>
      <trkpt lat="43.77655" lon="3.79297">
        <ele>538.5</ele>
        <time>2012-11-01T13:19:08.000Z</time>
      </trkpt>
      <trkpt lat="43.77655" lon="3.79298">
        <ele>538.7</ele>
        <time>2012-11-01T13:19:09.000Z</time>
      </trkpt>
      <trkpt lat="43.77655" lon="3.79303">
        <ele>539.2</ele>
        <time>2012-11-01T13:19:13.000Z</time>
      </trkpt>
      <trkpt lat="43.77655" lon="3.79304">
        <ele>539.3</ele>
        <time>2012-11-01T13:19:14.000Z</time>
      </trkpt>
      <trkpt lat="43.77654" lon="3.7931">
        <ele>539.7</ele>
        <time>2012-11-01T13:19:18.000Z</time>
      </trkpt>
      <trkpt lat="43.77654" lon="3.79311">
        <ele>539.8</ele>
        <time>2012-11-01T13:19:19.000Z</time>
      </trkpt>
      <trkpt lat="43.77655" lon="3.79316">
        <ele>540.1</ele>
        <time>2012-11-01T13:19:23.000Z</time>
      </trkpt>
      <trkpt lat="43.77655" lon="3.79318">
        <ele>540.2</ele>
        <time>2012-11-01T13:19:24.000Z</time>
      </trkpt>
      <trkpt lat="43.77657" lon="3.79322">
        <ele>540.3</ele>
        <time>2012-11-01T13:19:26.000Z</time>
      </trkpt>
      <trkpt lat="43.77657" lon="3.79323">
        <ele>540.4</ele>
        <time>2012-11-01T13:19:27.000Z</time>
      </trkpt>
      <trkpt lat="43.77661" lon="3.79326">
        <ele>540.7</ele>
        <time>2012-11-01T13:19:32.000Z</time>
      </trkpt>
      <trkpt lat="43.77661" lon="3.79328">
        <ele>540.7</ele>
        <time>2012-11-01T13:19:33.000Z</time>
      </trkpt>
      <trkpt lat="43.77662" lon="3.79333">
        <ele>540.8</ele>
        <time>2012-11-01T13:19:37.000Z</time>
      </trkpt>
      <trkpt lat="43.77661" lon="3.79335">
        <ele>540.8</ele>
        <time>2012-11-01T13:19:38.000Z</time>
      </trkpt>
      <trkpt lat="43.77661" lon="3.7934">
        <ele>541.1</ele>
        <time>2012-11-01T13:19:44.000Z</time>
      </trkpt>
      <trkpt lat="43.77661" lon="3.79341">
        <ele>541.2</ele>
        <time>2012-11-01T13:19:45.000Z</time>
      </trkpt>
      <trkpt lat="43.77661" lon="3.79346">
        <ele>541.8</ele>
        <time>2012-11-01T13:19:51.000Z</time>
      </trkpt>
      <trkpt lat="43.77661" lon="3.79348">
        <ele>541.9</ele>
        <time>2012-11-01T13:19:52.000Z</time>
      </trkpt>
      <trkpt lat="43.77659" lon="3.79353">
        <ele>542.1</ele>
        <time>2012-11-01T13:19:55.000Z</time>
      </trkpt>
      <trkpt lat="43.77659" lon="3.79355">
        <ele>542.2</ele>
        <time>2012-11-01T13:19:56.000Z</time>
      </trkpt>
      <trkpt lat="43.77659" lon="3.79361">
        <ele>542.3</ele>
        <time>2012-11-01T13:20:01.000Z</time>
      </trkpt>
      <trkpt lat="43.77659" lon="3.79361">
        <ele>542.4</ele>
        <time>2012-11-01T13:20:02.000Z</time>
      </trkpt>
      <trkpt lat="43.77663" lon="3.79365">
        <ele>543</ele>
        <time>2012-11-01T13:20:09.000Z</time>
      </trkpt>
      <trkpt lat="43.77663" lon="3.79366">
        <ele>543.1</ele>
        <time>2012-11-01T13:20:10.000Z</time>
      </trkpt>
      <trkpt lat="43.77665" lon="3.79371">
        <ele>543.4</ele>
        <time>2012-11-01T13:20:16.000Z</time>
      </trkpt>
      <trkpt lat="43.77665" lon="3.79372">
        <ele>543.4</ele>
        <time>2012-11-01T13:20:17.000Z</time>
      </trkpt>
      <trkpt lat="43.77666" lon="3.79378">
        <ele>543.9</ele>
        <time>2012-11-01T13:20:30.000Z</time>
      </trkpt>
      <trkpt lat="43.77666" lon="3.79378">
        <ele>543.9</ele>
        <time>2012-11-01T13:20:31.000Z</time>
      </trkpt>
      <trkpt lat="43.77666" lon="3.79384">
        <ele>544.3</ele>
        <time>2012-11-01T13:20:37.000Z</time>
      </trkpt>
      <trkpt lat="43.77666" lon="3.79385">
        <ele>544.3</ele>
        <time>2012-11-01T13:20:38.000Z</time>
      </trkpt>
      <trkpt lat="43.77667" lon="3.79391">
        <ele>544.5</ele>
        <time>2012-11-01T13:20:52.000Z</time>
      </trkpt>
      <trkpt lat="43.77667" lon="3.79392">
        <ele>544.5</ele>
        <time>2012-11-01T13:20:53.000Z</time>
      </trkpt>
      <trkpt lat="43.77667" lon="3.79398">
        <ele>544.7</ele>
        <time>2012-11-01T13:21:03.000Z</time>
      </trkpt>
      <trkpt lat="43.77667" lon="3.79399">
        <ele>544.7</ele>
        <time>2012-11-01T13:21:04.000Z</time>
      </trkpt>
      <trkpt lat="43.77665" lon="3.79405">
        <ele>544.7</ele>
        <time>2012-11-01T13:21:15.000Z</time>
      </trkpt>
      <trkpt lat="43.77665" lon="3.79405">
        <ele>544.7</ele>
        <time>2012-11-01T13:21:16.000Z</time>
      </trkpt>
      <trkpt lat="43.77663" lon="3.7941">
        <ele>543.9</ele>
        <time>2012-11-01T13:21:48.000Z</time>
      </trkpt>
      <trkpt lat="43.77663" lon="3.79411">
        <ele>543.8</ele>
        <time>2012-11-01T13:21:49.000Z</time>
      </trkpt>
      <trkpt lat="43.77662" lon="3.79417">
        <ele>543.5</ele>
        <time>2012-11-01T13:22:00.000Z</time>
      </trkpt>
      <trkpt lat="43.77662" lon="3.79418">
        <ele>543.5</ele>
        <time>2012-11-01T13:22:01.000Z</time>
      </trkpt>
      <trkpt lat="43.77658" lon="3.79421">
        <ele>543.6</ele>
        <time>2012-11-01T13:22:10.000Z</time>
      </trkpt>
      <trkpt lat="43.77658" lon="3.79422">
        <ele>543.6</ele>
        <time>2012-11-01T13:22:11.000Z</time>
      </trkpt>
      <trkpt lat="43.77655" lon="3.79426">
        <ele>543.6</ele>
        <time>2012-11-01T13:22:21.000Z</time>
      </trkpt>
      <trkpt lat="43.77654" lon="3.79426">
        <ele>543.7</ele>
        <time>2012-11-01T13:22:22.000Z</time>
      </trkpt>
      <trkpt lat="43.77651" lon="3.79429">
        <ele>544.2</ele>
        <time>2012-11-01T13:22:28.000Z</time>
      </trkpt>
      <trkpt lat="43.7765" lon="3.7943">
        <ele>544.2</ele>
        <time>2012-11-01T13:22:29.000Z</time>
      </trkpt>
      <trkpt lat="43.77648" lon="3.79434">
        <ele>544.4</ele>
        <time>2012-11-01T13:22:33.000Z</time>
      </trkpt>
      <trkpt lat="43.77647" lon="3.79435">
        <ele>544.4</ele>
        <time>2012-11-01T13:22:34.000Z</time>
      </trkpt>
      <trkpt lat="43.77647" lon="3.7944">
        <ele>544.5</ele>
        <time>2012-11-01T13:22:38.000Z</time>
      </trkpt>
      <trkpt lat="43.77646" lon="3.79441">
        <ele>544.5</ele>
        <time>2012-11-01T13:22:39.000Z</time>
      </trkpt>
      <trkpt lat="43.77645" lon="3.79447">
        <ele>544.4</ele>
        <time>2012-11-01T13:22:43.000Z</time>
      </trkpt>
      <trkpt lat="43.77645" lon="3.79448">
        <ele>544.3</ele>
        <time>2012-11-01T13:22:44.000Z</time>
      </trkpt>
      <trkpt lat="43.77643" lon="3.79453">
        <ele>544.2</ele>
        <time>2012-11-01T13:22:48.000Z</time>
      </trkpt>
      <trkpt lat="43.77643" lon="3.79454">
        <ele>544.2</ele>
        <time>2012-11-01T13:22:49.000Z</time>
      </trkpt>
      <trkpt lat="43.77642" lon="3.79459">
        <ele>544.4</ele>
        <time>2012-11-01T13:22:53.000Z</time>
      </trkpt>
      <trkpt lat="43.77643" lon="3.7946">
        <ele>544.4</ele>
        <time>2012-11-01T13:22:54.000Z</time>
      </trkpt>
      <trkpt lat="43.77644" lon="3.79464">
        <ele>544.5</ele>
        <time>2012-11-01T13:22:58.000Z</time>
      </trkpt>
      <trkpt lat="43.77645" lon="3.79466">
        <ele>544.4</ele>
        <time>2012-11-01T13:22:59.000Z</time>
      </trkpt>
      <trkpt lat="43.77645" lon="3.79472">
        <ele>544.3</ele>
        <time>2012-11-01T13:23:04.000Z</time>
      </trkpt>
      <trkpt lat="43.77645" lon="3.79473">
        <ele>544.3</ele>
        <time>2012-11-01T13:23:05.000Z</time>
      </trkpt>
      <trkpt lat="43.77649" lon="3.79475">
        <ele>544</ele>
        <time>2012-11-01T13:23:17.000Z</time>
      </trkpt>
      <trkpt lat="43.7765" lon="3.79475">
        <ele>544</ele>
        <time>2012-11-01T13:23:18.000Z</time>
      </trkpt>
      <trkpt lat="43.77654" lon="3.79476">
        <ele>543.9</ele>
        <time>2012-11-01T13:23:21.000Z</time>
      </trkpt>
      <trkpt lat="43.77655" lon="3.79476">
        <ele>543.9</ele>
        <time>2012-11-01T13:23:22.000Z</time>
      </trkpt>
      <trkpt lat="43.77659" lon="3.79475">
        <ele>543.5</ele>
        <time>2012-11-01T13:23:30.000Z</time>
      </trkpt>
      <trkpt lat="43.77659" lon="3.79475">
        <ele>543.5</ele>
        <time>2012-11-01T13:23:31.000Z</time>
      </trkpt>
      <trkpt lat="43.77655" lon="3.79477">
        <ele>543.4</ele>
        <time>2012-11-01T13:23:48.000Z</time>
      </trkpt>
      <trkpt lat="43.77655" lon="3.79477">
        <ele>543.4</ele>
        <time>2012-11-01T13:23:49.000Z</time>
      </trkpt>
      <trkpt lat="43.77651" lon="3.79477">
        <ele>543.5</ele>
        <time>2012-11-01T13:24:01.999Z</time>
      </trkpt>
      <trkpt lat="43.7765" lon="3.79476">
        <ele>543.6</ele>
        <time>2012-11-01T13:24:02.999Z</time>
      </trkpt>
      <trkpt lat="43.77647" lon="3.7948">
        <ele>543.7</ele>
        <time>2012-11-01T13:24:11.999Z</time>
      </trkpt>
      <trkpt lat="43.77647" lon="3.79481">
        <ele>543.6</ele>
        <time>2012-11-01T13:24:12.999Z</time>
      </trkpt>
      <trkpt lat="43.77649" lon="3.79486">
        <ele>543</ele>
        <time>2012-11-01T13:24:33.999Z</time>
      </trkpt>
      <trkpt lat="43.77649" lon="3.79487">
        <ele>543</ele>
        <time>2012-11-01T13:24:34.999Z</time>
      </trkpt>
      <trkpt lat="43.77647" lon="3.79492">
        <ele>542.9</ele>
        <time>2012-11-01T13:24:41.999Z</time>
      </trkpt>
      <trkpt lat="43.77647" lon="3.79493">
        <ele>542.8</ele>
        <time>2012-11-01T13:24:42.999Z</time>
      </trkpt>
      <trkpt lat="43.77644" lon="3.79498">
        <ele>542.8</ele>
        <time>2012-11-01T13:24:50.999Z</time>
      </trkpt>
      <trkpt lat="43.77644" lon="3.79499">
        <ele>542.7</ele>
        <time>2012-11-01T13:24:51.999Z</time>
      </trkpt>
      <trkpt lat="43.77643" lon="3.79504">
        <ele>542.5</ele>
        <time>2012-11-01T13:24:56.999Z</time>
      </trkpt>
      <trkpt lat="43.77642" lon="3.79505">
        <ele>542.4</ele>
        <time>2012-11-01T13:24:57.999Z</time>
      </trkpt>
      <trkpt lat="43.7764" lon="3.7951">
        <ele>542.2</ele>
        <time>2012-11-01T13:25:01.999Z</time>
      </trkpt>
      <trkpt lat="43.7764" lon="3.79511">
        <ele>542.1</ele>
        <time>2012-11-01T13:25:02.999Z</time>
      </trkpt>
      <trkpt lat="43.77637" lon="3.79515">
        <ele>542</ele>
        <time>2012-11-01T13:25:07.999Z</time>
      </trkpt>
      <trkpt lat="43.77636" lon="3.79516">
        <ele>542</ele>
        <time>2012-11-01T13:25:08.999Z</time>
      </trkpt>
      <trkpt lat="43.77632" lon="3.7952">
        <ele>542</ele>
        <time>2012-11-01T13:25:13.999Z</time>
      </trkpt>
      <trkpt lat="43.77632" lon="3.79521">
        <ele>542</ele>
        <time>2012-11-01T13:25:14.999Z</time>
      </trkpt>
      <trkpt lat="43.77629" lon="3.79525">
        <ele>541.8</ele>
        <time>2012-11-01T13:25:25.999Z</time>
      </trkpt>
      <trkpt lat="43.77629" lon="3.79526">
        <ele>541.8</ele>
        <time>2012-11-01T13:25:26.999Z</time>
      </trkpt>
      <trkpt lat="43.7763" lon="3.79529">
        <ele>541.7</ele>
        <time>2012-11-01T13:25:29.999Z</time>
      </trkpt>
      <trkpt lat="43.77632" lon="3.79531">
        <ele>541.7</ele>
        <time>2012-11-01T13:25:30.999Z</time>
      </trkpt>
      <trkpt lat="43.77635" lon="3.79536">
        <ele>541.3</ele>
        <time>2012-11-01T13:26:18.999Z</time>
      </trkpt>
      <trkpt lat="43.77635" lon="3.79536">
        <ele>541.3</ele>
        <time>2012-11-01T13:26:19.999Z</time>
      </trkpt>
      <trkpt lat="43.7763" lon="3.79538">
        <ele>540.8</ele>
        <time>2012-11-01T13:26:45.999Z</time>
      </trkpt>
      <trkpt lat="43.7763" lon="3.79538">
        <ele>540.8</ele>
        <time>2012-11-01T13:26:46.999Z</time>
      </trkpt>
      <trkpt lat="43.77631" lon="3.79544">
        <ele>540.3</ele>
        <time>2012-11-01T13:27:06.999Z</time>
      </trkpt>
      <trkpt lat="43.77631" lon="3.79545">
        <ele>540.3</ele>
        <time>2012-11-01T13:27:07.999Z</time>
      </trkpt>
      <trkpt lat="43.7763" lon="3.7955">
        <ele>540.2</ele>
        <time>2012-11-01T13:27:15.999Z</time>
      </trkpt>
      <trkpt lat="43.7763" lon="3.79551">
        <ele>540.2</ele>
        <time>2012-11-01T13:27:16.999Z</time>
      </trkpt>
      <trkpt lat="43.77628" lon="3.79556">
        <ele>539.9</ele>
        <time>2012-11-01T13:27:27.999Z</time>
      </trkpt>
      <trkpt lat="43.77628" lon="3.79556">
        <ele>539.9</ele>
        <time>2012-11-01T13:27:28.999Z</time>
      </trkpt>
      <trkpt lat="43.77626" lon="3.79561">
        <ele>539.9</ele>
        <time>2012-11-01T13:27:38.999Z</time>
      </trkpt>
      <trkpt lat="43.77625" lon="3.79562">
        <ele>539.9</ele>
        <time>2012-11-01T13:27:39.999Z</time>
      </trkpt>
      <trkpt lat="43.77625" lon="3.79568">
        <ele>539.7</ele>
        <time>2012-11-01T13:27:43.999Z</time>
      </trkpt>
      <trkpt lat="43.77625" lon="3.79569">
        <ele>539.6</ele>
        <time>2012-11-01T13:27:44.999Z</time>
      </trkpt>
      <trkpt lat="43.77627" lon="3.79574">
        <ele>538.8</ele>
        <time>2012-11-01T13:27:50.999Z</time>
      </trkpt>
      <trkpt lat="43.77627" lon="3.79575">
        <ele>538.6</ele>
        <time>2012-11-01T13:27:51.999Z</time>
      </trkpt>
      <trkpt lat="43.77626" lon="3.79581">
        <ele>537.9</ele>
        <time>2012-11-01T13:28:01.999Z</time>
      </trkpt>
      <trkpt lat="43.77627" lon="3.79582">
        <ele>537.8</ele>
        <time>2012-11-01T13:28:02.999Z</time>
      </trkpt>
      <trkpt lat="43.7763" lon="3.79586">
        <ele>537.5</ele>
        <time>2012-11-01T13:28:05.999Z</time>
      </trkpt>
      <trkpt lat="43.7763" lon="3.79587">
        <ele>537.4</ele>
        <time>2012-11-01T13:28:06.999Z</time>
      </trkpt>
      <trkpt lat="43.77632" lon="3.79592">
        <ele>536.4</ele>
        <time>2012-11-01T13:28:17.999Z</time>
      </trkpt>
      <trkpt lat="43.77632" lon="3.79593">
        <ele>536.2</ele>
        <time>2012-11-01T13:28:18.999Z</time>
      </trkpt>
      <trkpt lat="43.77633" lon="3.79599">
        <ele>535.2</ele>
        <time>2012-11-01T13:28:24.999Z</time>
      </trkpt>
      <trkpt lat="43.77633" lon="3.796">
        <ele>535</ele>
        <time>2012-11-01T13:28:25.999Z</time>
      </trkpt>
      <trkpt lat="43.7763" lon="3.79602">
        <ele>534.8</ele>
        <time>2012-11-01T13:28:32.999Z</time>
      </trkpt>
      <trkpt lat="43.77629" lon="3.79603">
        <ele>534.7</ele>
        <time>2012-11-01T13:28:33.999Z</time>
      </trkpt>
      <trkpt lat="43.77624" lon="3.79604">
        <ele>534.2</ele>
        <time>2012-11-01T13:28:39.999Z</time>
      </trkpt>
      <trkpt lat="43.77624" lon="3.79605">
        <ele>534.2</ele>
        <time>2012-11-01T13:28:40.999Z</time>
      </trkpt>
      <trkpt lat="43.77622" lon="3.7961">
        <ele>533.3</ele>
        <time>2012-11-01T13:28:48.999Z</time>
      </trkpt>
      <trkpt lat="43.77622" lon="3.79611">
        <ele>533.2</ele>
        <time>2012-11-01T13:28:49.999Z</time>
      </trkpt>
      <trkpt lat="43.77623" lon="3.79616">
        <ele>532.9</ele>
        <time>2012-11-01T13:28:56.999Z</time>
      </trkpt>
      <trkpt lat="43.77623" lon="3.79617">
        <ele>532.8</ele>
        <time>2012-11-01T13:28:57.999Z</time>
      </trkpt>
      <trkpt lat="43.77626" lon="3.79621">
        <ele>532.5</ele>
        <time>2012-11-01T13:29:02.999Z</time>
      </trkpt>
      <trkpt lat="43.77627" lon="3.79622">
        <ele>532.5</ele>
        <time>2012-11-01T13:29:03.999Z</time>
      </trkpt>
      <trkpt lat="43.77629" lon="3.79625">
        <ele>531.7</ele>
        <time>2012-11-01T13:29:46.999Z</time>
      </trkpt>
      <trkpt lat="43.77629" lon="3.79627">
        <ele>531.5</ele>
        <time>2012-11-01T13:29:47.999Z</time>
      </trkpt>
      <trkpt lat="43.7763" lon="3.79632">
        <ele>531.3</ele>
        <time>2012-11-01T13:29:49.999Z</time>
      </trkpt>
      <trkpt lat="43.7763" lon="3.79635">
        <ele>531.2</ele>
        <time>2012-11-01T13:29:50.999Z</time>
      </trkpt>
      <trkpt lat="43.77629" lon="3.79641">
        <ele>530.7</ele>
        <time>2012-11-01T13:29:55.999Z</time>
      </trkpt>
      <trkpt lat="43.77628" lon="3.79642">
        <ele>530.6</ele>
        <time>2012-11-01T13:29:56.999Z</time>
      </trkpt>
      <trkpt lat="43.77627" lon="3.79648">
        <ele>530.4</ele>
        <time>2012-11-01T13:30:04.999Z</time>
      </trkpt>
      <trkpt lat="43.77627" lon="3.79648">
        <ele>530.5</ele>
        <time>2012-11-01T13:30:05.999Z</time>
      </trkpt>
      <trkpt lat="43.77627" lon="3.79655">
        <ele>530.8</ele>
        <time>2012-11-01T13:30:10.999Z</time>
      </trkpt>
      <trkpt lat="43.77626" lon="3.79655">
        <ele>530.8</ele>
        <time>2012-11-01T13:30:11.999Z</time>
      </trkpt>
      <trkpt lat="43.77626" lon="3.79661">
        <ele>530.8</ele>
        <time>2012-11-01T13:30:20.999Z</time>
      </trkpt>
      <trkpt lat="43.77625" lon="3.79662">
        <ele>530.8</ele>
        <time>2012-11-01T13:30:21.999Z</time>
      </trkpt>
      <trkpt lat="43.77624" lon="3.79667">
        <ele>531.1</ele>
        <time>2012-11-01T13:30:27.999Z</time>
      </trkpt>
      <trkpt lat="43.77624" lon="3.79668">
        <ele>531.2</ele>
        <time>2012-11-01T13:30:28.999Z</time>
      </trkpt>
      <trkpt lat="43.77623" lon="3.79674">
        <ele>531.1</ele>
        <time>2012-11-01T13:30:33.999Z</time>
      </trkpt>
      <trkpt lat="43.77623" lon="3.79674">
        <ele>531.1</ele>
        <time>2012-11-01T13:30:34.999Z</time>
      </trkpt>
      <trkpt lat="43.77624" lon="3.7968">
        <ele>531.1</ele>
        <time>2012-11-01T13:30:40.999Z</time>
      </trkpt>
      <trkpt lat="43.77624" lon="3.79681">
        <ele>531.1</ele>
        <time>2012-11-01T13:30:41.999Z</time>
      </trkpt>
      <trkpt lat="43.77627" lon="3.79684">
        <ele>531.8</ele>
        <time>2012-11-01T13:30:52.999Z</time>
      </trkpt>
      <trkpt lat="43.77628" lon="3.79685">
        <ele>531.9</ele>
        <time>2012-11-01T13:30:53.999Z</time>
      </trkpt>
      <trkpt lat="43.7763" lon="3.79689">
        <ele>531.8</ele>
        <time>2012-11-01T13:31:00.999Z</time>
      </trkpt>
      <trkpt lat="43.7763" lon="3.7969">
        <ele>531.8</ele>
        <time>2012-11-01T13:31:01.999Z</time>
      </trkpt>
      <trkpt lat="43.77631" lon="3.79696">
        <ele>531.8</ele>
        <time>2012-11-01T13:31:05.999Z</time>
      </trkpt>
      <trkpt lat="43.77631" lon="3.79698">
        <ele>531.8</ele>
        <time>2012-11-01T13:31:06.999Z</time>
      </trkpt>
      <trkpt lat="43.77633" lon="3.79703">
        <ele>532</ele>
        <time>2012-11-01T13:31:09.999Z</time>
      </trkpt>
      <trkpt lat="43.77634" lon="3.79703">
        <ele>532</ele>
        <time>2012-11-01T13:31:10.999Z</time>
      </trkpt>
      <trkpt lat="43.77638" lon="3.79705">
        <ele>532.2</ele>
        <time>2012-11-01T13:31:16.999Z</time>
      </trkpt>
      <trkpt lat="43.77638" lon="3.79705">
        <ele>532.3</ele>
        <time>2012-11-01T13:31:17.999Z</time>
      </trkpt>
      <trkpt lat="43.7764" lon="3.7971">
        <ele>532.4</ele>
        <time>2012-11-01T13:31:22.999Z</time>
      </trkpt>
      <trkpt lat="43.77641" lon="3.79711">
        <ele>532.5</ele>
        <time>2012-11-01T13:31:23.999Z</time>
      </trkpt>
      <trkpt lat="43.77645" lon="3.79713">
        <ele>532.5</ele>
        <time>2012-11-01T13:31:28.999Z</time>
      </trkpt>
      <trkpt lat="43.77646" lon="3.79714">
        <ele>532.5</ele>
        <time>2012-11-01T13:31:29.999Z</time>
      </trkpt>
      <trkpt lat="43.77648" lon="3.79717">
        <ele>532.8</ele>
        <time>2012-11-01T13:31:34.999Z</time>
      </trkpt>
      <trkpt lat="43.77649" lon="3.79719">
        <ele>532.9</ele>
        <time>2012-11-01T13:31:35.999Z</time>
      </trkpt>
      <trkpt lat="43.77651" lon="3.79725">
        <ele>533.2</ele>
        <time>2012-11-01T13:31:39.999Z</time>
      </trkpt>
      <trkpt lat="43.77651" lon="3.79726">
        <ele>533.3</ele>
        <time>2012-11-01T13:31:40.999Z</time>
      </trkpt>
      <trkpt lat="43.77651" lon="3.79732">
        <ele>533.8</ele>
        <time>2012-11-01T13:31:44.999Z</time>
      </trkpt>
      <trkpt lat="43.77652" lon="3.79734">
        <ele>533.9</ele>
        <time>2012-11-01T13:31:45.999Z</time>
      </trkpt>
      <trkpt lat="43.77653" lon="3.7974">
        <ele>534.3</ele>
        <time>2012-11-01T13:31:49.999Z</time>
      </trkpt>
      <trkpt lat="43.77653" lon="3.79741">
        <ele>534.4</ele>
        <time>2012-11-01T13:31:50.999Z</time>
      </trkpt>
      <trkpt lat="43.77654" lon="3.79746">
        <ele>534.5</ele>
        <time>2012-11-01T13:31:52.999Z</time>
      </trkpt>
      <trkpt lat="43.77654" lon="3.79747">
        <ele>534.5</ele>
        <time>2012-11-01T13:31:53.999Z</time>
      </trkpt>
      <trkpt lat="43.77655" lon="3.79752">
        <ele>534.7</ele>
        <time>2012-11-01T13:31:59.999Z</time>
      </trkpt>
      <trkpt lat="43.77655" lon="3.79753">
        <ele>534.8</ele>
        <time>2012-11-01T13:32:00.999Z</time>
      </trkpt>
      <trkpt lat="43.77651" lon="3.79754">
        <ele>535</ele>
        <time>2012-11-01T13:32:24.999Z</time>
      </trkpt>
      <trkpt lat="43.7765" lon="3.79754">
        <ele>535.1</ele>
        <time>2012-11-01T13:32:25.999Z</time>
      </trkpt>
      <trkpt lat="43.77649" lon="3.79759">
        <ele>535.6</ele>
        <time>2012-11-01T13:32:29.999Z</time>
      </trkpt>
      <trkpt lat="43.77648" lon="3.79761">
        <ele>535.6</ele>
        <time>2012-11-01T13:32:30.999Z</time>
      </trkpt>
      <trkpt lat="43.77647" lon="3.79766">
        <ele>535.6</ele>
        <time>2012-11-01T13:32:34.999Z</time>
      </trkpt>
      <trkpt lat="43.77647" lon="3.79767">
        <ele>535.7</ele>
        <time>2012-11-01T13:32:35.999Z</time>
      </trkpt>
      <trkpt lat="43.77645" lon="3.79772">
        <ele>536.1</ele>
        <time>2012-11-01T13:32:40.999Z</time>
      </trkpt>
      <trkpt lat="43.77644" lon="3.79773">
        <ele>536.1</ele>
        <time>2012-11-01T13:32:41.999Z</time>
      </trkpt>
      <trkpt lat="43.77641" lon="3.79776">
        <ele>536.3</ele>
        <time>2012-11-01T13:32:53.999Z</time>
      </trkpt>
      <trkpt lat="43.77641" lon="3.79777">
        <ele>536.3</ele>
        <time>2012-11-01T13:32:54.999Z</time>
      </trkpt>
      <trkpt lat="43.77643" lon="3.79782">
        <ele>535.6</ele>
        <time>2012-11-01T13:33:01.999Z</time>
      </trkpt>
      <trkpt lat="43.77643" lon="3.79783">
        <ele>535.6</ele>
        <time>2012-11-01T13:33:02.999Z</time>
      </trkpt>
      <trkpt lat="43.77647" lon="3.79786">
        <ele>535.3</ele>
        <time>2012-11-01T13:33:07.999Z</time>
      </trkpt>
      <trkpt lat="43.77647" lon="3.79787">
        <ele>535.3</ele>
        <time>2012-11-01T13:33:08.999Z</time>
      </trkpt>
      <trkpt lat="43.7765" lon="3.79791">
        <ele>535.2</ele>
        <time>2012-11-01T13:33:14.999Z</time>
      </trkpt>
      <trkpt lat="43.77651" lon="3.79792">
        <ele>535.3</ele>
        <time>2012-11-01T13:33:15.999Z</time>
      </trkpt>
      <trkpt lat="43.77653" lon="3.79795">
        <ele>535.5</ele>
        <time>2012-11-01T13:33:19.999Z</time>
      </trkpt>
      <trkpt lat="43.77654" lon="3.79796">
        <ele>535.6</ele>
        <time>2012-11-01T13:33:20.999Z</time>
      </trkpt>
      <trkpt lat="43.77655" lon="3.79802">
        <ele>536</ele>
        <time>2012-11-01T13:33:23.999Z</time>
      </trkpt>
      <trkpt lat="43.77656" lon="3.79803">
        <ele>536.1</ele>
        <time>2012-11-01T13:33:24.999Z</time>
      </trkpt>
      <trkpt lat="43.77656" lon="3.79808">
        <ele>536.4</ele>
        <time>2012-11-01T13:33:28.999Z</time>
      </trkpt>
      <trkpt lat="43.77656" lon="3.7981">
        <ele>536.6</ele>
        <time>2012-11-01T13:33:29.999Z</time>
      </trkpt>
      <trkpt lat="43.77656" lon="3.79816">
        <ele>536.8</ele>
        <time>2012-11-01T13:33:33.999Z</time>
      </trkpt>
      <trkpt lat="43.77656" lon="3.79817">
        <ele>537</ele>
        <time>2012-11-01T13:33:34.999Z</time>
      </trkpt>
      <trkpt lat="43.77658" lon="3.79822">
        <ele>537.1</ele>
        <time>2012-11-01T13:33:41.999Z</time>
      </trkpt>
      <trkpt lat="43.77659" lon="3.79822">
        <ele>537</ele>
        <time>2012-11-01T13:33:42.999Z</time>
      </trkpt>
      <trkpt lat="43.77663" lon="3.79823">
        <ele>537.1</ele>
        <time>2012-11-01T13:33:47.999Z</time>
      </trkpt>
      <trkpt lat="43.77664" lon="3.79823">
        <ele>537.1</ele>
        <time>2012-11-01T13:33:48.999Z</time>
      </trkpt>
      <trkpt lat="43.77668" lon="3.79824">
        <ele>537.9</ele>
        <time>2012-11-01T13:33:56.999Z</time>
      </trkpt>
      <trkpt lat="43.77668" lon="3.79825">
        <ele>537.9</ele>
        <time>2012-11-01T13:33:57.999Z</time>
      </trkpt>
      <trkpt lat="43.77672" lon="3.79822">
        <ele>538.5</ele>
        <time>2012-11-01T13:34:02.999Z</time>
      </trkpt>
      <trkpt lat="43.77673" lon="3.79822">
        <ele>538.6</ele>
        <time>2012-11-01T13:34:03.999Z</time>
      </trkpt>
      <trkpt lat="43.77677" lon="3.79823">
        <ele>539.1</ele>
        <time>2012-11-01T13:34:10.999Z</time>
      </trkpt>
      <trkpt lat="43.77678" lon="3.79823">
        <ele>539.1</ele>
        <time>2012-11-01T13:34:11.999Z</time>
      </trkpt>
      <trkpt lat="43.77682" lon="3.79823">
        <ele>539.8</ele>
        <time>2012-11-01T13:34:19.999Z</time>
      </trkpt>
      <trkpt lat="43.77682" lon="3.79823">
        <ele>539.8</ele>
        <time>2012-11-01T13:34:20.999Z</time>
      </trkpt>
      <trkpt lat="43.77686" lon="3.79823">
        <ele>540.6</ele>
        <time>2012-11-01T13:34:26.999Z</time>
      </trkpt>
      <trkpt lat="43.77687" lon="3.79823">
        <ele>540.6</ele>
        <time>2012-11-01T13:34:27.999Z</time>
      </trkpt>
      <trkpt lat="43.7769" lon="3.79826">
        <ele>541</ele>
        <time>2012-11-01T13:34:34.999Z</time>
      </trkpt>
      <trkpt lat="43.7769" lon="3.79827">
        <ele>541</ele>
        <time>2012-11-01T13:34:35.999Z</time>
      </trkpt>
      <trkpt lat="43.77694" lon="3.79829">
        <ele>542.1</ele>
        <time>2012-11-01T13:34:43.999Z</time>
      </trkpt>
      <trkpt lat="43.77694" lon="3.79829">
        <ele>542.2</ele>
        <time>2012-11-01T13:34:44.999Z</time>
      </trkpt>
      <trkpt lat="43.77699" lon="3.79827">
        <ele>542.8</ele>
        <time>2012-11-01T13:34:50.999Z</time>
      </trkpt>
      <trkpt lat="43.777" lon="3.79827">
        <ele>542.9</ele>
        <time>2012-11-01T13:34:51.999Z</time>
      </trkpt>
      <trkpt lat="43.77704" lon="3.79827">
        <ele>543.3</ele>
        <time>2012-11-01T13:34:54.999Z</time>
      </trkpt>
      <trkpt lat="43.77705" lon="3.79827">
        <ele>543.5</ele>
        <time>2012-11-01T13:34:55.999Z</time>
      </trkpt>
      <trkpt lat="43.77709" lon="3.79826">
        <ele>544.5</ele>
        <time>2012-11-01T13:35:05.999Z</time>
      </trkpt>
      <trkpt lat="43.77709" lon="3.79825">
        <ele>544.7</ele>
        <time>2012-11-01T13:35:06.999Z</time>
      </trkpt>
      <trkpt lat="43.77713" lon="3.79822">
        <ele>546.6</ele>
        <time>2012-11-01T13:35:20.999Z</time>
      </trkpt>
      <trkpt lat="43.77714" lon="3.79822">
        <ele>546.8</ele>
        <time>2012-11-01T13:35:21.999Z</time>
      </trkpt>
      <trkpt lat="43.77718" lon="3.79824">
        <ele>547.6</ele>
        <time>2012-11-01T13:35:33.999Z</time>
      </trkpt>
      <trkpt lat="43.77718" lon="3.79825">
        <ele>547.7</ele>
        <time>2012-11-01T13:35:34.999Z</time>
      </trkpt>
      <trkpt lat="43.77718" lon="3.7983">
        <ele>549.5</ele>
        <time>2012-11-01T13:35:42.999Z</time>
      </trkpt>
      <trkpt lat="43.77718" lon="3.79831">
        <ele>549.8</ele>
        <time>2012-11-01T13:35:43.999Z</time>
      </trkpt>
      <trkpt lat="43.77716" lon="3.79836">
        <ele>551.1</ele>
        <time>2012-11-01T13:35:48.999Z</time>
      </trkpt>
      <trkpt lat="43.77715" lon="3.79837">
        <ele>551.2</ele>
        <time>2012-11-01T13:35:49.999Z</time>
      </trkpt>
      <trkpt lat="43.77714" lon="3.79843">
        <ele>552.3</ele>
        <time>2012-11-01T13:35:58.999Z</time>
      </trkpt>
      <trkpt lat="43.77715" lon="3.79843">
        <ele>552.5</ele>
        <time>2012-11-01T13:35:59.999Z</time>
      </trkpt>
      <trkpt lat="43.77715" lon="3.79848">
        <ele>554.2</ele>
        <time>2012-11-01T13:36:07.999Z</time>
      </trkpt>
      <trkpt lat="43.77715" lon="3.79849">
        <ele>554.5</ele>
        <time>2012-11-01T13:36:08.999Z</time>
      </trkpt>
      <trkpt lat="43.77713" lon="3.79854">
        <ele>555.5</ele>
        <time>2012-11-01T13:36:13.999Z</time>
      </trkpt>
      <trkpt lat="43.77713" lon="3.79855">
        <ele>555.7</ele>
        <time>2012-11-01T13:36:14.999Z</time>
      </trkpt>
      <trkpt lat="43.77714" lon="3.7986">
        <ele>556.8</ele>
        <time>2012-11-01T13:36:22.999Z</time>
      </trkpt>
      <trkpt lat="43.77714" lon="3.79862">
        <ele>556.8</ele>
        <time>2012-11-01T13:36:23.999Z</time>
      </trkpt>
      <trkpt lat="43.7771" lon="3.79862">
        <ele>557.3</ele>
        <time>2012-11-01T13:36:27.999Z</time>
      </trkpt>
      <trkpt lat="43.77709" lon="3.79862">
        <ele>557.4</ele>
        <time>2012-11-01T13:36:28.999Z</time>
      </trkpt>
      <trkpt lat="43.77706" lon="3.79866">
        <ele>558.5</ele>
        <time>2012-11-01T13:36:34.999Z</time>
      </trkpt>
      <trkpt lat="43.77705" lon="3.79867">
        <ele>558.8</ele>
        <time>2012-11-01T13:36:35.999Z</time>
      </trkpt>
      <trkpt lat="43.77703" lon="3.79871">
        <ele>559.6</ele>
        <time>2012-11-01T13:36:41.999Z</time>
      </trkpt>
      <trkpt lat="43.77702" lon="3.79872">
        <ele>559.6</ele>
        <time>2012-11-01T13:36:42.999Z</time>
      </trkpt>
      <trkpt lat="43.777" lon="3.79877">
        <ele>560.9</ele>
        <time>2012-11-01T13:37:18.999Z</time>
      </trkpt>
      <trkpt lat="43.777" lon="3.79877">
        <ele>560.9</ele>
        <time>2012-11-01T13:37:19.999Z</time>
      </trkpt>
      <trkpt lat="43.77702" lon="3.79882">
        <ele>562.5</ele>
        <time>2012-11-01T13:37:55.999Z</time>
      </trkpt>
      <trkpt lat="43.77702" lon="3.79883">
        <ele>562.6</ele>
        <time>2012-11-01T13:37:56.999Z</time>
      </trkpt>
      <trkpt lat="43.77705" lon="3.79886">
        <ele>562.3</ele>
        <time>2012-11-01T13:38:04.999Z</time>
      </trkpt>
      <trkpt lat="43.77706" lon="3.79886">
        <ele>562.3</ele>
        <time>2012-11-01T13:38:05.999Z</time>
      </trkpt>
      <trkpt lat="43.77708" lon="3.79891">
        <ele>562.3</ele>
        <time>2012-11-01T13:38:11.999Z</time>
      </trkpt>
      <trkpt lat="43.77708" lon="3.79892">
        <ele>562.3</ele>
        <time>2012-11-01T13:38:12.999Z</time>
      </trkpt>
      <trkpt lat="43.77709" lon="3.79897">
        <ele>562.5</ele>
        <time>2012-11-01T13:38:17.999Z</time>
      </trkpt>
      <trkpt lat="43.7771" lon="3.79899">
        <ele>562.5</ele>
        <time>2012-11-01T13:38:18.999Z</time>
      </trkpt>
      <trkpt lat="43.77711" lon="3.79904">
        <ele>563.2</ele>
        <time>2012-11-01T13:38:22.999Z</time>
      </trkpt>
      <trkpt lat="43.77711" lon="3.79906">
        <ele>563.4</ele>
        <time>2012-11-01T13:38:23.999Z</time>
      </trkpt>
      <trkpt lat="43.77713" lon="3.79911">
        <ele>564.1</ele>
        <time>2012-11-01T13:38:27.999Z</time>
      </trkpt>
      <trkpt lat="43.77713" lon="3.79912">
        <ele>564.2</ele>
        <time>2012-11-01T13:38:28.999Z</time>
      </trkpt>
      <trkpt lat="43.77717" lon="3.79914">
        <ele>564.6</ele>
        <time>2012-11-01T13:38:33.999Z</time>
      </trkpt>
      <trkpt lat="43.77718" lon="3.79914">
        <ele>564.7</ele>
        <time>2012-11-01T13:38:34.999Z</time>
      </trkpt>
      <trkpt lat="43.77722" lon="3.79915">
        <ele>565.2</ele>
        <time>2012-11-01T13:38:40.999Z</time>
      </trkpt>
      <trkpt lat="43.77722" lon="3.79915">
        <ele>565.3</ele>
        <time>2012-11-01T13:38:41.999Z</time>
      </trkpt>
      <trkpt lat="43.77726" lon="3.79912">
        <ele>566</ele>
        <time>2012-11-01T13:38:51.999Z</time>
      </trkpt>
      <trkpt lat="43.77728" lon="3.79911">
        <ele>566.1</ele>
        <time>2012-11-01T13:38:52.999Z</time>
      </trkpt>
      <trkpt lat="43.77731" lon="3.7991">
        <ele>566.4</ele>
        <time>2012-11-01T13:38:55.999Z</time>
      </trkpt>
      <trkpt lat="43.77732" lon="3.79909">
        <ele>566.5</ele>
        <time>2012-11-01T13:38:56.999Z</time>
      </trkpt>
      <trkpt lat="43.77735" lon="3.79914">
        <ele>566.6</ele>
        <time>2012-11-01T13:39:08.999Z</time>
      </trkpt>
      <trkpt lat="43.77735" lon="3.79914">
        <ele>566.6</ele>
        <time>2012-11-01T13:39:09.999Z</time>
      </trkpt>
      <trkpt lat="43.77737" lon="3.79919">
        <ele>567.2</ele>
        <time>2012-11-01T13:39:15.999Z</time>
      </trkpt>
      <trkpt lat="43.77737" lon="3.7992">
        <ele>567.3</ele>
        <time>2012-11-01T13:39:16.999Z</time>
      </trkpt>
      <trkpt lat="43.77739" lon="3.79926">
        <ele>568</ele>
        <time>2012-11-01T13:39:25.999Z</time>
      </trkpt>
      <trkpt lat="43.77739" lon="3.79927">
        <ele>568.1</ele>
        <time>2012-11-01T13:39:26.999Z</time>
      </trkpt>
      <trkpt lat="43.77742" lon="3.79931">
        <ele>568.3</ele>
        <time>2012-11-01T13:39:33.999Z</time>
      </trkpt>
      <trkpt lat="43.77743" lon="3.79931">
        <ele>568.4</ele>
        <time>2012-11-01T13:39:34.999Z</time>
      </trkpt>
      <trkpt lat="43.77747" lon="3.79932">
        <ele>568.8</ele>
        <time>2012-11-01T13:39:43.999Z</time>
      </trkpt>
      <trkpt lat="43.77747" lon="3.79931">
        <ele>569</ele>
        <time>2012-11-01T13:39:44.999Z</time>
      </trkpt>
      <trkpt lat="43.77751" lon="3.79928">
        <ele>570.2</ele>
        <time>2012-11-01T13:39:54.999Z</time>
      </trkpt>
      <trkpt lat="43.77751" lon="3.79928">
        <ele>570.2</ele>
        <time>2012-11-01T13:39:55.999Z</time>
      </trkpt>
      <trkpt lat="43.77755" lon="3.79928">
        <ele>570.2</ele>
        <time>2012-11-01T13:40:00.999Z</time>
      </trkpt>
      <trkpt lat="43.77756" lon="3.79929">
        <ele>570.2</ele>
        <time>2012-11-01T13:40:01.999Z</time>
      </trkpt>
      <trkpt lat="43.77758" lon="3.79934">
        <ele>570.2</ele>
        <time>2012-11-01T13:40:09.999Z</time>
      </trkpt>
      <trkpt lat="43.77758" lon="3.79934">
        <ele>570.1</ele>
        <time>2012-11-01T13:40:10.999Z</time>
      </trkpt>
      <trkpt lat="43.77756" lon="3.7994">
        <ele>570.5</ele>
        <time>2012-11-01T13:40:17.999Z</time>
      </trkpt>
      <trkpt lat="43.77755" lon="3.7994">
        <ele>570.6</ele>
        <time>2012-11-01T13:40:18.999Z</time>
      </trkpt>
      <trkpt lat="43.77755" lon="3.79945">
        <ele>571.2</ele>
        <time>2012-11-01T13:40:24.999Z</time>
      </trkpt>
      <trkpt lat="43.77754" lon="3.79947">
        <ele>571.3</ele>
        <time>2012-11-01T13:40:25.999Z</time>
      </trkpt>
      <trkpt lat="43.77754" lon="3.79953">
        <ele>571.6</ele>
        <time>2012-11-01T13:40:29.999Z</time>
      </trkpt>
      <trkpt lat="43.77753" lon="3.79954">
        <ele>571.8</ele>
        <time>2012-11-01T13:40:30.999Z</time>
      </trkpt>
      <trkpt lat="43.77753" lon="3.79959">
        <ele>572.3</ele>
        <time>2012-11-01T13:40:33.999Z</time>
      </trkpt>
      <trkpt lat="43.77754" lon="3.79961">
        <ele>572.5</ele>
        <time>2012-11-01T13:40:34.999Z</time>
      </trkpt>
      <trkpt lat="43.77757" lon="3.79964">
        <ele>573.7</ele>
        <time>2012-11-01T13:40:41.999Z</time>
      </trkpt>
      <trkpt lat="43.77758" lon="3.79964">
        <ele>573.9</ele>
        <time>2012-11-01T13:40:42.999Z</time>
      </trkpt>
      <trkpt lat="43.77759" lon="3.79969">
        <ele>574.4</ele>
        <time>2012-11-01T13:40:50.999Z</time>
      </trkpt>
      <trkpt lat="43.7776" lon="3.7997">
        <ele>574.6</ele>
        <time>2012-11-01T13:40:51.999Z</time>
      </trkpt>
      <trkpt lat="43.77763" lon="3.79974">
        <ele>575</ele>
        <time>2012-11-01T13:40:57.999Z</time>
      </trkpt>
      <trkpt lat="43.77763" lon="3.79975">
        <ele>575.1</ele>
        <time>2012-11-01T13:40:58.999Z</time>
      </trkpt>
      <trkpt lat="43.77765" lon="3.7998">
        <ele>575.5</ele>
        <time>2012-11-01T13:41:05.999Z</time>
      </trkpt>
      <trkpt lat="43.77766" lon="3.79981">
        <ele>575.5</ele>
        <time>2012-11-01T13:41:06.999Z</time>
      </trkpt>
      <trkpt lat="43.77767" lon="3.79987">
        <ele>575.5</ele>
        <time>2012-11-01T13:41:13.999Z</time>
      </trkpt>
      <trkpt lat="43.77767" lon="3.79988">
        <ele>575.5</ele>
        <time>2012-11-01T13:41:14.999Z</time>
      </trkpt>
      <trkpt lat="43.77767" lon="3.79994">
        <ele>576.1</ele>
        <time>2012-11-01T13:41:37.999Z</time>
      </trkpt>
      <trkpt lat="43.77767" lon="3.79995">
        <ele>576.1</ele>
        <time>2012-11-01T13:41:39.999Z</time>
      </trkpt>
      <trkpt lat="43.77768" lon="3.8">
        <ele>576.5</ele>
        <time>2012-11-01T13:41:47.999Z</time>
      </trkpt>
      <trkpt lat="43.77768" lon="3.80001">
        <ele>576.5</ele>
        <time>2012-11-01T13:41:48.999Z</time>
      </trkpt>
      <trkpt lat="43.77768" lon="3.80007">
        <ele>576.8</ele>
        <time>2012-11-01T13:41:53.999Z</time>
      </trkpt>
      <trkpt lat="43.77768" lon="3.80008">
        <ele>576.8</ele>
        <time>2012-11-01T13:41:54.999Z</time>
      </trkpt>
      <trkpt lat="43.77767" lon="3.80014">
        <ele>577.6</ele>
        <time>2012-11-01T13:42:02.999Z</time>
      </trkpt>
      <trkpt lat="43.77767" lon="3.80014">
        <ele>577.7</ele>
        <time>2012-11-01T13:42:03.999Z</time>
      </trkpt>
      <trkpt lat="43.77764" lon="3.80019">
        <ele>578.9</ele>
        <time>2012-11-01T13:42:19.999Z</time>
      </trkpt>
      <trkpt lat="43.77764" lon="3.80019">
        <ele>578.9</ele>
        <time>2012-11-01T13:42:20.999Z</time>
      </trkpt>
      <trkpt lat="43.77763" lon="3.80025">
        <ele>580.1</ele>
        <time>2012-11-01T13:42:35.999Z</time>
      </trkpt>
      <trkpt lat="43.77763" lon="3.80025">
        <ele>580.4</ele>
        <time>2012-11-01T13:42:36.999Z</time>
      </trkpt>
      <trkpt lat="43.77761" lon="3.80031">
        <ele>581.6</ele>
        <time>2012-11-01T13:42:44.999Z</time>
      </trkpt>
      <trkpt lat="43.7776" lon="3.80031">
        <ele>581.8</ele>
        <time>2012-11-01T13:42:45.999Z</time>
      </trkpt>
      <trkpt lat="43.77759" lon="3.80036">
        <ele>582.6</ele>
        <time>2012-11-01T13:42:50.999Z</time>
      </trkpt>
      <trkpt lat="43.77759" lon="3.80037">
        <ele>582.7</ele>
        <time>2012-11-01T13:42:51.999Z</time>
      </trkpt>
      <trkpt lat="43.77758" lon="3.80043">
        <ele>583.5</ele>
        <time>2012-11-01T13:42:58.999Z</time>
      </trkpt>
      <trkpt lat="43.77758" lon="3.80043">
        <ele>583.5</ele>
        <time>2012-11-01T13:42:59.999Z</time>
      </trkpt>
      <trkpt lat="43.77758" lon="3.80049">
        <ele>584.6</ele>
        <time>2012-11-01T13:43:11.999Z</time>
      </trkpt>
      <trkpt lat="43.77757" lon="3.8005">
        <ele>584.7</ele>
        <time>2012-11-01T13:43:12.999Z</time>
      </trkpt>
      <trkpt lat="43.77755" lon="3.80054">
        <ele>585.5</ele>
        <time>2012-11-01T13:43:24.999Z</time>
      </trkpt>
      <trkpt lat="43.77755" lon="3.80055">
        <ele>585.5</ele>
        <time>2012-11-01T13:43:25.999Z</time>
      </trkpt>
      <trkpt lat="43.77754" lon="3.8006">
        <ele>586</ele>
        <time>2012-11-01T13:43:32.999Z</time>
      </trkpt>
      <trkpt lat="43.77754" lon="3.80061">
        <ele>586.1</ele>
        <time>2012-11-01T13:43:33.999Z</time>
      </trkpt>
      <trkpt lat="43.77754" lon="3.80067">
        <ele>587.3</ele>
        <time>2012-11-01T13:43:39.999Z</time>
      </trkpt>
      <trkpt lat="43.77754" lon="3.80068">
        <ele>587.4</ele>
        <time>2012-11-01T13:43:40.999Z</time>
      </trkpt>
      <trkpt lat="43.7775" lon="3.80071">
        <ele>593.7</ele>
        <time>2012-11-01T13:45:05.000Z</time>
      </trkpt>
      <trkpt lat="43.7775" lon="3.80071">
        <ele>593.8</ele>
        <time>2012-11-01T13:45:06.000Z</time>
      </trkpt>
      <trkpt lat="43.77746" lon="3.80072">
        <ele>593.8</ele>
        <time>2012-11-01T13:45:16.000Z</time>
      </trkpt>
      <trkpt lat="43.77745" lon="3.80072">
        <ele>593.8</ele>
        <time>2012-11-01T13:45:17.000Z</time>
      </trkpt>
      <trkpt lat="43.77742" lon="3.80076">
        <ele>593.8</ele>
        <time>2012-11-01T13:45:26.000Z</time>
      </trkpt>
      <trkpt lat="43.77742" lon="3.80076">
        <ele>593.8</ele>
        <time>2012-11-01T13:45:27.000Z</time>
      </trkpt>
      <trkpt lat="43.77738" lon="3.80079">
        <ele>594.1</ele>
        <time>2012-11-01T13:45:35.000Z</time>
      </trkpt>
      <trkpt lat="43.77737" lon="3.80079">
        <ele>594.1</ele>
        <time>2012-11-01T13:45:36.000Z</time>
      </trkpt>
      <trkpt lat="43.77733" lon="3.80079">
        <ele>594.5</ele>
        <time>2012-11-01T13:45:46.000Z</time>
      </trkpt>
      <trkpt lat="43.77733" lon="3.80079">
        <ele>594.6</ele>
        <time>2012-11-01T13:45:47.000Z</time>
      </trkpt>
      <trkpt lat="43.77729" lon="3.80081">
        <ele>595.5</ele>
        <time>2012-11-01T13:46:28.000Z</time>
      </trkpt>
      <trkpt lat="43.77729" lon="3.80082">
        <ele>595.5</ele>
        <time>2012-11-01T13:46:29.000Z</time>
      </trkpt>
      <trkpt lat="43.77728" lon="3.80088">
        <ele>595.4</ele>
        <time>2012-11-01T13:46:42.000Z</time>
      </trkpt>
      <trkpt lat="43.77728" lon="3.80088">
        <ele>595.4</ele>
        <time>2012-11-01T13:46:43.000Z</time>
      </trkpt>
      <trkpt lat="43.77727" lon="3.80093">
        <ele>595.7</ele>
        <time>2012-11-01T13:46:54.000Z</time>
      </trkpt>
      <trkpt lat="43.77726" lon="3.80094">
        <ele>595.8</ele>
        <time>2012-11-01T13:46:55.000Z</time>
      </trkpt>
      <trkpt lat="43.77725" lon="3.80099">
        <ele>596.1</ele>
        <time>2012-11-01T13:47:01.000Z</time>
      </trkpt>
      <trkpt lat="43.77725" lon="3.801">
        <ele>596.1</ele>
        <time>2012-11-01T13:47:02.000Z</time>
      </trkpt>
      <trkpt lat="43.77725" lon="3.80106">
        <ele>596.2</ele>
        <time>2012-11-01T13:47:08.000Z</time>
      </trkpt>
      <trkpt lat="43.77725" lon="3.80107">
        <ele>596.3</ele>
        <time>2012-11-01T13:47:09.000Z</time>
      </trkpt>
      <trkpt lat="43.77727" lon="3.80112">
        <ele>597.2</ele>
        <time>2012-11-01T13:47:18.000Z</time>
      </trkpt>
      <trkpt lat="43.77727" lon="3.80113">
        <ele>597.3</ele>
        <time>2012-11-01T13:47:19.000Z</time>
      </trkpt>
      <trkpt lat="43.77728" lon="3.80118">
        <ele>598.8</ele>
        <time>2012-11-01T13:47:27.000Z</time>
      </trkpt>
      <trkpt lat="43.77728" lon="3.80119">
        <ele>599</ele>
        <time>2012-11-01T13:47:28.000Z</time>
      </trkpt>
      <trkpt lat="43.77733" lon="3.8012">
        <ele>599.9</ele>
        <time>2012-11-01T13:47:40.000Z</time>
      </trkpt>
      <trkpt lat="43.77733" lon="3.8012">
        <ele>600</ele>
        <time>2012-11-01T13:47:41.000Z</time>
      </trkpt>
      <trkpt lat="43.77738" lon="3.80121">
        <ele>601.3</ele>
        <time>2012-11-01T13:47:57.000Z</time>
      </trkpt>
      <trkpt lat="43.77738" lon="3.80121">
        <ele>601.3</ele>
        <time>2012-11-01T13:47:58.000Z</time>
      </trkpt>
      <trkpt lat="43.77742" lon="3.80125">
        <ele>601.1</ele>
        <time>2012-11-01T13:48:10.000Z</time>
      </trkpt>
      <trkpt lat="43.77742" lon="3.80126">
        <ele>601</ele>
        <time>2012-11-01T13:48:11.000Z</time>
      </trkpt>
      <trkpt lat="43.77745" lon="3.8013">
        <ele>601.1</ele>
        <time>2012-11-01T13:48:16.000Z</time>
      </trkpt>
      <trkpt lat="43.77745" lon="3.80131">
        <ele>601.1</ele>
        <time>2012-11-01T13:48:17.000Z</time>
      </trkpt>
      <trkpt lat="43.77746" lon="3.80137">
        <ele>601.4</ele>
        <time>2012-11-01T13:48:28.000Z</time>
      </trkpt>
      <trkpt lat="43.77747" lon="3.80137">
        <ele>601.5</ele>
        <time>2012-11-01T13:48:29.000Z</time>
      </trkpt>
      <trkpt lat="43.77744" lon="3.80141">
        <ele>602.2</ele>
        <time>2012-11-01T13:48:37.000Z</time>
      </trkpt>
      <trkpt lat="43.77744" lon="3.80142">
        <ele>602.4</ele>
        <time>2012-11-01T13:48:38.000Z</time>
      </trkpt>
      <trkpt lat="43.77742" lon="3.80147">
        <ele>603.3</ele>
        <time>2012-11-01T13:48:44.000Z</time>
      </trkpt>
      <trkpt lat="43.77742" lon="3.80148">
        <ele>603.5</ele>
        <time>2012-11-01T13:48:45.000Z</time>
      </trkpt>
      <trkpt lat="43.77742" lon="3.80153">
        <ele>604.4</ele>
        <time>2012-11-01T13:48:50.000Z</time>
      </trkpt>
      <trkpt lat="43.77742" lon="3.80154">
        <ele>604.5</ele>
        <time>2012-11-01T13:48:51.000Z</time>
      </trkpt>
      <trkpt lat="43.77744" lon="3.80159">
        <ele>605.3</ele>
        <time>2012-11-01T13:48:58.000Z</time>
      </trkpt>
      <trkpt lat="43.77744" lon="3.8016">
        <ele>605.4</ele>
        <time>2012-11-01T13:48:59.000Z</time>
      </trkpt>
      <trkpt lat="43.77747" lon="3.80164">
        <ele>606.4</ele>
        <time>2012-11-01T13:49:04.000Z</time>
      </trkpt>
      <trkpt lat="43.77748" lon="3.80164">
        <ele>606.6</ele>
        <time>2012-11-01T13:49:05.000Z</time>
      </trkpt>
      <trkpt lat="43.77748" lon="3.8017">
        <ele>609</ele>
        <time>2012-11-01T13:49:24.000Z</time>
      </trkpt>
      <trkpt lat="43.77749" lon="3.80171">
        <ele>609.1</ele>
        <time>2012-11-01T13:49:25.000Z</time>
      </trkpt>
      <trkpt lat="43.77749" lon="3.80176">
        <ele>609.7</ele>
        <time>2012-11-01T13:49:33.000Z</time>
      </trkpt>
      <trkpt lat="43.77749" lon="3.80177">
        <ele>609.8</ele>
        <time>2012-11-01T13:49:34.000Z</time>
      </trkpt>
      <trkpt lat="43.77747" lon="3.80182">
        <ele>610.3</ele>
        <time>2012-11-01T13:49:42.000Z</time>
      </trkpt>
      <trkpt lat="43.77747" lon="3.80183">
        <ele>610.3</ele>
        <time>2012-11-01T13:49:43.000Z</time>
      </trkpt>
      <trkpt lat="43.77743" lon="3.80186">
        <ele>610.9</ele>
        <time>2012-11-01T13:49:52.000Z</time>
      </trkpt>
      <trkpt lat="43.77743" lon="3.80186">
        <ele>611.1</ele>
        <time>2012-11-01T13:49:53.000Z</time>
      </trkpt>
      <trkpt lat="43.7774" lon="3.8019">
        <ele>612.1</ele>
        <time>2012-11-01T13:49:59.000Z</time>
      </trkpt>
      <trkpt lat="43.7774" lon="3.80191">
        <ele>612.4</ele>
        <time>2012-11-01T13:50:00.000Z</time>
      </trkpt>
      <trkpt lat="43.77741" lon="3.80197">
        <ele>613.5</ele>
        <time>2012-11-01T13:50:07.000Z</time>
      </trkpt>
      <trkpt lat="43.77741" lon="3.80198">
        <ele>613.7</ele>
        <time>2012-11-01T13:50:08.000Z</time>
      </trkpt>
      <trkpt lat="43.77742" lon="3.80203">
        <ele>615.1</ele>
        <time>2012-11-01T13:50:17.000Z</time>
      </trkpt>
      <trkpt lat="43.77742" lon="3.80204">
        <ele>615.3</ele>
        <time>2012-11-01T13:50:18.000Z</time>
      </trkpt>
      <trkpt lat="43.77744" lon="3.80209">
        <ele>617.4</ele>
        <time>2012-11-01T13:50:31.000Z</time>
      </trkpt>
      <trkpt lat="43.77745" lon="3.8021">
        <ele>617.6</ele>
        <time>2012-11-01T13:50:32.000Z</time>
      </trkpt>
      <trkpt lat="43.77744" lon="3.80215">
        <ele>618.9</ele>
        <time>2012-11-01T13:50:45.000Z</time>
      </trkpt>
      <trkpt lat="43.77744" lon="3.80216">
        <ele>619</ele>
        <time>2012-11-01T13:50:46.000Z</time>
      </trkpt>
      <trkpt lat="43.7774" lon="3.80219">
        <ele>619</ele>
        <time>2012-11-01T13:51:18.000Z</time>
      </trkpt>
      <trkpt lat="43.77739" lon="3.80218">
        <ele>619</ele>
        <time>2012-11-01T13:51:19.000Z</time>
      </trkpt>
      <trkpt lat="43.77738" lon="3.80223">
        <ele>619.1</ele>
        <time>2012-11-01T13:51:37.000Z</time>
      </trkpt>
      <trkpt lat="43.77738" lon="3.80225">
        <ele>619</ele>
        <time>2012-11-01T13:51:38.000Z</time>
      </trkpt>
      <trkpt lat="43.7774" lon="3.8023">
        <ele>618.4</ele>
        <time>2012-11-01T13:51:43.000Z</time>
      </trkpt>
      <trkpt lat="43.7774" lon="3.80231">
        <ele>618.4</ele>
        <time>2012-11-01T13:51:44.000Z</time>
      </trkpt>
      <trkpt lat="43.77743" lon="3.80235">
        <ele>617.2</ele>
        <time>2012-11-01T13:51:55.000Z</time>
      </trkpt>
      <trkpt lat="43.77743" lon="3.80236">
        <ele>617.2</ele>
        <time>2012-11-01T13:51:56.000Z</time>
      </trkpt>
      <trkpt lat="43.77743" lon="3.80241">
        <ele>617</ele>
        <time>2012-11-01T13:52:06.000Z</time>
      </trkpt>
      <trkpt lat="43.77743" lon="3.80242">
        <ele>617</ele>
        <time>2012-11-01T13:52:07.000Z</time>
      </trkpt>
      <trkpt lat="43.77744" lon="3.80247">
        <ele>616.7</ele>
        <time>2012-11-01T13:52:12.000Z</time>
      </trkpt>
      <trkpt lat="43.77744" lon="3.80248">
        <ele>616.6</ele>
        <time>2012-11-01T13:52:13.000Z</time>
      </trkpt>
      <trkpt lat="43.77747" lon="3.80252">
        <ele>616.3</ele>
        <time>2012-11-01T13:52:20.000Z</time>
      </trkpt>
      <trkpt lat="43.77747" lon="3.80252">
        <ele>616.3</ele>
        <time>2012-11-01T13:52:21.000Z</time>
      </trkpt>
      <trkpt lat="43.77745" lon="3.80258">
        <ele>616.8</ele>
        <time>2012-11-01T13:52:46.000Z</time>
      </trkpt>
      <trkpt lat="43.77745" lon="3.80258">
        <ele>617</ele>
        <time>2012-11-01T13:52:47.000Z</time>
      </trkpt>
      <trkpt lat="43.77749" lon="3.8026">
        <ele>617.7</ele>
        <time>2012-11-01T13:53:10.000Z</time>
      </trkpt>
      <trkpt lat="43.7775" lon="3.80259">
        <ele>617.7</ele>
        <time>2012-11-01T13:53:11.000Z</time>
      </trkpt>
      <trkpt lat="43.7775" lon="3.80253">
        <ele>615.7</ele>
        <time>2012-11-01T13:54:16.000Z</time>
      </trkpt>
      <trkpt lat="43.7775" lon="3.80253">
        <ele>615.6</ele>
        <time>2012-11-01T13:54:17.000Z</time>
      </trkpt>
      <trkpt lat="43.77748" lon="3.80259">
        <ele>613.2</ele>
        <time>2012-11-01T13:54:54.000Z</time>
      </trkpt>
      <trkpt lat="43.77748" lon="3.80259">
        <ele>613.2</ele>
        <time>2012-11-01T13:54:55.000Z</time>
      </trkpt>
      <trkpt lat="43.77748" lon="3.80265">
        <ele>613.1</ele>
        <time>2012-11-01T13:55:16.000Z</time>
      </trkpt>
      <trkpt lat="43.77748" lon="3.80266">
        <ele>613</ele>
        <time>2012-11-01T13:55:17.000Z</time>
      </trkpt>
      <trkpt lat="43.7775" lon="3.80271">
        <ele>612.1</ele>
        <time>2012-11-01T13:55:25.000Z</time>
      </trkpt>
      <trkpt lat="43.7775" lon="3.80271">
        <ele>612.1</ele>
        <time>2012-11-01T13:55:26.000Z</time>
      </trkpt>
      <trkpt lat="43.77754" lon="3.80273">
        <ele>612.3</ele>
        <time>2012-11-01T13:55:38.000Z</time>
      </trkpt>
      <trkpt lat="43.77754" lon="3.80273">
        <ele>612.4</ele>
        <time>2012-11-01T13:55:39.000Z</time>
      </trkpt>
      <trkpt lat="43.77758" lon="3.80275">
        <ele>613.3</ele>
        <time>2012-11-01T13:55:54.000Z</time>
      </trkpt>
      <trkpt lat="43.77759" lon="3.80275">
        <ele>613.4</ele>
        <time>2012-11-01T13:55:55.000Z</time>
      </trkpt>
      <trkpt lat="43.77762" lon="3.80279">
        <ele>613.9</ele>
        <time>2012-11-01T13:56:08.000Z</time>
      </trkpt>
      <trkpt lat="43.77762" lon="3.80279">
        <ele>613.9</ele>
        <time>2012-11-01T13:56:09.000Z</time>
      </trkpt>
      <trkpt lat="43.77765" lon="3.80284">
        <ele>614.6</ele>
        <time>2012-11-01T13:56:21.000Z</time>
      </trkpt>
      <trkpt lat="43.77765" lon="3.80284">
        <ele>614.8</ele>
        <time>2012-11-01T13:56:22.000Z</time>
      </trkpt>
      <trkpt lat="43.77768" lon="3.8029">
        <ele>615.6</ele>
        <time>2012-11-01T13:56:28.000Z</time>
      </trkpt>
      <trkpt lat="43.77768" lon="3.80291">
        <ele>615.7</ele>
        <time>2012-11-01T13:56:29.000Z</time>
      </trkpt>
      <trkpt lat="43.77771" lon="3.80293">
        <ele>616.2</ele>
        <time>2012-11-01T13:56:39.000Z</time>
      </trkpt>
      <trkpt lat="43.77772" lon="3.80294">
        <ele>616.3</ele>
        <time>2012-11-01T13:56:40.000Z</time>
      </trkpt>
      <trkpt lat="43.77769" lon="3.80298">
        <ele>618.6</ele>
        <time>2012-11-01T13:58:13.000Z</time>
      </trkpt>
      <trkpt lat="43.77769" lon="3.80299">
        <ele>618.6</ele>
        <time>2012-11-01T13:58:14.000Z</time>
      </trkpt>
      <trkpt lat="43.7777" lon="3.80305">
        <ele>618.7</ele>
        <time>2012-11-01T13:58:26.000Z</time>
      </trkpt>
      <trkpt lat="43.7777" lon="3.80305">
        <ele>618.7</ele>
        <time>2012-11-01T13:58:27.000Z</time>
      </trkpt>
      <trkpt lat="43.77772" lon="3.80311">
        <ele>618.8</ele>
        <time>2012-11-01T13:58:38.000Z</time>
      </trkpt>
      <trkpt lat="43.77772" lon="3.80312">
        <ele>618.8</ele>
        <time>2012-11-01T13:58:39.000Z</time>
      </trkpt>
      <trkpt lat="43.77773" lon="3.80317">
        <ele>619.5</ele>
        <time>2012-11-01T13:58:47.000Z</time>
      </trkpt>
      <trkpt lat="43.77773" lon="3.80318">
        <ele>619.6</ele>
        <time>2012-11-01T13:58:48.000Z</time>
      </trkpt>
      <trkpt lat="43.77772" lon="3.80324">
        <ele>620.4</ele>
        <time>2012-11-01T13:58:57.000Z</time>
      </trkpt>
      <trkpt lat="43.77772" lon="3.80324">
        <ele>620.6</ele>
        <time>2012-11-01T13:58:58.000Z</time>
      </trkpt>
      <trkpt lat="43.77774" lon="3.80329">
        <ele>621.5</ele>
        <time>2012-11-01T13:59:09.000Z</time>
      </trkpt>
      <trkpt lat="43.77774" lon="3.8033">
        <ele>621.5</ele>
        <time>2012-11-01T13:59:10.000Z</time>
      </trkpt>
      <trkpt lat="43.77775" lon="3.80335">
        <ele>621.5</ele>
        <time>2012-11-01T13:59:18.000Z</time>
      </trkpt>
      <trkpt lat="43.77775" lon="3.80336">
        <ele>621.5</ele>
        <time>2012-11-01T13:59:19.000Z</time>
      </trkpt>
      <trkpt lat="43.77775" lon="3.80341">
        <ele>622.2</ele>
        <time>2012-11-01T13:59:29.000Z</time>
      </trkpt>
      <trkpt lat="43.77775" lon="3.80342">
        <ele>622.3</ele>
        <time>2012-11-01T13:59:30.000Z</time>
      </trkpt>
      <trkpt lat="43.77775" lon="3.80348">
        <ele>625</ele>
        <time>2012-11-01T14:02:26.000Z</time>
      </trkpt>
      <trkpt lat="43.77776" lon="3.80348">
        <ele>624.9</ele>
        <time>2012-11-01T14:02:27.000Z</time>
      </trkpt>
      <trkpt lat="43.7778" lon="3.80352">
        <ele>624.9</ele>
        <time>2012-11-01T14:02:34.000Z</time>
      </trkpt>
      <trkpt lat="43.7778" lon="3.80352">
        <ele>624.9</ele>
        <time>2012-11-01T14:02:35.000Z</time>
      </trkpt>
      <trkpt lat="43.77776" lon="3.80356">
        <ele>625</ele>
        <time>2012-11-01T14:03:05.000Z</time>
      </trkpt>
      <trkpt lat="43.77776" lon="3.80356">
        <ele>624.9</ele>
        <time>2012-11-01T14:03:06.000Z</time>
      </trkpt>
      <trkpt lat="43.77774" lon="3.80361">
        <ele>624.9</ele>
        <time>2012-11-01T14:03:54.999Z</time>
      </trkpt>
      <trkpt lat="43.77773" lon="3.80362">
        <ele>624.9</ele>
        <time>2012-11-01T14:03:55.999Z</time>
      </trkpt>
      <trkpt lat="43.77772" lon="3.80367">
        <ele>626.2</ele>
        <time>2012-11-01T14:04:52.999Z</time>
      </trkpt>
      <trkpt lat="43.77772" lon="3.80367">
        <ele>626.2</ele>
        <time>2012-11-01T14:04:53.999Z</time>
      </trkpt>
      <trkpt lat="43.7777" lon="3.80373">
        <ele>626.1</ele>
        <time>2012-11-01T14:05:02.999Z</time>
      </trkpt>
      <trkpt lat="43.7777" lon="3.80374">
        <ele>626.1</ele>
        <time>2012-11-01T14:05:03.999Z</time>
      </trkpt>
      <trkpt lat="43.77771" lon="3.8038">
        <ele>626.1</ele>
        <time>2012-11-01T14:05:10.999Z</time>
      </trkpt>
      <trkpt lat="43.77771" lon="3.8038">
        <ele>626.1</ele>
        <time>2012-11-01T14:05:11.999Z</time>
      </trkpt>
      <trkpt lat="43.77771" lon="3.80386">
        <ele>626.8</ele>
        <time>2012-11-01T14:05:23.999Z</time>
      </trkpt>
      <trkpt lat="43.7777" lon="3.80387">
        <ele>626.9</ele>
        <time>2012-11-01T14:05:24.999Z</time>
      </trkpt>
      <trkpt lat="43.77769" lon="3.80392">
        <ele>627.1</ele>
        <time>2012-11-01T14:05:29.999Z</time>
      </trkpt>
      <trkpt lat="43.77768" lon="3.80392">
        <ele>627.1</ele>
        <time>2012-11-01T14:05:30.999Z</time>
      </trkpt>
      <trkpt lat="43.77768" lon="3.80399">
        <ele>627.7</ele>
        <time>2012-11-01T14:05:39.999Z</time>
      </trkpt>
      <trkpt lat="43.77768" lon="3.80399">
        <ele>627.7</ele>
        <time>2012-11-01T14:05:40.999Z</time>
      </trkpt>
      <trkpt lat="43.77769" lon="3.80405">
        <ele>628.3</ele>
        <time>2012-11-01T14:05:47.999Z</time>
      </trkpt>
      <trkpt lat="43.7777" lon="3.80406">
        <ele>628.5</ele>
        <time>2012-11-01T14:05:48.999Z</time>
      </trkpt>
      <trkpt lat="43.7777" lon="3.80411">
        <ele>629.1</ele>
        <time>2012-11-01T14:05:56.999Z</time>
      </trkpt>
      <trkpt lat="43.77771" lon="3.80412">
        <ele>629.2</ele>
        <time>2012-11-01T14:05:57.999Z</time>
      </trkpt>
      <trkpt lat="43.77774" lon="3.80416">
        <ele>630</ele>
        <time>2012-11-01T14:06:04.999Z</time>
      </trkpt>
      <trkpt lat="43.77774" lon="3.80417">
        <ele>630.1</ele>
        <time>2012-11-01T14:06:05.999Z</time>
      </trkpt>
      <trkpt lat="43.77776" lon="3.80421">
        <ele>631.3</ele>
        <time>2012-11-01T14:06:14.999Z</time>
      </trkpt>
      <trkpt lat="43.77777" lon="3.80422">
        <ele>631.4</ele>
        <time>2012-11-01T14:06:15.999Z</time>
      </trkpt>
      <trkpt lat="43.77779" lon="3.80427">
        <ele>632</ele>
        <time>2012-11-01T14:06:39.999Z</time>
      </trkpt>
      <trkpt lat="43.77779" lon="3.80428">
        <ele>632.1</ele>
        <time>2012-11-01T14:06:40.999Z</time>
      </trkpt>
      <trkpt lat="43.7778" lon="3.80434">
        <ele>632.7</ele>
        <time>2012-11-01T14:06:50.999Z</time>
      </trkpt>
      <trkpt lat="43.7778" lon="3.80434">
        <ele>632.7</ele>
        <time>2012-11-01T14:06:51.999Z</time>
      </trkpt>
      <trkpt lat="43.77781" lon="3.8044">
        <ele>633.3</ele>
        <time>2012-11-01T14:06:58.999Z</time>
      </trkpt>
      <trkpt lat="43.77781" lon="3.80442">
        <ele>633.4</ele>
        <time>2012-11-01T14:06:59.999Z</time>
      </trkpt>
      <trkpt lat="43.77783" lon="3.80447">
        <ele>634</ele>
        <time>2012-11-01T14:07:06.999Z</time>
      </trkpt>
      <trkpt lat="43.77783" lon="3.80448">
        <ele>634.1</ele>
        <time>2012-11-01T14:07:07.999Z</time>
      </trkpt>
      <trkpt lat="43.77783" lon="3.80453">
        <ele>634.3</ele>
        <time>2012-11-01T14:07:14.999Z</time>
      </trkpt>
      <trkpt lat="43.77782" lon="3.80454">
        <ele>634.3</ele>
        <time>2012-11-01T14:07:15.999Z</time>
      </trkpt>
      <trkpt lat="43.77782" lon="3.8046">
        <ele>634.5</ele>
        <time>2012-11-01T14:07:18.999Z</time>
      </trkpt>
      <trkpt lat="43.77782" lon="3.80461">
        <ele>634.5</ele>
        <time>2012-11-01T14:07:19.999Z</time>
      </trkpt>
      <trkpt lat="43.77786" lon="3.80463">
        <ele>635.8</ele>
        <time>2012-11-01T14:07:28.999Z</time>
      </trkpt>
      <trkpt lat="43.77786" lon="3.80463">
        <ele>636</ele>
        <time>2012-11-01T14:07:29.999Z</time>
      </trkpt>
      <trkpt lat="43.77785" lon="3.80468">
        <ele>636.8</ele>
        <time>2012-11-01T14:07:38.999Z</time>
      </trkpt>
      <trkpt lat="43.77784" lon="3.80469">
        <ele>636.9</ele>
        <time>2012-11-01T14:07:39.999Z</time>
      </trkpt>
      <trkpt lat="43.77783" lon="3.80474">
        <ele>637.3</ele>
        <time>2012-11-01T14:07:48.999Z</time>
      </trkpt>
      <trkpt lat="43.77783" lon="3.80475">
        <ele>637.3</ele>
        <time>2012-11-01T14:07:49.999Z</time>
      </trkpt>
      <trkpt lat="43.77779" lon="3.80479">
        <ele>636.5</ele>
        <time>2012-11-01T14:08:16.999Z</time>
      </trkpt>
      <trkpt lat="43.77779" lon="3.80479">
        <ele>636.5</ele>
        <time>2012-11-01T14:08:17.999Z</time>
      </trkpt>
      <trkpt lat="43.77777" lon="3.80484">
        <ele>636.8</ele>
        <time>2012-11-01T14:08:32.999Z</time>
      </trkpt>
      <trkpt lat="43.77777" lon="3.80484">
        <ele>636.8</ele>
        <time>2012-11-01T14:08:33.999Z</time>
      </trkpt>
      <trkpt lat="43.77776" lon="3.8049">
        <ele>636.4</ele>
        <time>2012-11-01T14:08:58.999Z</time>
      </trkpt>
      <trkpt lat="43.77776" lon="3.8049">
        <ele>636.4</ele>
        <time>2012-11-01T14:08:59.999Z</time>
      </trkpt>
      <trkpt lat="43.77774" lon="3.80496">
        <ele>635.2</ele>
        <time>2012-11-01T14:09:36.999Z</time>
      </trkpt>
      <trkpt lat="43.77774" lon="3.80497">
        <ele>635.1</ele>
        <time>2012-11-01T14:09:37.999Z</time>
      </trkpt>
      <trkpt lat="43.77773" lon="3.80503">
        <ele>634.2</ele>
        <time>2012-11-01T14:09:51.999Z</time>
      </trkpt>
      <trkpt lat="43.77774" lon="3.80503">
        <ele>634.1</ele>
        <time>2012-11-01T14:09:52.999Z</time>
      </trkpt>
      <trkpt lat="43.77771" lon="3.80508">
        <ele>633.2</ele>
        <time>2012-11-01T14:10:12.999Z</time>
      </trkpt>
      <trkpt lat="43.7777" lon="3.80508">
        <ele>633.1</ele>
        <time>2012-11-01T14:10:13.999Z</time>
      </trkpt>
      <trkpt lat="43.77767" lon="3.80512">
        <ele>632.9</ele>
        <time>2012-11-01T14:10:20.999Z</time>
      </trkpt>
      <trkpt lat="43.77767" lon="3.80512">
        <ele>632.9</ele>
        <time>2012-11-01T14:10:21.999Z</time>
      </trkpt>
      <trkpt lat="43.7777" lon="3.80508">
        <ele>630.5</ele>
        <time>2012-11-01T14:10:56.999Z</time>
      </trkpt>
      <trkpt lat="43.7777" lon="3.80508">
        <ele>630.2</ele>
        <time>2012-11-01T14:10:57.999Z</time>
      </trkpt>
      <trkpt lat="43.77767" lon="3.80512">
        <ele>628.7</ele>
        <time>2012-11-01T14:11:14.999Z</time>
      </trkpt>
      <trkpt lat="43.77766" lon="3.80512">
        <ele>628.5</ele>
        <time>2012-11-01T14:11:15.999Z</time>
      </trkpt>
      <trkpt lat="43.77766" lon="3.80518">
        <ele>627.9</ele>
        <time>2012-11-01T14:11:51.999Z</time>
      </trkpt>
      <trkpt lat="43.77766" lon="3.80518">
        <ele>627.7</ele>
        <time>2012-11-01T14:11:52.999Z</time>
      </trkpt>
      <trkpt lat="43.77763" lon="3.80522">
        <ele>627.6</ele>
        <time>2012-11-01T14:12:09.999Z</time>
      </trkpt>
      <trkpt lat="43.77763" lon="3.80523">
        <ele>627.6</ele>
        <time>2012-11-01T14:12:10.999Z</time>
      </trkpt>
      <trkpt lat="43.7776" lon="3.80527">
        <ele>626.5</ele>
        <time>2012-11-01T14:12:43.999Z</time>
      </trkpt>
      <trkpt lat="43.7776" lon="3.80528">
        <ele>626.3</ele>
        <time>2012-11-01T14:12:44.999Z</time>
      </trkpt>
      <trkpt lat="43.7776" lon="3.80533">
        <ele>625.8</ele>
        <time>2012-11-01T14:12:50.999Z</time>
      </trkpt>
      <trkpt lat="43.77759" lon="3.80534">
        <ele>625.6</ele>
        <time>2012-11-01T14:12:51.999Z</time>
      </trkpt>
      <trkpt lat="43.77758" lon="3.8054">
        <ele>625.1</ele>
        <time>2012-11-01T14:12:59.999Z</time>
      </trkpt>
      <trkpt lat="43.77758" lon="3.80541">
        <ele>625.1</ele>
        <time>2012-11-01T14:13:00.999Z</time>
      </trkpt>
      <trkpt lat="43.77761" lon="3.80545">
        <ele>623.9</ele>
        <time>2012-11-01T14:13:08.999Z</time>
      </trkpt>
      <trkpt lat="43.77761" lon="3.80546">
        <ele>623.8</ele>
        <time>2012-11-01T14:13:09.999Z</time>
      </trkpt>
      <trkpt lat="43.77759" lon="3.80551">
        <ele>622.7</ele>
        <time>2012-11-01T14:13:15.999Z</time>
      </trkpt>
      <trkpt lat="43.77758" lon="3.80552">
        <ele>622.7</ele>
        <time>2012-11-01T14:13:16.999Z</time>
      </trkpt>
      <trkpt lat="43.77758" lon="3.80557">
        <ele>621.6</ele>
        <time>2012-11-01T14:13:22.999Z</time>
      </trkpt>
      <trkpt lat="43.77757" lon="3.80558">
        <ele>621.5</ele>
        <time>2012-11-01T14:13:23.999Z</time>
      </trkpt>
      <trkpt lat="43.77756" lon="3.80563">
        <ele>621.5</ele>
        <time>2012-11-01T14:13:40.999Z</time>
      </trkpt>
      <trkpt lat="43.77756" lon="3.80564">
        <ele>621.6</ele>
        <time>2012-11-01T14:13:41.999Z</time>
      </trkpt>
      <trkpt lat="43.77758" lon="3.80569">
        <ele>622.3</ele>
        <time>2012-11-01T14:13:47.999Z</time>
      </trkpt>
      <trkpt lat="43.77758" lon="3.8057">
        <ele>622.3</ele>
        <time>2012-11-01T14:13:48.999Z</time>
      </trkpt>
      <trkpt lat="43.77756" lon="3.80575">
        <ele>623.2</ele>
        <time>2012-11-01T14:13:55.999Z</time>
      </trkpt>
      <trkpt lat="43.77756" lon="3.80576">
        <ele>623.3</ele>
        <time>2012-11-01T14:13:56.999Z</time>
      </trkpt>
      <trkpt lat="43.77756" lon="3.80581">
        <ele>623.9</ele>
        <time>2012-11-01T14:14:22.999Z</time>
      </trkpt>
      <trkpt lat="43.77756" lon="3.80582">
        <ele>623.8</ele>
        <time>2012-11-01T14:14:23.999Z</time>
      </trkpt>
      <trkpt lat="43.77758" lon="3.80587">
        <ele>624.1</ele>
        <time>2012-11-01T14:14:37.999Z</time>
      </trkpt>
      <trkpt lat="43.77758" lon="3.80588">
        <ele>624</ele>
        <time>2012-11-01T14:14:38.999Z</time>
      </trkpt>
      <trkpt lat="43.77762" lon="3.8059">
        <ele>624.4</ele>
        <time>2012-11-01T14:15:09.999Z</time>
      </trkpt>
      <trkpt lat="43.77763" lon="3.8059">
        <ele>624.4</ele>
        <time>2012-11-01T14:15:10.999Z</time>
      </trkpt>
      <trkpt lat="43.77767" lon="3.80587">
        <ele>624.2</ele>
        <time>2012-11-01T14:15:22.999Z</time>
      </trkpt>
      <trkpt lat="43.77767" lon="3.80587">
        <ele>624.2</ele>
        <time>2012-11-01T14:15:23.999Z</time>
      </trkpt>
      <trkpt lat="43.77768" lon="3.80593">
        <ele>624.5</ele>
        <time>2012-11-01T14:16:09.999Z</time>
      </trkpt>
      <trkpt lat="43.77768" lon="3.80594">
        <ele>624.5</ele>
        <time>2012-11-01T14:16:10.999Z</time>
      </trkpt>
      <trkpt lat="43.77768" lon="3.806">
        <ele>624.8</ele>
        <time>2012-11-01T14:17:26.999Z</time>
      </trkpt>
      <trkpt lat="43.77768" lon="3.80601">
        <ele>624.7</ele>
        <time>2012-11-01T14:17:27.999Z</time>
      </trkpt>
      <trkpt lat="43.7777" lon="3.80606">
        <ele>624.4</ele>
        <time>2012-11-01T14:17:36.999Z</time>
      </trkpt>
      <trkpt lat="43.7777" lon="3.80606">
        <ele>624.4</ele>
        <time>2012-11-01T14:17:37.999Z</time>
      </trkpt>
      <trkpt lat="43.7777" lon="3.80612">
        <ele>625.8</ele>
        <time>2012-11-01T14:17:55.999Z</time>
      </trkpt>
      <trkpt lat="43.7777" lon="3.80613">
        <ele>626</ele>
        <time>2012-11-01T14:17:56.999Z</time>
      </trkpt>
      <trkpt lat="43.77771" lon="3.80618">
        <ele>626.8</ele>
        <time>2012-11-01T14:18:23.999Z</time>
      </trkpt>
      <trkpt lat="43.77771" lon="3.80619">
        <ele>626.8</ele>
        <time>2012-11-01T14:18:24.999Z</time>
      </trkpt>
      <trkpt lat="43.77773" lon="3.80624">
        <ele>627.3</ele>
        <time>2012-11-01T14:18:37.999Z</time>
      </trkpt>
      <trkpt lat="43.77773" lon="3.80624">
        <ele>627.5</ele>
        <time>2012-11-01T14:18:38.999Z</time>
      </trkpt>
      <trkpt lat="43.77775" lon="3.8063">
        <ele>628.6</ele>
        <time>2012-11-01T14:18:48.999Z</time>
      </trkpt>
      <trkpt lat="43.77775" lon="3.8063">
        <ele>628.7</ele>
        <time>2012-11-01T14:18:49.999Z</time>
      </trkpt>
      <trkpt lat="43.7778" lon="3.80631">
        <ele>630.6</ele>
        <time>2012-11-01T14:19:23.999Z</time>
      </trkpt>
      <trkpt lat="43.7778" lon="3.80631">
        <ele>630.8</ele>
        <time>2012-11-01T14:19:24.999Z</time>
      </trkpt>
      <trkpt lat="43.77783" lon="3.80635">
        <ele>632.3</ele>
        <time>2012-11-01T14:19:35.999Z</time>
      </trkpt>
      <trkpt lat="43.77783" lon="3.80636">
        <ele>632.5</ele>
        <time>2012-11-01T14:19:36.999Z</time>
      </trkpt>
      <trkpt lat="43.77787" lon="3.80638">
        <ele>636.1</ele>
        <time>2012-11-01T14:20:15.999Z</time>
      </trkpt>
      <trkpt lat="43.77787" lon="3.80638">
        <ele>636.2</ele>
        <time>2012-11-01T14:20:16.999Z</time>
      </trkpt>
      <trkpt lat="43.77792" lon="3.80638">
        <ele>638.4</ele>
        <time>2012-11-01T14:20:35.999Z</time>
      </trkpt>
      <trkpt lat="43.77792" lon="3.80638">
        <ele>638.7</ele>
        <time>2012-11-01T14:20:36.999Z</time>
      </trkpt>
      <trkpt lat="43.77794" lon="3.80644">
        <ele>641.7</ele>
        <time>2012-11-01T14:20:49.999Z</time>
      </trkpt>
      <trkpt lat="43.77794" lon="3.80644">
        <ele>642</ele>
        <time>2012-11-01T14:20:50.999Z</time>
      </trkpt>
      <trkpt lat="43.77798" lon="3.80645">
        <ele>643.7</ele>
        <time>2012-11-01T14:21:04.999Z</time>
      </trkpt>
      <trkpt lat="43.77799" lon="3.80645">
        <ele>643.7</ele>
        <time>2012-11-01T14:21:05.999Z</time>
      </trkpt>
      <trkpt lat="43.77802" lon="3.80649">
        <ele>646.8</ele>
        <time>2012-11-01T14:21:33.999Z</time>
      </trkpt>
      <trkpt lat="43.77802" lon="3.80649">
        <ele>647</ele>
        <time>2012-11-01T14:21:34.999Z</time>
      </trkpt>
      <trkpt lat="43.77804" lon="3.80654">
        <ele>649.4</ele>
        <time>2012-11-01T14:21:43.999Z</time>
      </trkpt>
      <trkpt lat="43.77805" lon="3.80655">
        <ele>649.7</ele>
        <time>2012-11-01T14:21:44.999Z</time>
      </trkpt>
      <trkpt lat="43.77807" lon="3.8066">
        <ele>653.1</ele>
        <time>2012-11-01T14:21:58.999Z</time>
      </trkpt>
      <trkpt lat="43.77807" lon="3.8066">
        <ele>653.4</ele>
        <time>2012-11-01T14:21:59.999Z</time>
      </trkpt>
      <trkpt lat="43.7781" lon="3.80656">
        <ele>655.4</ele>
        <time>2012-11-01T14:22:17.999Z</time>
      </trkpt>
      <trkpt lat="43.77811" lon="3.80656">
        <ele>655.6</ele>
        <time>2012-11-01T14:22:18.999Z</time>
      </trkpt>
      <trkpt lat="43.77813" lon="3.8066">
        <ele>657.3</ele>
        <time>2012-11-01T14:22:25.999Z</time>
      </trkpt>
      <trkpt lat="43.77813" lon="3.80661">
        <ele>657.5</ele>
        <time>2012-11-01T14:22:26.999Z</time>
      </trkpt>
      <trkpt lat="43.77812" lon="3.80667">
        <ele>659.9</ele>
        <time>2012-11-01T14:22:59.999Z</time>
      </trkpt>
      <trkpt lat="43.77812" lon="3.80667">
        <ele>659.9</ele>
        <time>2012-11-01T14:23:00.999Z</time>
      </trkpt>
      <trkpt lat="43.77813" lon="3.80673">
        <ele>661.1</ele>
        <time>2012-11-01T14:23:33.000Z</time>
      </trkpt>
      <trkpt lat="43.77813" lon="3.80673">
        <ele>661.2</ele>
        <time>2012-11-01T14:23:34.000Z</time>
      </trkpt>
      <trkpt lat="43.77814" lon="3.80678">
        <ele>662.4</ele>
        <time>2012-11-01T14:23:43.000Z</time>
      </trkpt>
      <trkpt lat="43.77814" lon="3.80679">
        <ele>662.5</ele>
        <time>2012-11-01T14:23:44.000Z</time>
      </trkpt>
      <trkpt lat="43.77815" lon="3.80685">
        <ele>663.1</ele>
        <time>2012-11-01T14:23:49.000Z</time>
      </trkpt>
      <trkpt lat="43.77815" lon="3.80685">
        <ele>663.1</ele>
        <time>2012-11-01T14:23:50.000Z</time>
      </trkpt>
      <trkpt lat="43.77818" lon="3.8069">
        <ele>663.8</ele>
        <time>2012-11-01T14:23:58.000Z</time>
      </trkpt>
      <trkpt lat="43.77818" lon="3.8069">
        <ele>663.9</ele>
        <time>2012-11-01T14:23:59.000Z</time>
      </trkpt>
      <trkpt lat="43.77821" lon="3.80695">
        <ele>664.4</ele>
        <time>2012-11-01T14:24:11.000Z</time>
      </trkpt>
      <trkpt lat="43.77821" lon="3.80695">
        <ele>664.4</ele>
        <time>2012-11-01T14:24:12.000Z</time>
      </trkpt>
      <trkpt lat="43.77824" lon="3.80699">
        <ele>665.6</ele>
        <time>2012-11-01T14:24:35.000Z</time>
      </trkpt>
      <trkpt lat="43.77825" lon="3.80699">
        <ele>665.8</ele>
        <time>2012-11-01T14:24:36.000Z</time>
      </trkpt>
      <trkpt lat="43.77827" lon="3.80704">
        <ele>666.7</ele>
        <time>2012-11-01T14:25:09.000Z</time>
      </trkpt>
      <trkpt lat="43.77828" lon="3.80704">
        <ele>666.9</ele>
        <time>2012-11-01T14:25:10.000Z</time>
      </trkpt>
      <trkpt lat="43.77831" lon="3.80707">
        <ele>668</ele>
        <time>2012-11-01T14:25:28.000Z</time>
      </trkpt>
      <trkpt lat="43.77832" lon="3.80707">
        <ele>668</ele>
        <time>2012-11-01T14:25:29.000Z</time>
      </trkpt>
      <trkpt lat="43.77835" lon="3.80712">
        <ele>669.1</ele>
        <time>2012-11-01T14:25:43.000Z</time>
      </trkpt>
      <trkpt lat="43.77835" lon="3.80712">
        <ele>669.1</ele>
        <time>2012-11-01T14:25:44.000Z</time>
      </trkpt>
      <trkpt lat="43.77837" lon="3.80716">
        <ele>669.9</ele>
        <time>2012-11-01T14:25:59.000Z</time>
      </trkpt>
      <trkpt lat="43.77837" lon="3.80717">
        <ele>670</ele>
        <time>2012-11-01T14:26:00.000Z</time>
      </trkpt>
      <trkpt lat="43.77837" lon="3.80723">
        <ele>670.7</ele>
        <time>2012-11-01T14:26:11.000Z</time>
      </trkpt>
      <trkpt lat="43.77837" lon="3.80724">
        <ele>670.8</ele>
        <time>2012-11-01T14:26:12.000Z</time>
      </trkpt>
      <trkpt lat="43.7784" lon="3.80729">
        <ele>671.6</ele>
        <time>2012-11-01T14:26:28.000Z</time>
      </trkpt>
      <trkpt lat="43.77839" lon="3.80729">
        <ele>671.6</ele>
        <time>2012-11-01T14:26:29.000Z</time>
      </trkpt>
      <trkpt lat="43.77837" lon="3.80735">
        <ele>672</ele>
        <time>2012-11-01T14:26:40.000Z</time>
      </trkpt>
      <trkpt lat="43.77838" lon="3.80735">
        <ele>672</ele>
        <time>2012-11-01T14:26:41.000Z</time>
      </trkpt>
      <trkpt lat="43.77837" lon="3.80741">
        <ele>674.5</ele>
        <time>2012-11-01T14:31:25.000Z</time>
      </trkpt>
      <trkpt lat="43.77837" lon="3.80742">
        <ele>674.5</ele>
        <time>2012-11-01T14:31:26.000Z</time>
      </trkpt>
      <trkpt lat="43.77839" lon="3.80747">
        <ele>674.6</ele>
        <time>2012-11-01T14:31:45.000Z</time>
      </trkpt>
      <trkpt lat="43.77839" lon="3.80747">
        <ele>674.6</ele>
        <time>2012-11-01T14:31:46.000Z</time>
      </trkpt>
      <trkpt lat="43.77835" lon="3.8075">
        <ele>674.6</ele>
        <time>2012-11-01T14:33:49.000Z</time>
      </trkpt>
      <trkpt lat="43.77835" lon="3.80751">
        <ele>674.6</ele>
        <time>2012-11-01T14:33:50.000Z</time>
      </trkpt>
      <trkpt lat="43.77835" lon="3.80757">
        <ele>674.5</ele>
        <time>2012-11-01T14:33:57.000Z</time>
      </trkpt>
      <trkpt lat="43.77835" lon="3.80757">
        <ele>674.5</ele>
        <time>2012-11-01T14:33:58.000Z</time>
      </trkpt>
      <trkpt lat="43.77835" lon="3.80764">
        <ele>674.6</ele>
        <time>2012-11-01T14:34:19.000Z</time>
      </trkpt>
      <trkpt lat="43.77835" lon="3.80764">
        <ele>674.6</ele>
        <time>2012-11-01T14:34:20.000Z</time>
      </trkpt>
      <trkpt lat="43.77835" lon="3.8077">
        <ele>674.6</ele>
        <time>2012-11-01T14:34:36.000Z</time>
      </trkpt>
      <trkpt lat="43.77835" lon="3.80771">
        <ele>674.6</ele>
        <time>2012-11-01T14:34:37.000Z</time>
      </trkpt>
      <trkpt lat="43.77837" lon="3.80776">
        <ele>674.5</ele>
        <time>2012-11-01T14:34:48.000Z</time>
      </trkpt>
      <trkpt lat="43.77837" lon="3.80776">
        <ele>674.5</ele>
        <time>2012-11-01T14:34:49.000Z</time>
      </trkpt>
      <trkpt lat="43.77837" lon="3.80782">
        <ele>674.5</ele>
        <time>2012-11-01T14:35:04.000Z</time>
      </trkpt>
      <trkpt lat="43.77837" lon="3.80783">
        <ele>674.5</ele>
        <time>2012-11-01T14:35:05.000Z</time>
      </trkpt>
      <trkpt lat="43.77837" lon="3.80788">
        <ele>674.4</ele>
        <time>2012-11-01T14:35:21.000Z</time>
      </trkpt>
      <trkpt lat="43.77837" lon="3.80789">
        <ele>674.4</ele>
        <time>2012-11-01T14:35:22.000Z</time>
      </trkpt>
      <trkpt lat="43.77838" lon="3.80795">
        <ele>674.4</ele>
        <time>2012-11-01T14:35:30.000Z</time>
      </trkpt>
      <trkpt lat="43.77838" lon="3.80795">
        <ele>674.4</ele>
        <time>2012-11-01T14:35:31.000Z</time>
      </trkpt>
      <trkpt lat="43.77839" lon="3.80801">
        <ele>674.3</ele>
        <time>2012-11-01T14:35:41.000Z</time>
      </trkpt>
      <trkpt lat="43.77839" lon="3.80801">
        <ele>674.3</ele>
        <time>2012-11-01T14:35:42.000Z</time>
      </trkpt>
      <trkpt lat="43.77844" lon="3.80801">
        <ele>674.5</ele>
        <time>2012-11-01T14:36:37.000Z</time>
      </trkpt>
      <trkpt lat="43.77844" lon="3.808">
        <ele>674.5</ele>
        <time>2012-11-01T14:36:38.000Z</time>
      </trkpt>
      <trkpt lat="43.77842" lon="3.80805">
        <ele>674.3</ele>
        <time>2012-11-01T14:39:02.000Z</time>
      </trkpt>
      <trkpt lat="43.77842" lon="3.80805">
        <ele>674.3</ele>
        <time>2012-11-01T14:39:03.000Z</time>
      </trkpt>
      <trkpt lat="43.77844" lon="3.80811">
        <ele>674.4</ele>
        <time>2012-11-01T14:39:13.000Z</time>
      </trkpt>
      <trkpt lat="43.77844" lon="3.80811">
        <ele>674.4</ele>
        <time>2012-11-01T14:39:14.000Z</time>
      </trkpt>
      <trkpt lat="43.77846" lon="3.80816">
        <ele>674.4</ele>
        <time>2012-11-01T14:39:22.000Z</time>
      </trkpt>
      <trkpt lat="43.77846" lon="3.80817">
        <ele>674.4</ele>
        <time>2012-11-01T14:39:23.000Z</time>
      </trkpt>
      <trkpt lat="43.77849" lon="3.80822">
        <ele>674.4</ele>
        <time>2012-11-01T14:39:33.000Z</time>
      </trkpt>
      <trkpt lat="43.77849" lon="3.80822">
        <ele>674.4</ele>
        <time>2012-11-01T14:39:34.000Z</time>
      </trkpt>
      <trkpt lat="43.77852" lon="3.80827">
        <ele>674.5</ele>
        <time>2012-11-01T14:39:40.000Z</time>
      </trkpt>
      <trkpt lat="43.77852" lon="3.80828">
        <ele>674.5</ele>
        <time>2012-11-01T14:39:41.000Z</time>
      </trkpt>
      <trkpt lat="43.77854" lon="3.80833">
        <ele>674.5</ele>
        <time>2012-11-01T14:39:50.000Z</time>
      </trkpt>
      <trkpt lat="43.77854" lon="3.80833">
        <ele>674.5</ele>
        <time>2012-11-01T14:39:51.000Z</time>
      </trkpt>
      <trkpt lat="43.77856" lon="3.80838">
        <ele>674.5</ele>
        <time>2012-11-01T14:39:58.000Z</time>
      </trkpt>
      <trkpt lat="43.77857" lon="3.80839">
        <ele>674.5</ele>
        <time>2012-11-01T14:39:59.000Z</time>
      </trkpt>
      <trkpt lat="43.77857" lon="3.80845">
        <ele>674.5</ele>
        <time>2012-11-01T14:40:18.000Z</time>
      </trkpt>
      <trkpt lat="43.77857" lon="3.80845">
        <ele>674.6</ele>
        <time>2012-11-01T14:40:19.000Z</time>
      </trkpt>
      <trkpt lat="43.77857" lon="3.80851">
        <ele>674.6</ele>
        <time>2012-11-01T14:40:27.000Z</time>
      </trkpt>
      <trkpt lat="43.77858" lon="3.80852">
        <ele>674.6</ele>
        <time>2012-11-01T14:40:28.000Z</time>
      </trkpt>
      <trkpt lat="43.7786" lon="3.80856">
        <ele>674.6</ele>
        <time>2012-11-01T14:40:34.000Z</time>
      </trkpt>
      <trkpt lat="43.7786" lon="3.80857">
        <ele>674.6</ele>
        <time>2012-11-01T14:40:35.000Z</time>
      </trkpt>
      <trkpt lat="43.77862" lon="3.80863">
        <ele>674.7</ele>
        <time>2012-11-01T14:40:43.000Z</time>
      </trkpt>
      <trkpt lat="43.77862" lon="3.80864">
        <ele>674.7</ele>
        <time>2012-11-01T14:40:44.000Z</time>
      </trkpt>
      <trkpt lat="43.77864" lon="3.80869">
        <ele>674.7</ele>
        <time>2012-11-01T14:40:52.000Z</time>
      </trkpt>
      <trkpt lat="43.77864" lon="3.8087">
        <ele>674.7</ele>
        <time>2012-11-01T14:40:53.000Z</time>
      </trkpt>
      <trkpt lat="43.77863" lon="3.80876">
        <ele>674.7</ele>
        <time>2012-11-01T14:40:59.000Z</time>
      </trkpt>
      <trkpt lat="43.77863" lon="3.80877">
        <ele>674.7</ele>
        <time>2012-11-01T14:41:00.000Z</time>
      </trkpt>
      <trkpt lat="43.77864" lon="3.80883">
        <ele>674.7</ele>
        <time>2012-11-01T14:41:07.000Z</time>
      </trkpt>
      <trkpt lat="43.77865" lon="3.80883">
        <ele>674.8</ele>
        <time>2012-11-01T14:41:08.000Z</time>
      </trkpt>
      <trkpt lat="43.77867" lon="3.80887">
        <ele>674.8</ele>
        <time>2012-11-01T14:41:14.000Z</time>
      </trkpt>
      <trkpt lat="43.77868" lon="3.80888">
        <ele>674.8</ele>
        <time>2012-11-01T14:41:15.000Z</time>
      </trkpt>
      <trkpt lat="43.7787" lon="3.80893">
        <ele>674.9</ele>
        <time>2012-11-01T14:41:20.000Z</time>
      </trkpt>
      <trkpt lat="43.77871" lon="3.80893">
        <ele>674.9</ele>
        <time>2012-11-01T14:41:21.000Z</time>
      </trkpt>
      <trkpt lat="43.77872" lon="3.80898">
        <ele>675</ele>
        <time>2012-11-01T14:41:31.000Z</time>
      </trkpt>
      <trkpt lat="43.77872" lon="3.80899">
        <ele>675</ele>
        <time>2012-11-01T14:41:32.000Z</time>
      </trkpt>
      <trkpt lat="43.77873" lon="3.80904">
        <ele>675.2</ele>
        <time>2012-11-01T14:41:42.000Z</time>
      </trkpt>
      <trkpt lat="43.77873" lon="3.80905">
        <ele>675.2</ele>
        <time>2012-11-01T14:41:43.000Z</time>
      </trkpt>
      <trkpt lat="43.77873" lon="3.80911">
        <ele>675.3</ele>
        <time>2012-11-01T14:41:48.000Z</time>
      </trkpt>
      <trkpt lat="43.77873" lon="3.80912">
        <ele>675.3</ele>
        <time>2012-11-01T14:41:49.000Z</time>
      </trkpt>
      <trkpt lat="43.77872" lon="3.80917">
        <ele>675.4</ele>
        <time>2012-11-01T14:41:55.000Z</time>
      </trkpt>
      <trkpt lat="43.77872" lon="3.80918">
        <ele>675.4</ele>
        <time>2012-11-01T14:41:56.000Z</time>
      </trkpt>
      <trkpt lat="43.77874" lon="3.80924">
        <ele>675.5</ele>
        <time>2012-11-01T14:42:05.000Z</time>
      </trkpt>
      <trkpt lat="43.77874" lon="3.80924">
        <ele>675.5</ele>
        <time>2012-11-01T14:42:06.000Z</time>
      </trkpt>
      <trkpt lat="43.77878" lon="3.80927">
        <ele>675.8</ele>
        <time>2012-11-01T14:42:24.000Z</time>
      </trkpt>
      <trkpt lat="43.77878" lon="3.80927">
        <ele>675.8</ele>
        <time>2012-11-01T14:42:25.000Z</time>
      </trkpt>
      <trkpt lat="43.77881" lon="3.80932">
        <ele>677.4</ele>
        <time>2012-11-01T14:44:19.999Z</time>
      </trkpt>
      <trkpt lat="43.77881" lon="3.80932">
        <ele>677.4</ele>
        <time>2012-11-01T14:44:20.999Z</time>
      </trkpt>
      <trkpt lat="43.77877" lon="3.80933">
        <ele>677.1</ele>
        <time>2012-11-01T14:45:37.999Z</time>
      </trkpt>
      <trkpt lat="43.77876" lon="3.80933">
        <ele>677.1</ele>
        <time>2012-11-01T14:45:38.999Z</time>
      </trkpt>
      <trkpt lat="43.77872" lon="3.80933">
        <ele>677.2</ele>
        <time>2012-11-01T14:45:45.999Z</time>
      </trkpt>
      <trkpt lat="43.77871" lon="3.80933">
        <ele>677.2</ele>
        <time>2012-11-01T14:45:46.999Z</time>
      </trkpt>
      <trkpt lat="43.77868" lon="3.80934">
        <ele>677.2</ele>
        <time>2012-11-01T14:45:52.999Z</time>
      </trkpt>
      <trkpt lat="43.77867" lon="3.80934">
        <ele>677.2</ele>
        <time>2012-11-01T14:45:53.999Z</time>
      </trkpt>
      <trkpt lat="43.77864" lon="3.80938">
        <ele>677.2</ele>
        <time>2012-11-01T14:45:59.999Z</time>
      </trkpt>
      <trkpt lat="43.77864" lon="3.80939">
        <ele>677.2</ele>
        <time>2012-11-01T14:46:00.999Z</time>
      </trkpt>
      <trkpt lat="43.77865" lon="3.80945">
        <ele>677.1</ele>
        <time>2012-11-01T14:46:10.999Z</time>
      </trkpt>
      <trkpt lat="43.77865" lon="3.80945">
        <ele>677.1</ele>
        <time>2012-11-01T14:46:11.999Z</time>
      </trkpt>
      <trkpt lat="43.77865" lon="3.80951">
        <ele>677.1</ele>
        <time>2012-11-01T14:46:20.999Z</time>
      </trkpt>
      <trkpt lat="43.77865" lon="3.80952">
        <ele>677.1</ele>
        <time>2012-11-01T14:46:21.999Z</time>
      </trkpt>
      <trkpt lat="43.77863" lon="3.80956">
        <ele>677.1</ele>
        <time>2012-11-01T14:46:30.999Z</time>
      </trkpt>
      <trkpt lat="43.77862" lon="3.80957">
        <ele>677.1</ele>
        <time>2012-11-01T14:46:31.999Z</time>
      </trkpt>
      <trkpt lat="43.7786" lon="3.80962">
        <ele>677</ele>
        <time>2012-11-01T14:46:38.999Z</time>
      </trkpt>
      <trkpt lat="43.7786" lon="3.80963">
        <ele>677</ele>
        <time>2012-11-01T14:46:39.999Z</time>
      </trkpt>
      <trkpt lat="43.77858" lon="3.80968">
        <ele>676.9</ele>
        <time>2012-11-01T14:46:53.999Z</time>
      </trkpt>
      <trkpt lat="43.77858" lon="3.80968">
        <ele>676.9</ele>
        <time>2012-11-01T14:46:54.999Z</time>
      </trkpt>
      <trkpt lat="43.77859" lon="3.80974">
        <ele>676.6</ele>
        <time>2012-11-01T14:47:12.999Z</time>
      </trkpt>
      <trkpt lat="43.7786" lon="3.80974">
        <ele>676.6</ele>
        <time>2012-11-01T14:47:13.999Z</time>
      </trkpt>
      <trkpt lat="43.77858" lon="3.80979">
        <ele>676.4</ele>
        <time>2012-11-01T14:47:26.999Z</time>
      </trkpt>
      <trkpt lat="43.77858" lon="3.8098">
        <ele>676.4</ele>
        <time>2012-11-01T14:47:27.999Z</time>
      </trkpt>
      <trkpt lat="43.77856" lon="3.80985">
        <ele>676.3</ele>
        <time>2012-11-01T14:47:33.999Z</time>
      </trkpt>
      <trkpt lat="43.77856" lon="3.80986">
        <ele>676.3</ele>
        <time>2012-11-01T14:47:34.999Z</time>
      </trkpt>
      <trkpt lat="43.77855" lon="3.80992">
        <ele>676</ele>
        <time>2012-11-01T14:47:47.999Z</time>
      </trkpt>
      <trkpt lat="43.77855" lon="3.80992">
        <ele>676</ele>
        <time>2012-11-01T14:47:48.999Z</time>
      </trkpt>
      <trkpt lat="43.77854" lon="3.80998">
        <ele>673.6</ele>
        <time>2012-11-01T14:49:52.999Z</time>
      </trkpt>
      <trkpt lat="43.77854" lon="3.80999">
        <ele>673.6</ele>
        <time>2012-11-01T14:49:53.999Z</time>
      </trkpt>
      <trkpt lat="43.77854" lon="3.81005">
        <ele>673.4</ele>
        <time>2012-11-01T14:50:05.999Z</time>
      </trkpt>
      <trkpt lat="43.77854" lon="3.81005">
        <ele>673.4</ele>
        <time>2012-11-01T14:50:06.999Z</time>
      </trkpt>
      <trkpt lat="43.77853" lon="3.8101">
        <ele>670.1</ele>
        <time>2012-11-01T14:54:32.999Z</time>
      </trkpt>
      <trkpt lat="43.77853" lon="3.81011">
        <ele>670.1</ele>
        <time>2012-11-01T14:54:33.999Z</time>
      </trkpt>
      <trkpt lat="43.77853" lon="3.81016">
        <ele>670</ele>
        <time>2012-11-01T14:54:39.999Z</time>
      </trkpt>
      <trkpt lat="43.77853" lon="3.81018">
        <ele>670</ele>
        <time>2012-11-01T14:54:40.999Z</time>
      </trkpt>
      <trkpt lat="43.77851" lon="3.81024">
        <ele>670</ele>
        <time>2012-11-01T14:54:51.999Z</time>
      </trkpt>
      <trkpt lat="43.7785" lon="3.81024">
        <ele>670.1</ele>
        <time>2012-11-01T14:54:52.999Z</time>
      </trkpt>
      <trkpt lat="43.77848" lon="3.81029">
        <ele>670.1</ele>
        <time>2012-11-01T14:54:59.999Z</time>
      </trkpt>
      <trkpt lat="43.77848" lon="3.8103">
        <ele>670.1</ele>
        <time>2012-11-01T14:55:00.999Z</time>
      </trkpt>
      <trkpt lat="43.77848" lon="3.81035">
        <ele>670.1</ele>
        <time>2012-11-01T14:55:10.999Z</time>
      </trkpt>
      <trkpt lat="43.77848" lon="3.81036">
        <ele>670.1</ele>
        <time>2012-11-01T14:55:11.999Z</time>
      </trkpt>
      <trkpt lat="43.77847" lon="3.81041">
        <ele>670.1</ele>
        <time>2012-11-01T14:55:17.999Z</time>
      </trkpt>
      <trkpt lat="43.77847" lon="3.81042">
        <ele>670.1</ele>
        <time>2012-11-01T14:55:18.999Z</time>
      </trkpt>
      <trkpt lat="43.77846" lon="3.81048">
        <ele>670.3</ele>
        <time>2012-11-01T14:55:29.999Z</time>
      </trkpt>
      <trkpt lat="43.77846" lon="3.81048">
        <ele>670.3</ele>
        <time>2012-11-01T14:55:30.999Z</time>
      </trkpt>
      <trkpt lat="43.77846" lon="3.81054">
        <ele>670.3</ele>
        <time>2012-11-01T14:55:37.999Z</time>
      </trkpt>
      <trkpt lat="43.77846" lon="3.81055">
        <ele>670.3</ele>
        <time>2012-11-01T14:55:38.999Z</time>
      </trkpt>
      <trkpt lat="43.77845" lon="3.8106">
        <ele>670.3</ele>
        <time>2012-11-01T14:55:45.999Z</time>
      </trkpt>
      <trkpt lat="43.77844" lon="3.81062">
        <ele>670.4</ele>
        <time>2012-11-01T14:55:46.999Z</time>
      </trkpt>
      <trkpt lat="43.77845" lon="3.81068">
        <ele>670.6</ele>
        <time>2012-11-01T14:56:05.999Z</time>
      </trkpt>
      <trkpt lat="43.77845" lon="3.81068">
        <ele>670.6</ele>
        <time>2012-11-01T14:56:06.999Z</time>
      </trkpt>
      <trkpt lat="43.77846" lon="3.81074">
        <ele>670.8</ele>
        <time>2012-11-01T14:56:23.999Z</time>
      </trkpt>
      <trkpt lat="43.77846" lon="3.81074">
        <ele>670.9</ele>
        <time>2012-11-01T14:56:24.999Z</time>
      </trkpt>
      <trkpt lat="43.77848" lon="3.8108">
        <ele>671.1</ele>
        <time>2012-11-01T14:56:37.999Z</time>
      </trkpt>
      <trkpt lat="43.77848" lon="3.8108">
        <ele>671.1</ele>
        <time>2012-11-01T14:56:38.999Z</time>
      </trkpt>
      <trkpt lat="43.77849" lon="3.81086">
        <ele>671.4</ele>
        <time>2012-11-01T14:56:53.999Z</time>
      </trkpt>
      <trkpt lat="43.77849" lon="3.81087">
        <ele>671.4</ele>
        <time>2012-11-01T14:56:54.999Z</time>
      </trkpt>
      <trkpt lat="43.77851" lon="3.81092">
        <ele>672</ele>
        <time>2012-11-01T14:57:25.999Z</time>
      </trkpt>
      <trkpt lat="43.77851" lon="3.81092">
        <ele>672</ele>
        <time>2012-11-01T14:57:26.999Z</time>
      </trkpt>
      <trkpt lat="43.77855" lon="3.81095">
        <ele>673.3</ele>
        <time>2012-11-01T14:58:11.999Z</time>
      </trkpt>
      <trkpt lat="43.77855" lon="3.81095">
        <ele>673.3</ele>
        <time>2012-11-01T14:58:12.999Z</time>
      </trkpt>
      <trkpt lat="43.77858" lon="3.81099">
        <ele>673.7</ele>
        <time>2012-11-01T14:58:22.999Z</time>
      </trkpt>
      <trkpt lat="43.77859" lon="3.811">
        <ele>673.7</ele>
        <time>2012-11-01T14:58:23.999Z</time>
      </trkpt>
      <trkpt lat="43.77862" lon="3.81104">
        <ele>674.4</ele>
        <time>2012-11-01T14:58:41.999Z</time>
      </trkpt>
      <trkpt lat="43.77862" lon="3.81105">
        <ele>674.4</ele>
        <time>2012-11-01T14:58:42.999Z</time>
      </trkpt>
      <trkpt lat="43.77863" lon="3.8111">
        <ele>674.7</ele>
        <time>2012-11-01T14:58:51.999Z</time>
      </trkpt>
      <trkpt lat="43.77863" lon="3.81111">
        <ele>674.7</ele>
        <time>2012-11-01T14:58:52.999Z</time>
      </trkpt>
      <trkpt lat="43.77867" lon="3.8111">
        <ele>675.3</ele>
        <time>2012-11-01T14:59:09.999Z</time>
      </trkpt>
      <trkpt lat="43.77867" lon="3.81109">
        <ele>675.3</ele>
        <time>2012-11-01T14:59:10.999Z</time>
      </trkpt>
      <trkpt lat="43.77872" lon="3.81109">
        <ele>676.8</ele>
        <time>2012-11-01T14:59:43.999Z</time>
      </trkpt>
      <trkpt lat="43.77872" lon="3.81109">
        <ele>676.9</ele>
        <time>2012-11-01T14:59:44.999Z</time>
      </trkpt>
      <trkpt lat="43.77875" lon="3.81105">
        <ele>678</ele>
        <time>2012-11-01T15:00:08.999Z</time>
      </trkpt>
      <trkpt lat="43.77875" lon="3.81105">
        <ele>678.1</ele>
        <time>2012-11-01T15:00:09.999Z</time>
      </trkpt>
      <trkpt lat="43.77879" lon="3.81102">
        <ele>679</ele>
        <time>2012-11-01T15:00:26.999Z</time>
      </trkpt>
      <trkpt lat="43.77879" lon="3.81102">
        <ele>679</ele>
        <time>2012-11-01T15:00:27.999Z</time>
      </trkpt>
      <trkpt lat="43.77883" lon="3.81099">
        <ele>679.7</ele>
        <time>2012-11-01T15:00:40.999Z</time>
      </trkpt>
      <trkpt lat="43.77883" lon="3.81099">
        <ele>679.7</ele>
        <time>2012-11-01T15:00:41.999Z</time>
      </trkpt>
      <trkpt lat="43.77886" lon="3.81104">
        <ele>680.4</ele>
        <time>2012-11-01T15:00:53.999Z</time>
      </trkpt>
      <trkpt lat="43.77887" lon="3.81104">
        <ele>680.4</ele>
        <time>2012-11-01T15:00:54.999Z</time>
      </trkpt>
      <trkpt lat="43.77888" lon="3.8111">
        <ele>680.8</ele>
        <time>2012-11-01T15:01:01.999Z</time>
      </trkpt>
      <trkpt lat="43.77888" lon="3.8111">
        <ele>680.9</ele>
        <time>2012-11-01T15:01:02.999Z</time>
      </trkpt>
      <trkpt lat="43.77891" lon="3.81114">
        <ele>681.4</ele>
        <time>2012-11-01T15:01:11.999Z</time>
      </trkpt>
      <trkpt lat="43.77892" lon="3.81115">
        <ele>681.5</ele>
        <time>2012-11-01T15:01:12.999Z</time>
      </trkpt>
      <trkpt lat="43.77892" lon="3.8112">
        <ele>682.7</ele>
        <time>2012-11-01T15:01:35.999Z</time>
      </trkpt>
      <trkpt lat="43.77892" lon="3.81121">
        <ele>682.7</ele>
        <time>2012-11-01T15:01:36.999Z</time>
      </trkpt>
      <trkpt lat="43.77888" lon="3.81122">
        <ele>694.5</ele>
        <time>2012-11-01T15:06:07.000Z</time>
      </trkpt>
      <trkpt lat="43.77888" lon="3.81123">
        <ele>694.6</ele>
        <time>2012-11-01T15:06:08.000Z</time>
      </trkpt>
      <trkpt lat="43.77892" lon="3.81124">
        <ele>695.9</ele>
        <time>2012-11-01T15:06:52.000Z</time>
      </trkpt>
      <trkpt lat="43.77892" lon="3.81124">
        <ele>696</ele>
        <time>2012-11-01T15:06:53.000Z</time>
      </trkpt>
      <trkpt lat="43.77891" lon="3.81118">
        <ele>699.6</ele>
        <time>2012-11-01T15:09:16.000Z</time>
      </trkpt>
      <trkpt lat="43.77891" lon="3.81118">
        <ele>699.6</ele>
        <time>2012-11-01T15:09:17.000Z</time>
      </trkpt>
      <trkpt lat="43.77894" lon="3.81122">
        <ele>705.6</ele>
        <time>2012-11-01T15:20:16.000Z</time>
      </trkpt>
      <trkpt lat="43.77894" lon="3.81122">
        <ele>705.6</ele>
        <time>2012-11-01T15:20:17.000Z</time>
      </trkpt>
      <trkpt lat="43.77891" lon="3.81126">
        <ele>705.6</ele>
        <time>2012-11-01T15:20:24.999Z</time>
      </trkpt>
      <trkpt lat="43.77891" lon="3.81126">
        <ele>705.6</ele>
        <time>2012-11-01T15:20:25.999Z</time>
      </trkpt>
      <trkpt lat="43.77893" lon="3.81132">
        <ele>705.7</ele>
        <time>2012-11-01T15:21:52.999Z</time>
      </trkpt>
      <trkpt lat="43.77893" lon="3.81132">
        <ele>705.7</ele>
        <time>2012-11-01T15:21:53.999Z</time>
      </trkpt>
      <trkpt lat="43.77895" lon="3.81137">
        <ele>705.6</ele>
        <time>2012-11-01T15:22:01.999Z</time>
      </trkpt>
      <trkpt lat="43.77895" lon="3.81138">
        <ele>705.6</ele>
        <time>2012-11-01T15:22:02.999Z</time>
      </trkpt>
      <trkpt lat="43.77898" lon="3.81142">
        <ele>705.5</ele>
        <time>2012-11-01T15:22:09.999Z</time>
      </trkpt>
      <trkpt lat="43.77898" lon="3.81142">
        <ele>705.5</ele>
        <time>2012-11-01T15:22:10.999Z</time>
      </trkpt>
      <trkpt lat="43.77897" lon="3.81147">
        <ele>704.7</ele>
        <time>2012-11-01T15:22:51.999Z</time>
      </trkpt>
      <trkpt lat="43.77897" lon="3.81148">
        <ele>704.7</ele>
        <time>2012-11-01T15:22:52.999Z</time>
      </trkpt>
      <trkpt lat="43.77893" lon="3.81146">
        <ele>704.8</ele>
        <time>2012-11-01T15:23:01.999Z</time>
      </trkpt>
      <trkpt lat="43.77892" lon="3.81146">
        <ele>704.8</ele>
        <time>2012-11-01T15:23:02.999Z</time>
      </trkpt>
      <trkpt lat="43.77894" lon="3.81151">
        <ele>704.9</ele>
        <time>2012-11-01T15:23:25.999Z</time>
      </trkpt>
      <trkpt lat="43.77894" lon="3.81151">
        <ele>704.9</ele>
        <time>2012-11-01T15:23:26.999Z</time>
      </trkpt>
      <trkpt lat="43.77895" lon="3.81157">
        <ele>704.9</ele>
        <time>2012-11-01T15:23:33.999Z</time>
      </trkpt>
      <trkpt lat="43.77895" lon="3.81158">
        <ele>704.9</ele>
        <time>2012-11-01T15:23:34.999Z</time>
      </trkpt>
      <trkpt lat="43.77898" lon="3.81163">
        <ele>705</ele>
        <time>2012-11-01T15:23:41.999Z</time>
      </trkpt>
      <trkpt lat="43.77898" lon="3.81164">
        <ele>705</ele>
        <time>2012-11-01T15:23:42.999Z</time>
      </trkpt>
      <trkpt lat="43.779" lon="3.81169">
        <ele>705</ele>
        <time>2012-11-01T15:23:50.999Z</time>
      </trkpt>
      <trkpt lat="43.779" lon="3.81169">
        <ele>705</ele>
        <time>2012-11-01T15:23:51.999Z</time>
      </trkpt>
      <trkpt lat="43.77904" lon="3.81173">
        <ele>705.2</ele>
        <time>2012-11-01T15:24:03.999Z</time>
      </trkpt>
      <trkpt lat="43.77904" lon="3.81173">
        <ele>705.2</ele>
        <time>2012-11-01T15:24:04.999Z</time>
      </trkpt>
      <trkpt lat="43.77907" lon="3.81178">
        <ele>705.7</ele>
        <time>2012-11-01T15:24:57.999Z</time>
      </trkpt>
      <trkpt lat="43.77907" lon="3.81178">
        <ele>705.7</ele>
        <time>2012-11-01T15:24:58.999Z</time>
      </trkpt>
      <trkpt lat="43.77906" lon="3.81172">
        <ele>707.5</ele>
        <time>2012-11-01T15:27:48.999Z</time>
      </trkpt>
      <trkpt lat="43.77906" lon="3.81172">
        <ele>707.5</ele>
        <time>2012-11-01T15:27:49.999Z</time>
      </trkpt>
      <trkpt lat="43.77906" lon="3.81166">
        <ele>707.5</ele>
        <time>2012-11-01T15:27:58.999Z</time>
      </trkpt>
      <trkpt lat="43.77906" lon="3.81165">
        <ele>707.5</ele>
        <time>2012-11-01T15:27:59.999Z</time>
      </trkpt>
      <trkpt lat="43.77903" lon="3.81161">
        <ele>707.5</ele>
        <time>2012-11-01T15:28:20.999Z</time>
      </trkpt>
      <trkpt lat="43.77902" lon="3.8116">
        <ele>707.5</ele>
        <time>2012-11-01T15:28:21.999Z</time>
      </trkpt>
      <trkpt lat="43.77898" lon="3.81157">
        <ele>707.7</ele>
        <time>2012-11-01T15:28:39.999Z</time>
      </trkpt>
      <trkpt lat="43.77898" lon="3.81157">
        <ele>707.7</ele>
        <time>2012-11-01T15:28:40.999Z</time>
      </trkpt>
      <trkpt lat="43.77902" lon="3.81156">
        <ele>708.2</ele>
        <time>2012-11-01T15:29:43.999Z</time>
      </trkpt>
      <trkpt lat="43.77903" lon="3.81156">
        <ele>708.2</ele>
        <time>2012-11-01T15:29:44.999Z</time>
      </trkpt>
      <trkpt lat="43.77901" lon="3.8115">
        <ele>708.2</ele>
        <time>2012-11-01T15:30:10.999Z</time>
      </trkpt>
      <trkpt lat="43.77901" lon="3.81149">
        <ele>708.2</ele>
        <time>2012-11-01T15:30:11.999Z</time>
      </trkpt>
      <trkpt lat="43.77901" lon="3.81143">
        <ele>708.2</ele>
        <time>2012-11-01T15:30:18.999Z</time>
      </trkpt>
      <trkpt lat="43.77901" lon="3.81143">
        <ele>708.2</ele>
        <time>2012-11-01T15:30:19.999Z</time>
      </trkpt>
      <trkpt lat="43.77897" lon="3.81144">
        <ele>708.2</ele>
        <time>2012-11-01T15:30:32.999Z</time>
      </trkpt>
      <trkpt lat="43.77896" lon="3.81145">
        <ele>708.2</ele>
        <time>2012-11-01T15:30:33.999Z</time>
      </trkpt>
      <trkpt lat="43.77895" lon="3.8115">
        <ele>708.1</ele>
        <time>2012-11-01T15:30:41.999Z</time>
      </trkpt>
      <trkpt lat="43.77894" lon="3.81151">
        <ele>708.1</ele>
        <time>2012-11-01T15:30:42.999Z</time>
      </trkpt>
      <trkpt lat="43.7789" lon="3.81148">
        <ele>708.1</ele>
        <time>2012-11-01T15:30:52.999Z</time>
      </trkpt>
      <trkpt lat="43.7789" lon="3.81149">
        <ele>708.1</ele>
        <time>2012-11-01T15:30:53.999Z</time>
      </trkpt>
      <trkpt lat="43.77886" lon="3.81151">
        <ele>708</ele>
        <time>2012-11-01T15:30:57.999Z</time>
      </trkpt>
      <trkpt lat="43.77885" lon="3.81152">
        <ele>708</ele>
        <time>2012-11-01T15:30:58.999Z</time>
      </trkpt>
      <trkpt lat="43.77883" lon="3.81156">
        <ele>707.9</ele>
        <time>2012-11-01T15:31:06.999Z</time>
      </trkpt>
      <trkpt lat="43.77882" lon="3.81157">
        <ele>707.9</ele>
        <time>2012-11-01T15:31:07.999Z</time>
      </trkpt>
      <trkpt lat="43.7788" lon="3.81163">
        <ele>707.8</ele>
        <time>2012-11-01T15:31:15.999Z</time>
      </trkpt>
      <trkpt lat="43.7788" lon="3.81163">
        <ele>707.8</ele>
        <time>2012-11-01T15:31:16.999Z</time>
      </trkpt>
      <trkpt lat="43.77877" lon="3.81159">
        <ele>706.8</ele>
        <time>2012-11-01T15:31:54.999Z</time>
      </trkpt>
      <trkpt lat="43.77877" lon="3.81159">
        <ele>706.7</ele>
        <time>2012-11-01T15:31:55.999Z</time>
      </trkpt>
      <trkpt lat="43.77873" lon="3.81155">
        <ele>706.5</ele>
        <time>2012-11-01T15:32:03.999Z</time>
      </trkpt>
      <trkpt lat="43.77873" lon="3.81155">
        <ele>706.4</ele>
        <time>2012-11-01T15:32:04.999Z</time>
      </trkpt>
      <trkpt lat="43.77868" lon="3.81156">
        <ele>705.9</ele>
        <time>2012-11-01T15:32:14.999Z</time>
      </trkpt>
      <trkpt lat="43.77868" lon="3.81156">
        <ele>705.9</ele>
        <time>2012-11-01T15:32:15.999Z</time>
      </trkpt>
      <trkpt lat="43.77863" lon="3.81158">
        <ele>705.7</ele>
        <time>2012-11-01T15:32:20.999Z</time>
      </trkpt>
      <trkpt lat="43.77863" lon="3.81158">
        <ele>705.6</ele>
        <time>2012-11-01T15:32:21.999Z</time>
      </trkpt>
      <trkpt lat="43.77859" lon="3.81159">
        <ele>705.2</ele>
        <time>2012-11-01T15:32:31.999Z</time>
      </trkpt>
      <trkpt lat="43.77858" lon="3.81158">
        <ele>705.2</ele>
        <time>2012-11-01T15:32:32.999Z</time>
      </trkpt>
      <trkpt lat="43.77854" lon="3.81158">
        <ele>705</ele>
        <time>2012-11-01T15:32:38.999Z</time>
      </trkpt>
      <trkpt lat="43.77854" lon="3.81158">
        <ele>704.9</ele>
        <time>2012-11-01T15:32:39.999Z</time>
      </trkpt>
      <trkpt lat="43.7785" lon="3.81162">
        <ele>704.2</ele>
        <time>2012-11-01T15:32:57.999Z</time>
      </trkpt>
      <trkpt lat="43.7785" lon="3.81162">
        <ele>704.2</ele>
        <time>2012-11-01T15:32:58.999Z</time>
      </trkpt>
      <trkpt lat="43.77852" lon="3.81168">
        <ele>703.8</ele>
        <time>2012-11-01T15:33:06.999Z</time>
      </trkpt>
      <trkpt lat="43.77852" lon="3.81168">
        <ele>703.8</ele>
        <time>2012-11-01T15:33:07.999Z</time>
      </trkpt>
      <trkpt lat="43.77853" lon="3.81174">
        <ele>703.3</ele>
        <time>2012-11-01T15:33:16.999Z</time>
      </trkpt>
      <trkpt lat="43.77853" lon="3.81175">
        <ele>703.3</ele>
        <time>2012-11-01T15:33:17.999Z</time>
      </trkpt>
      <trkpt lat="43.77853" lon="3.8118">
        <ele>703</ele>
        <time>2012-11-01T15:33:22.999Z</time>
      </trkpt>
      <trkpt lat="43.77853" lon="3.81181">
        <ele>703</ele>
        <time>2012-11-01T15:33:23.999Z</time>
      </trkpt>
      <trkpt lat="43.77852" lon="3.81187">
        <ele>702.7</ele>
        <time>2012-11-01T15:33:29.999Z</time>
      </trkpt>
      <trkpt lat="43.77852" lon="3.81188">
        <ele>702.6</ele>
        <time>2012-11-01T15:33:30.999Z</time>
      </trkpt>
      <trkpt lat="43.77852" lon="3.81194">
        <ele>702.4</ele>
        <time>2012-11-01T15:33:36.999Z</time>
      </trkpt>
      <trkpt lat="43.77852" lon="3.81195">
        <ele>702.3</ele>
        <time>2012-11-01T15:33:37.999Z</time>
      </trkpt>
      <trkpt lat="43.77852" lon="3.812">
        <ele>702</ele>
        <time>2012-11-01T15:33:44.999Z</time>
      </trkpt>
      <trkpt lat="43.77852" lon="3.81201">
        <ele>702</ele>
        <time>2012-11-01T15:33:45.999Z</time>
      </trkpt>
      <trkpt lat="43.77853" lon="3.81207">
        <ele>701.7</ele>
        <time>2012-11-01T15:33:52.999Z</time>
      </trkpt>
      <trkpt lat="43.77853" lon="3.81207">
        <ele>701.6</ele>
        <time>2012-11-01T15:33:53.999Z</time>
      </trkpt>
      <trkpt lat="43.77854" lon="3.81213">
        <ele>701.1</ele>
        <time>2012-11-01T15:34:04.999Z</time>
      </trkpt>
      <trkpt lat="43.77854" lon="3.81214">
        <ele>701.1</ele>
        <time>2012-11-01T15:34:05.999Z</time>
      </trkpt>
      <trkpt lat="43.77853" lon="3.8122">
        <ele>700.6</ele>
        <time>2012-11-01T15:34:12.999Z</time>
      </trkpt>
      <trkpt lat="43.77853" lon="3.8122">
        <ele>700.6</ele>
        <time>2012-11-01T15:34:13.999Z</time>
      </trkpt>
      <trkpt lat="43.77852" lon="3.81226">
        <ele>700.2</ele>
        <time>2012-11-01T15:34:20.999Z</time>
      </trkpt>
      <trkpt lat="43.77852" lon="3.81227">
        <ele>700.1</ele>
        <time>2012-11-01T15:34:21.999Z</time>
      </trkpt>
      <trkpt lat="43.77849" lon="3.81231">
        <ele>698.4</ele>
        <time>2012-11-01T15:34:49.999Z</time>
      </trkpt>
      <trkpt lat="43.77849" lon="3.81231">
        <ele>698.3</ele>
        <time>2012-11-01T15:34:50.999Z</time>
      </trkpt>
      <trkpt lat="43.77845" lon="3.81233">
        <ele>697.6</ele>
        <time>2012-11-01T15:35:02.999Z</time>
      </trkpt>
      <trkpt lat="43.77845" lon="3.81234">
        <ele>697.5</ele>
        <time>2012-11-01T15:35:03.999Z</time>
      </trkpt>
      <trkpt lat="43.77843" lon="3.81239">
        <ele>696.9</ele>
        <time>2012-11-01T15:35:14.999Z</time>
      </trkpt>
      <trkpt lat="43.77842" lon="3.81239">
        <ele>696.8</ele>
        <time>2012-11-01T15:35:15.999Z</time>
      </trkpt>
      <trkpt lat="43.77838" lon="3.81238">
        <ele>695.9</ele>
        <time>2012-11-01T15:35:29.999Z</time>
      </trkpt>
      <trkpt lat="43.77838" lon="3.81237">
        <ele>695.8</ele>
        <time>2012-11-01T15:35:30.999Z</time>
      </trkpt>
      <trkpt lat="43.77835" lon="3.81234">
        <ele>695.1</ele>
        <time>2012-11-01T15:35:41.999Z</time>
      </trkpt>
      <trkpt lat="43.77834" lon="3.81233">
        <ele>695</ele>
        <time>2012-11-01T15:35:42.999Z</time>
      </trkpt>
      <trkpt lat="43.7783" lon="3.81235">
        <ele>693.6</ele>
        <time>2012-11-01T15:36:01.999Z</time>
      </trkpt>
      <trkpt lat="43.7783" lon="3.81235">
        <ele>693.5</ele>
        <time>2012-11-01T15:36:02.999Z</time>
      </trkpt>
      <trkpt lat="43.77826" lon="3.81233">
        <ele>692.7</ele>
        <time>2012-11-01T15:36:13.999Z</time>
      </trkpt>
      <trkpt lat="43.77825" lon="3.81233">
        <ele>692.7</ele>
        <time>2012-11-01T15:36:14.999Z</time>
      </trkpt>
      <trkpt lat="43.77821" lon="3.81235">
        <ele>691.4</ele>
        <time>2012-11-01T15:36:31.999Z</time>
      </trkpt>
      <trkpt lat="43.77821" lon="3.81235">
        <ele>691.4</ele>
        <time>2012-11-01T15:36:32.999Z</time>
      </trkpt>
      <trkpt lat="43.77817" lon="3.81238">
        <ele>689.8</ele>
        <time>2012-11-01T15:36:54.999Z</time>
      </trkpt>
      <trkpt lat="43.77817" lon="3.81238">
        <ele>689.7</ele>
        <time>2012-11-01T15:36:55.999Z</time>
      </trkpt>
      <trkpt lat="43.77813" lon="3.81241">
        <ele>687.9</ele>
        <time>2012-11-01T15:37:18.999Z</time>
      </trkpt>
      <trkpt lat="43.77813" lon="3.81242">
        <ele>687.8</ele>
        <time>2012-11-01T15:37:19.999Z</time>
      </trkpt>
      <trkpt lat="43.77811" lon="3.81248">
        <ele>686.7</ele>
        <time>2012-11-01T15:37:34.999Z</time>
      </trkpt>
      <trkpt lat="43.77811" lon="3.81248">
        <ele>686.6</ele>
        <time>2012-11-01T15:37:35.999Z</time>
      </trkpt>
      <trkpt lat="43.77807" lon="3.81246">
        <ele>685.4</ele>
        <time>2012-11-01T15:37:49.999Z</time>
      </trkpt>
      <trkpt lat="43.77807" lon="3.81245">
        <ele>685.3</ele>
        <time>2012-11-01T15:37:50.999Z</time>
      </trkpt>
      <trkpt lat="43.77805" lon="3.8124">
        <ele>684.6</ele>
        <time>2012-11-01T15:37:58.999Z</time>
      </trkpt>
      <trkpt lat="43.77804" lon="3.81239">
        <ele>684.5</ele>
        <time>2012-11-01T15:37:59.999Z</time>
      </trkpt>
      <trkpt lat="43.77802" lon="3.81234">
        <ele>683.9</ele>
        <time>2012-11-01T15:38:06.999Z</time>
      </trkpt>
      <trkpt lat="43.77802" lon="3.81233">
        <ele>683.9</ele>
        <time>2012-11-01T15:38:07.999Z</time>
      </trkpt>
      <trkpt lat="43.778" lon="3.81228">
        <ele>683.4</ele>
        <time>2012-11-01T15:38:13.999Z</time>
      </trkpt>
      <trkpt lat="43.77799" lon="3.81227">
        <ele>683.3</ele>
        <time>2012-11-01T15:38:14.999Z</time>
      </trkpt>
      <trkpt lat="43.77796" lon="3.81222">
        <ele>682.5</ele>
        <time>2012-11-01T15:38:25.999Z</time>
      </trkpt>
      <trkpt lat="43.77796" lon="3.81222">
        <ele>682.4</ele>
        <time>2012-11-01T15:38:26.999Z</time>
      </trkpt>
      <trkpt lat="43.77795" lon="3.81227">
        <ele>681.7</ele>
        <time>2012-11-01T15:38:35.999Z</time>
      </trkpt>
      <trkpt lat="43.77795" lon="3.81228">
        <ele>681.6</ele>
        <time>2012-11-01T15:38:36.999Z</time>
      </trkpt>
      <trkpt lat="43.77795" lon="3.81234">
        <ele>681.1</ele>
        <time>2012-11-01T15:38:43.000Z</time>
      </trkpt>
      <trkpt lat="43.77795" lon="3.81235">
        <ele>681</ele>
        <time>2012-11-01T15:38:44.000Z</time>
      </trkpt>
      <trkpt lat="43.77795" lon="3.8124">
        <ele>680.6</ele>
        <time>2012-11-01T15:38:49.000Z</time>
      </trkpt>
      <trkpt lat="43.77795" lon="3.81242">
        <ele>680.5</ele>
        <time>2012-11-01T15:38:50.000Z</time>
      </trkpt>
      <trkpt lat="43.77795" lon="3.81247">
        <ele>680.1</ele>
        <time>2012-11-01T15:38:55.000Z</time>
      </trkpt>
      <trkpt lat="43.77794" lon="3.81248">
        <ele>680</ele>
        <time>2012-11-01T15:38:56.000Z</time>
      </trkpt>
      <trkpt lat="43.77794" lon="3.81253">
        <ele>679.8</ele>
        <time>2012-11-01T15:39:00.000Z</time>
      </trkpt>
      <trkpt lat="43.77793" lon="3.81254">
        <ele>679.7</ele>
        <time>2012-11-01T15:39:01.000Z</time>
      </trkpt>
      <trkpt lat="43.77793" lon="3.81259">
        <ele>679.4</ele>
        <time>2012-11-01T15:39:04.000Z</time>
      </trkpt>
      <trkpt lat="43.77793" lon="3.81261">
        <ele>679.4</ele>
        <time>2012-11-01T15:39:05.000Z</time>
      </trkpt>
      <trkpt lat="43.77793" lon="3.81267">
        <ele>678.9</ele>
        <time>2012-11-01T15:39:10.000Z</time>
      </trkpt>
      <trkpt lat="43.77793" lon="3.81268">
        <ele>678.9</ele>
        <time>2012-11-01T15:39:11.000Z</time>
      </trkpt>
      <trkpt lat="43.77793" lon="3.81274">
        <ele>678.4</ele>
        <time>2012-11-01T15:39:17.000Z</time>
      </trkpt>
      <trkpt lat="43.77793" lon="3.81274">
        <ele>678.3</ele>
        <time>2012-11-01T15:39:18.000Z</time>
      </trkpt>
      <trkpt lat="43.77791" lon="3.8128">
        <ele>677.6</ele>
        <time>2012-11-01T15:39:26.000Z</time>
      </trkpt>
      <trkpt lat="43.77791" lon="3.81281">
        <ele>677.5</ele>
        <time>2012-11-01T15:39:27.000Z</time>
      </trkpt>
      <trkpt lat="43.77787" lon="3.81277">
        <ele>675</ele>
        <time>2012-11-01T15:39:56.000Z</time>
      </trkpt>
      <trkpt lat="43.77787" lon="3.81277">
        <ele>674.9</ele>
        <time>2012-11-01T15:39:57.000Z</time>
      </trkpt>
      <trkpt lat="43.77786" lon="3.8127">
        <ele>674.2</ele>
        <time>2012-11-01T15:40:05.000Z</time>
      </trkpt>
      <trkpt lat="43.77786" lon="3.8127">
        <ele>674.1</ele>
        <time>2012-11-01T15:40:06.000Z</time>
      </trkpt>
      <trkpt lat="43.77782" lon="3.81271">
        <ele>672</ele>
        <time>2012-11-01T15:40:28.000Z</time>
      </trkpt>
      <trkpt lat="43.77781" lon="3.81271">
        <ele>671.9</ele>
        <time>2012-11-01T15:40:29.000Z</time>
      </trkpt>
      <trkpt lat="43.77779" lon="3.81277">
        <ele>670.9</ele>
        <time>2012-11-01T15:40:38.000Z</time>
      </trkpt>
      <trkpt lat="43.77779" lon="3.81277">
        <ele>670.8</ele>
        <time>2012-11-01T15:40:39.000Z</time>
      </trkpt>
      <trkpt lat="43.77777" lon="3.81282">
        <ele>670.1</ele>
        <time>2012-11-01T15:40:46.000Z</time>
      </trkpt>
      <trkpt lat="43.77777" lon="3.81283">
        <ele>670</ele>
        <time>2012-11-01T15:40:47.000Z</time>
      </trkpt>
      <trkpt lat="43.77775" lon="3.81288">
        <ele>669.2</ele>
        <time>2012-11-01T15:40:54.000Z</time>
      </trkpt>
      <trkpt lat="43.77774" lon="3.81289">
        <ele>669.1</ele>
        <time>2012-11-01T15:40:55.000Z</time>
      </trkpt>
      <trkpt lat="43.77772" lon="3.81294">
        <ele>668.5</ele>
        <time>2012-11-01T15:41:02.000Z</time>
      </trkpt>
      <trkpt lat="43.77772" lon="3.81295">
        <ele>668.4</ele>
        <time>2012-11-01T15:41:03.000Z</time>
      </trkpt>
      <trkpt lat="43.77768" lon="3.81299">
        <ele>667.9</ele>
        <time>2012-11-01T15:41:09.000Z</time>
      </trkpt>
      <trkpt lat="43.77768" lon="3.813">
        <ele>667.8</ele>
        <time>2012-11-01T15:41:10.000Z</time>
      </trkpt>
      <trkpt lat="43.77764" lon="3.81298">
        <ele>666.1</ele>
        <time>2012-11-01T15:41:29.000Z</time>
      </trkpt>
      <trkpt lat="43.77764" lon="3.81298">
        <ele>666</ele>
        <time>2012-11-01T15:41:30.000Z</time>
      </trkpt>
      <trkpt lat="43.7776" lon="3.813">
        <ele>664.8</ele>
        <time>2012-11-01T15:41:43.000Z</time>
      </trkpt>
      <trkpt lat="43.77759" lon="3.81301">
        <ele>664.7</ele>
        <time>2012-11-01T15:41:44.000Z</time>
      </trkpt>
      <trkpt lat="43.77758" lon="3.81307">
        <ele>664</ele>
        <time>2012-11-01T15:41:52.000Z</time>
      </trkpt>
      <trkpt lat="43.77758" lon="3.81307">
        <ele>663.9</ele>
        <time>2012-11-01T15:41:53.000Z</time>
      </trkpt>
      <trkpt lat="43.77756" lon="3.81313">
        <ele>663.1</ele>
        <time>2012-11-01T15:42:01.000Z</time>
      </trkpt>
      <trkpt lat="43.77756" lon="3.81314">
        <ele>663</ele>
        <time>2012-11-01T15:42:02.000Z</time>
      </trkpt>
      <trkpt lat="43.77754" lon="3.81319">
        <ele>662.5</ele>
        <time>2012-11-01T15:42:08.000Z</time>
      </trkpt>
      <trkpt lat="43.77754" lon="3.8132">
        <ele>662.4</ele>
        <time>2012-11-01T15:42:09.000Z</time>
      </trkpt>
      <trkpt lat="43.77753" lon="3.81325">
        <ele>661.6</ele>
        <time>2012-11-01T15:42:17.000Z</time>
      </trkpt>
      <trkpt lat="43.77753" lon="3.81326">
        <ele>661.5</ele>
        <time>2012-11-01T15:42:18.000Z</time>
      </trkpt>
      <trkpt lat="43.77752" lon="3.81331">
        <ele>660.8</ele>
        <time>2012-11-01T15:42:26.000Z</time>
      </trkpt>
      <trkpt lat="43.77751" lon="3.81332">
        <ele>660.7</ele>
        <time>2012-11-01T15:42:27.000Z</time>
      </trkpt>
      <trkpt lat="43.7775" lon="3.81337">
        <ele>660.1</ele>
        <time>2012-11-01T15:42:33.000Z</time>
      </trkpt>
      <trkpt lat="43.7775" lon="3.81338">
        <ele>660</ele>
        <time>2012-11-01T15:42:34.000Z</time>
      </trkpt>
      <trkpt lat="43.77748" lon="3.81343">
        <ele>659.1</ele>
        <time>2012-11-01T15:42:43.000Z</time>
      </trkpt>
      <trkpt lat="43.77748" lon="3.81343">
        <ele>659</ele>
        <time>2012-11-01T15:42:44.000Z</time>
      </trkpt>
      <trkpt lat="43.77746" lon="3.81348">
        <ele>658.1</ele>
        <time>2012-11-01T15:42:55.000Z</time>
      </trkpt>
      <trkpt lat="43.77745" lon="3.81349">
        <ele>658</ele>
        <time>2012-11-01T15:42:56.000Z</time>
      </trkpt>
      <trkpt lat="43.77745" lon="3.81354">
        <ele>657.5</ele>
        <time>2012-11-01T15:43:02.000Z</time>
      </trkpt>
      <trkpt lat="43.77745" lon="3.81355">
        <ele>657.5</ele>
        <time>2012-11-01T15:43:03.000Z</time>
      </trkpt>
      <trkpt lat="43.77745" lon="3.81361">
        <ele>656.9</ele>
        <time>2012-11-01T15:43:09.000Z</time>
      </trkpt>
      <trkpt lat="43.77745" lon="3.81361">
        <ele>656.8</ele>
        <time>2012-11-01T15:43:10.000Z</time>
      </trkpt>
      <trkpt lat="43.77744" lon="3.81367">
        <ele>656.1</ele>
        <time>2012-11-01T15:43:19.000Z</time>
      </trkpt>
      <trkpt lat="43.77744" lon="3.81367">
        <ele>656</ele>
        <time>2012-11-01T15:43:20.000Z</time>
      </trkpt>
      <trkpt lat="43.77742" lon="3.81373">
        <ele>654.9</ele>
        <time>2012-11-01T15:43:34.000Z</time>
      </trkpt>
      <trkpt lat="43.77741" lon="3.81373">
        <ele>654.8</ele>
        <time>2012-11-01T15:43:35.000Z</time>
      </trkpt>
      <trkpt lat="43.77741" lon="3.81379">
        <ele>653.2</ele>
        <time>2012-11-01T15:43:54.000Z</time>
      </trkpt>
      <trkpt lat="43.77741" lon="3.81379">
        <ele>653.1</ele>
        <time>2012-11-01T15:43:55.000Z</time>
      </trkpt>
      <trkpt lat="43.77737" lon="3.81377">
        <ele>650.8</ele>
        <time>2012-11-01T15:44:19.000Z</time>
      </trkpt>
      <trkpt lat="43.77736" lon="3.81376">
        <ele>650.7</ele>
        <time>2012-11-01T15:44:20.000Z</time>
      </trkpt>
      <trkpt lat="43.77735" lon="3.81371">
        <ele>649.6</ele>
        <time>2012-11-01T15:44:31.000Z</time>
      </trkpt>
      <trkpt lat="43.77735" lon="3.8137">
        <ele>649.5</ele>
        <time>2012-11-01T15:44:32.000Z</time>
      </trkpt>
      <trkpt lat="43.77731" lon="3.81367">
        <ele>646.8</ele>
        <time>2012-11-01T15:45:01.000Z</time>
      </trkpt>
      <trkpt lat="43.77731" lon="3.81367">
        <ele>646.7</ele>
        <time>2012-11-01T15:45:02.000Z</time>
      </trkpt>
      <trkpt lat="43.77726" lon="3.81368">
        <ele>645.2</ele>
        <time>2012-11-01T15:45:17.000Z</time>
      </trkpt>
      <trkpt lat="43.77726" lon="3.81369">
        <ele>645.1</ele>
        <time>2012-11-01T15:45:18.000Z</time>
      </trkpt>
      <trkpt lat="43.77722" lon="3.81371">
        <ele>644.2</ele>
        <time>2012-11-01T15:45:27.000Z</time>
      </trkpt>
      <trkpt lat="43.77722" lon="3.81371">
        <ele>644.1</ele>
        <time>2012-11-01T15:45:28.000Z</time>
      </trkpt>
      <trkpt lat="43.77718" lon="3.81373">
        <ele>642.8</ele>
        <time>2012-11-01T15:45:41.000Z</time>
      </trkpt>
      <trkpt lat="43.77717" lon="3.81373">
        <ele>642.7</ele>
        <time>2012-11-01T15:45:42.000Z</time>
      </trkpt>
      <trkpt lat="43.77713" lon="3.81374">
        <ele>641.8</ele>
        <time>2012-11-01T15:45:50.000Z</time>
      </trkpt>
      <trkpt lat="43.77712" lon="3.81374">
        <ele>641.7</ele>
        <time>2012-11-01T15:45:51.000Z</time>
      </trkpt>
      <trkpt lat="43.77708" lon="3.81373">
        <ele>641.1</ele>
        <time>2012-11-01T15:45:58.000Z</time>
      </trkpt>
      <trkpt lat="43.77708" lon="3.81373">
        <ele>641</ele>
        <time>2012-11-01T15:45:59.000Z</time>
      </trkpt>
      <trkpt lat="43.77704" lon="3.81375">
        <ele>640.5</ele>
        <time>2012-11-01T15:46:04.000Z</time>
      </trkpt>
      <trkpt lat="43.77703" lon="3.81375">
        <ele>640.4</ele>
        <time>2012-11-01T15:46:05.000Z</time>
      </trkpt>
      <trkpt lat="43.77699" lon="3.81374">
        <ele>639.6</ele>
        <time>2012-11-01T15:46:13.000Z</time>
      </trkpt>
      <trkpt lat="43.77698" lon="3.81374">
        <ele>639.5</ele>
        <time>2012-11-01T15:46:14.000Z</time>
      </trkpt>
      <trkpt lat="43.77694" lon="3.81373">
        <ele>638</ele>
        <time>2012-11-01T15:46:29.000Z</time>
      </trkpt>
      <trkpt lat="43.77694" lon="3.81373">
        <ele>637.9</ele>
        <time>2012-11-01T15:46:30.000Z</time>
      </trkpt>
      <trkpt lat="43.7769" lon="3.81372">
        <ele>637.1</ele>
        <time>2012-11-01T15:46:37.000Z</time>
      </trkpt>
      <trkpt lat="43.77689" lon="3.81371">
        <ele>637</ele>
        <time>2012-11-01T15:46:38.000Z</time>
      </trkpt>
      <trkpt lat="43.77685" lon="3.81372">
        <ele>636.3</ele>
        <time>2012-11-01T15:46:44.000Z</time>
      </trkpt>
      <trkpt lat="43.77685" lon="3.81371">
        <ele>636.2</ele>
        <time>2012-11-01T15:46:45.000Z</time>
      </trkpt>
      <trkpt lat="43.7768" lon="3.8137">
        <ele>635.4</ele>
        <time>2012-11-01T15:46:52.000Z</time>
      </trkpt>
      <trkpt lat="43.77679" lon="3.8137">
        <ele>635.3</ele>
        <time>2012-11-01T15:46:53.000Z</time>
      </trkpt>
      <trkpt lat="43.77676" lon="3.81366">
        <ele>634.6</ele>
        <time>2012-11-01T15:46:59.000Z</time>
      </trkpt>
      <trkpt lat="43.77675" lon="3.81365">
        <ele>634.4</ele>
        <time>2012-11-01T15:47:00.000Z</time>
      </trkpt>
      <trkpt lat="43.77673" lon="3.8136">
        <ele>633.7</ele>
        <time>2012-11-01T15:47:06.000Z</time>
      </trkpt>
      <trkpt lat="43.77673" lon="3.81359">
        <ele>633.6</ele>
        <time>2012-11-01T15:47:07.000Z</time>
      </trkpt>
      <trkpt lat="43.77672" lon="3.81354">
        <ele>633</ele>
        <time>2012-11-01T15:47:12.000Z</time>
      </trkpt>
      <trkpt lat="43.77672" lon="3.81353">
        <ele>632.9</ele>
        <time>2012-11-01T15:47:13.000Z</time>
      </trkpt>
      <trkpt lat="43.77671" lon="3.81347">
        <ele>632.3</ele>
        <time>2012-11-01T15:47:18.000Z</time>
      </trkpt>
      <trkpt lat="43.77671" lon="3.81346">
        <ele>632.2</ele>
        <time>2012-11-01T15:47:19.000Z</time>
      </trkpt>
      <trkpt lat="43.7767" lon="3.8134">
        <ele>631.7</ele>
        <time>2012-11-01T15:47:23.000Z</time>
      </trkpt>
      <trkpt lat="43.7767" lon="3.81339">
        <ele>631.5</ele>
        <time>2012-11-01T15:47:24.000Z</time>
      </trkpt>
      <trkpt lat="43.7767" lon="3.81334">
        <ele>631.1</ele>
        <time>2012-11-01T15:47:28.000Z</time>
      </trkpt>
      <trkpt lat="43.7767" lon="3.81332">
        <ele>631</ele>
        <time>2012-11-01T15:47:29.000Z</time>
      </trkpt>
      <trkpt lat="43.7767" lon="3.81327">
        <ele>630.5</ele>
        <time>2012-11-01T15:47:33.000Z</time>
      </trkpt>
      <trkpt lat="43.7767" lon="3.81325">
        <ele>630.4</ele>
        <time>2012-11-01T15:47:34.000Z</time>
      </trkpt>
      <trkpt lat="43.7767" lon="3.8132">
        <ele>629.9</ele>
        <time>2012-11-01T15:47:38.000Z</time>
      </trkpt>
      <trkpt lat="43.7767" lon="3.81319">
        <ele>629.8</ele>
        <time>2012-11-01T15:47:39.000Z</time>
      </trkpt>
      <trkpt lat="43.7767" lon="3.81314">
        <ele>629.3</ele>
        <time>2012-11-01T15:47:43.000Z</time>
      </trkpt>
      <trkpt lat="43.7767" lon="3.81312">
        <ele>629.2</ele>
        <time>2012-11-01T15:47:44.000Z</time>
      </trkpt>
      <trkpt lat="43.7767" lon="3.81306">
        <ele>628.6</ele>
        <time>2012-11-01T15:47:49.000Z</time>
      </trkpt>
      <trkpt lat="43.7767" lon="3.81305">
        <ele>628.5</ele>
        <time>2012-11-01T15:47:50.000Z</time>
      </trkpt>
      <trkpt lat="43.7767" lon="3.813">
        <ele>628.1</ele>
        <time>2012-11-01T15:47:54.000Z</time>
      </trkpt>
      <trkpt lat="43.7767" lon="3.81298">
        <ele>628</ele>
        <time>2012-11-01T15:47:55.000Z</time>
      </trkpt>
      <trkpt lat="43.77671" lon="3.81293">
        <ele>627.4</ele>
        <time>2012-11-01T15:48:00.000Z</time>
      </trkpt>
      <trkpt lat="43.77671" lon="3.81291">
        <ele>627.3</ele>
        <time>2012-11-01T15:48:01.000Z</time>
      </trkpt>
      <trkpt lat="43.77672" lon="3.81287">
        <ele>627</ele>
        <time>2012-11-01T15:48:04.000Z</time>
      </trkpt>
      <trkpt lat="43.77672" lon="3.81285">
        <ele>626.9</ele>
        <time>2012-11-01T15:48:05.000Z</time>
      </trkpt>
      <trkpt lat="43.77673" lon="3.8128">
        <ele>626.6</ele>
        <time>2012-11-01T15:48:08.000Z</time>
      </trkpt>
      <trkpt lat="43.77673" lon="3.81277">
        <ele>626.5</ele>
        <time>2012-11-01T15:48:09.000Z</time>
      </trkpt>
      <trkpt lat="43.77674" lon="3.81272">
        <ele>626.2</ele>
        <time>2012-11-01T15:48:12.000Z</time>
      </trkpt>
      <trkpt lat="43.77674" lon="3.8127">
        <ele>626.1</ele>
        <time>2012-11-01T15:48:13.000Z</time>
      </trkpt>
      <trkpt lat="43.77675" lon="3.81264">
        <ele>625.6</ele>
        <time>2012-11-01T15:48:18.000Z</time>
      </trkpt>
      <trkpt lat="43.77675" lon="3.81263">
        <ele>625.5</ele>
        <time>2012-11-01T15:48:19.000Z</time>
      </trkpt>
      <trkpt lat="43.77676" lon="3.81257">
        <ele>625</ele>
        <time>2012-11-01T15:48:24.000Z</time>
      </trkpt>
      <trkpt lat="43.77677" lon="3.81256">
        <ele>624.9</ele>
        <time>2012-11-01T15:48:25.000Z</time>
      </trkpt>
      <trkpt lat="43.77677" lon="3.8125">
        <ele>624.4</ele>
        <time>2012-11-01T15:48:29.000Z</time>
      </trkpt>
      <trkpt lat="43.77677" lon="3.81249">
        <ele>624.3</ele>
        <time>2012-11-01T15:48:30.000Z</time>
      </trkpt>
      <trkpt lat="43.77677" lon="3.81243">
        <ele>623.6</ele>
        <time>2012-11-01T15:48:36.000Z</time>
      </trkpt>
      <trkpt lat="43.77677" lon="3.81242">
        <ele>623.5</ele>
        <time>2012-11-01T15:48:37.000Z</time>
      </trkpt>
      <trkpt lat="43.77678" lon="3.81236">
        <ele>622.8</ele>
        <time>2012-11-01T15:48:43.000Z</time>
      </trkpt>
      <trkpt lat="43.77677" lon="3.81235">
        <ele>622.6</ele>
        <time>2012-11-01T15:48:44.000Z</time>
      </trkpt>
      <trkpt lat="43.77678" lon="3.81229">
        <ele>621.9</ele>
        <time>2012-11-01T15:48:50.000Z</time>
      </trkpt>
      <trkpt lat="43.77678" lon="3.81228">
        <ele>621.8</ele>
        <time>2012-11-01T15:48:51.000Z</time>
      </trkpt>
      <trkpt lat="43.77677" lon="3.81223">
        <ele>621.2</ele>
        <time>2012-11-01T15:48:56.000Z</time>
      </trkpt>
      <trkpt lat="43.77677" lon="3.81222">
        <ele>621.1</ele>
        <time>2012-11-01T15:48:57.000Z</time>
      </trkpt>
      <trkpt lat="43.77676" lon="3.81216">
        <ele>620.3</ele>
        <time>2012-11-01T15:49:03.000Z</time>
      </trkpt>
      <trkpt lat="43.77676" lon="3.81215">
        <ele>620.2</ele>
        <time>2012-11-01T15:49:04.000Z</time>
      </trkpt>
      <trkpt lat="43.77675" lon="3.8121">
        <ele>619.7</ele>
        <time>2012-11-01T15:49:08.000Z</time>
      </trkpt>
      <trkpt lat="43.77675" lon="3.81209">
        <ele>619.6</ele>
        <time>2012-11-01T15:49:09.000Z</time>
      </trkpt>
      <trkpt lat="43.77675" lon="3.81204">
        <ele>619.1</ele>
        <time>2012-11-01T15:49:13.000Z</time>
      </trkpt>
      <trkpt lat="43.77675" lon="3.81202">
        <ele>619</ele>
        <time>2012-11-01T15:49:14.000Z</time>
      </trkpt>
      <trkpt lat="43.77674" lon="3.81198">
        <ele>618.5</ele>
        <time>2012-11-01T15:49:18.000Z</time>
      </trkpt>
      <trkpt lat="43.77674" lon="3.81196">
        <ele>618.4</ele>
        <time>2012-11-01T15:49:19.000Z</time>
      </trkpt>
      <trkpt lat="43.77673" lon="3.8119">
        <ele>617.8</ele>
        <time>2012-11-01T15:49:24.000Z</time>
      </trkpt>
      <trkpt lat="43.77673" lon="3.81189">
        <ele>617.7</ele>
        <time>2012-11-01T15:49:25.000Z</time>
      </trkpt>
      <trkpt lat="43.77672" lon="3.81183">
        <ele>617.2</ele>
        <time>2012-11-01T15:49:29.000Z</time>
      </trkpt>
      <trkpt lat="43.77672" lon="3.81182">
        <ele>617</ele>
        <time>2012-11-01T15:49:30.000Z</time>
      </trkpt>
      <trkpt lat="43.77672" lon="3.81176">
        <ele>616.5</ele>
        <time>2012-11-01T15:49:34.000Z</time>
      </trkpt>
      <trkpt lat="43.77671" lon="3.81175">
        <ele>616.4</ele>
        <time>2012-11-01T15:49:35.000Z</time>
      </trkpt>
      <trkpt lat="43.7767" lon="3.81169">
        <ele>615.7</ele>
        <time>2012-11-01T15:49:41.000Z</time>
      </trkpt>
      <trkpt lat="43.7767" lon="3.81168">
        <ele>615.5</ele>
        <time>2012-11-01T15:49:42.000Z</time>
      </trkpt>
      <trkpt lat="43.77669" lon="3.81163">
        <ele>614.9</ele>
        <time>2012-11-01T15:49:47.000Z</time>
      </trkpt>
      <trkpt lat="43.77669" lon="3.81162">
        <ele>614.8</ele>
        <time>2012-11-01T15:49:48.000Z</time>
      </trkpt>
      <trkpt lat="43.77668" lon="3.81156">
        <ele>614.1</ele>
        <time>2012-11-01T15:49:53.000Z</time>
      </trkpt>
      <trkpt lat="43.77668" lon="3.81155">
        <ele>614</ele>
        <time>2012-11-01T15:49:54.000Z</time>
      </trkpt>
      <trkpt lat="43.77667" lon="3.8115">
        <ele>613.4</ele>
        <time>2012-11-01T15:49:59.000Z</time>
      </trkpt>
      <trkpt lat="43.77667" lon="3.81149">
        <ele>613.3</ele>
        <time>2012-11-01T15:50:00.000Z</time>
      </trkpt>
      <trkpt lat="43.77665" lon="3.81144">
        <ele>612.7</ele>
        <time>2012-11-01T15:50:05.000Z</time>
      </trkpt>
      <trkpt lat="43.77665" lon="3.81142">
        <ele>612.5</ele>
        <time>2012-11-01T15:50:06.000Z</time>
      </trkpt>
      <trkpt lat="43.77664" lon="3.81136">
        <ele>611.9</ele>
        <time>2012-11-01T15:50:11.000Z</time>
      </trkpt>
      <trkpt lat="43.77664" lon="3.81135">
        <ele>611.8</ele>
        <time>2012-11-01T15:50:12.000Z</time>
      </trkpt>
      <trkpt lat="43.77663" lon="3.8113">
        <ele>611.3</ele>
        <time>2012-11-01T15:50:16.000Z</time>
      </trkpt>
      <trkpt lat="43.77663" lon="3.81128">
        <ele>611.2</ele>
        <time>2012-11-01T15:50:17.000Z</time>
      </trkpt>
      <trkpt lat="43.77663" lon="3.81123">
        <ele>610.7</ele>
        <time>2012-11-01T15:50:21.000Z</time>
      </trkpt>
      <trkpt lat="43.77663" lon="3.81122">
        <ele>610.6</ele>
        <time>2012-11-01T15:50:22.000Z</time>
      </trkpt>
      <trkpt lat="43.77663" lon="3.81117">
        <ele>610.2</ele>
        <time>2012-11-01T15:50:25.000Z</time>
      </trkpt>
      <trkpt lat="43.77663" lon="3.81115">
        <ele>610.1</ele>
        <time>2012-11-01T15:50:26.000Z</time>
      </trkpt>
      <trkpt lat="43.77663" lon="3.8111">
        <ele>609.7</ele>
        <time>2012-11-01T15:50:29.000Z</time>
      </trkpt>
      <trkpt lat="43.77663" lon="3.81109">
        <ele>609.6</ele>
        <time>2012-11-01T15:50:30.000Z</time>
      </trkpt>
      <trkpt lat="43.77663" lon="3.81103">
        <ele>609.1</ele>
        <time>2012-11-01T15:50:34.000Z</time>
      </trkpt>
      <trkpt lat="43.77663" lon="3.81101">
        <ele>609</ele>
        <time>2012-11-01T15:50:35.000Z</time>
      </trkpt>
      <trkpt lat="43.77664" lon="3.81096">
        <ele>608.4</ele>
        <time>2012-11-01T15:50:40.000Z</time>
      </trkpt>
      <trkpt lat="43.77664" lon="3.81095">
        <ele>608.3</ele>
        <time>2012-11-01T15:50:41.000Z</time>
      </trkpt>
      <trkpt lat="43.77665" lon="3.8109">
        <ele>607.8</ele>
        <time>2012-11-01T15:50:45.000Z</time>
      </trkpt>
      <trkpt lat="43.77665" lon="3.81088">
        <ele>607.7</ele>
        <time>2012-11-01T15:50:46.000Z</time>
      </trkpt>
      <trkpt lat="43.77665" lon="3.81083">
        <ele>607</ele>
        <time>2012-11-01T15:50:52.000Z</time>
      </trkpt>
      <trkpt lat="43.77665" lon="3.81081">
        <ele>606.9</ele>
        <time>2012-11-01T15:50:53.000Z</time>
      </trkpt>
      <trkpt lat="43.77666" lon="3.81076">
        <ele>606.5</ele>
        <time>2012-11-01T15:50:57.000Z</time>
      </trkpt>
      <trkpt lat="43.77666" lon="3.81075">
        <ele>606.4</ele>
        <time>2012-11-01T15:50:58.000Z</time>
      </trkpt>
      <trkpt lat="43.77667" lon="3.8107">
        <ele>605.9</ele>
        <time>2012-11-01T15:51:02.000Z</time>
      </trkpt>
      <trkpt lat="43.77667" lon="3.81068">
        <ele>605.8</ele>
        <time>2012-11-01T15:51:03.000Z</time>
      </trkpt>
      <trkpt lat="43.77668" lon="3.81064">
        <ele>605.3</ele>
        <time>2012-11-01T15:51:08.000Z</time>
      </trkpt>
      <trkpt lat="43.77669" lon="3.81062">
        <ele>605.2</ele>
        <time>2012-11-01T15:51:09.000Z</time>
      </trkpt>
      <trkpt lat="43.7767" lon="3.81058">
        <ele>604.8</ele>
        <time>2012-11-01T15:51:12.000Z</time>
      </trkpt>
      <trkpt lat="43.7767" lon="3.81056">
        <ele>604.7</ele>
        <time>2012-11-01T15:51:13.000Z</time>
      </trkpt>
      <trkpt lat="43.77671" lon="3.8105">
        <ele>604.3</ele>
        <time>2012-11-01T15:51:17.000Z</time>
      </trkpt>
      <trkpt lat="43.77672" lon="3.81049">
        <ele>604.2</ele>
        <time>2012-11-01T15:51:18.000Z</time>
      </trkpt>
      <trkpt lat="43.77673" lon="3.81044">
        <ele>603.6</ele>
        <time>2012-11-01T15:51:23.000Z</time>
      </trkpt>
      <trkpt lat="43.77673" lon="3.81043">
        <ele>603.5</ele>
        <time>2012-11-01T15:51:24.000Z</time>
      </trkpt>
      <trkpt lat="43.77675" lon="3.81038">
        <ele>603.1</ele>
        <time>2012-11-01T15:51:28.000Z</time>
      </trkpt>
      <trkpt lat="43.77675" lon="3.81037">
        <ele>603</ele>
        <time>2012-11-01T15:51:29.000Z</time>
      </trkpt>
      <trkpt lat="43.77676" lon="3.81032">
        <ele>602.4</ele>
        <time>2012-11-01T15:51:34.000Z</time>
      </trkpt>
      <trkpt lat="43.77677" lon="3.8103">
        <ele>602.3</ele>
        <time>2012-11-01T15:51:35.000Z</time>
      </trkpt>
      <trkpt lat="43.77678" lon="3.81025">
        <ele>601.7</ele>
        <time>2012-11-01T15:51:40.000Z</time>
      </trkpt>
      <trkpt lat="43.77678" lon="3.81024">
        <ele>601.6</ele>
        <time>2012-11-01T15:51:41.000Z</time>
      </trkpt>
      <trkpt lat="43.77679" lon="3.81018">
        <ele>600.9</ele>
        <time>2012-11-01T15:51:47.000Z</time>
      </trkpt>
      <trkpt lat="43.77679" lon="3.81017">
        <ele>600.7</ele>
        <time>2012-11-01T15:51:48.000Z</time>
      </trkpt>
      <trkpt lat="43.77679" lon="3.81011">
        <ele>600</ele>
        <time>2012-11-01T15:51:54.000Z</time>
      </trkpt>
      <trkpt lat="43.77679" lon="3.81011">
        <ele>599.9</ele>
        <time>2012-11-01T15:51:55.000Z</time>
      </trkpt>
      <trkpt lat="43.77679" lon="3.81005">
        <ele>599.2</ele>
        <time>2012-11-01T15:52:01.000Z</time>
      </trkpt>
      <trkpt lat="43.77679" lon="3.81004">
        <ele>599.1</ele>
        <time>2012-11-01T15:52:02.000Z</time>
      </trkpt>
      <trkpt lat="43.77679" lon="3.80998">
        <ele>598.1</ele>
        <time>2012-11-01T15:52:10.000Z</time>
      </trkpt>
      <trkpt lat="43.77679" lon="3.80998">
        <ele>598</ele>
        <time>2012-11-01T15:52:11.000Z</time>
      </trkpt>
      <trkpt lat="43.77679" lon="3.80992">
        <ele>596.8</ele>
        <time>2012-11-01T15:52:20.000Z</time>
      </trkpt>
      <trkpt lat="43.7768" lon="3.80991">
        <ele>596.7</ele>
        <time>2012-11-01T15:52:21.000Z</time>
      </trkpt>
      <trkpt lat="43.7768" lon="3.80985">
        <ele>595.9</ele>
        <time>2012-11-01T15:52:27.000Z</time>
      </trkpt>
      <trkpt lat="43.7768" lon="3.80984">
        <ele>595.8</ele>
        <time>2012-11-01T15:52:28.000Z</time>
      </trkpt>
      <trkpt lat="43.7768" lon="3.80978">
        <ele>595.1</ele>
        <time>2012-11-01T15:52:33.000Z</time>
      </trkpt>
      <trkpt lat="43.7768" lon="3.80977">
        <ele>595</ele>
        <time>2012-11-01T15:52:34.000Z</time>
      </trkpt>
      <trkpt lat="43.77679" lon="3.80972">
        <ele>594.3</ele>
        <time>2012-11-01T15:52:39.000Z</time>
      </trkpt>
      <trkpt lat="43.77679" lon="3.80971">
        <ele>594.2</ele>
        <time>2012-11-01T15:52:40.000Z</time>
      </trkpt>
      <trkpt lat="43.77678" lon="3.80965">
        <ele>593.6</ele>
        <time>2012-11-01T15:52:45.000Z</time>
      </trkpt>
      <trkpt lat="43.77678" lon="3.80964">
        <ele>593.4</ele>
        <time>2012-11-01T15:52:46.000Z</time>
      </trkpt>
      <trkpt lat="43.77677" lon="3.80958">
        <ele>592.7</ele>
        <time>2012-11-01T15:52:52.000Z</time>
      </trkpt>
      <trkpt lat="43.77677" lon="3.80957">
        <ele>592.5</ele>
        <time>2012-11-01T15:52:53.000Z</time>
      </trkpt>
      <trkpt lat="43.77675" lon="3.80952">
        <ele>591.6</ele>
        <time>2012-11-01T15:53:00.000Z</time>
      </trkpt>
      <trkpt lat="43.77675" lon="3.80951">
        <ele>591.5</ele>
        <time>2012-11-01T15:53:01.000Z</time>
      </trkpt>
      <trkpt lat="43.77674" lon="3.80946">
        <ele>590.7</ele>
        <time>2012-11-01T15:53:07.000Z</time>
      </trkpt>
      <trkpt lat="43.77674" lon="3.80945">
        <ele>590.6</ele>
        <time>2012-11-01T15:53:08.000Z</time>
      </trkpt>
      <trkpt lat="43.77673" lon="3.80939">
        <ele>589.8</ele>
        <time>2012-11-01T15:53:14.000Z</time>
      </trkpt>
      <trkpt lat="43.77673" lon="3.80938">
        <ele>589.7</ele>
        <time>2012-11-01T15:53:15.000Z</time>
      </trkpt>
      <trkpt lat="43.77672" lon="3.80932">
        <ele>588.6</ele>
        <time>2012-11-01T15:53:23.000Z</time>
      </trkpt>
      <trkpt lat="43.77671" lon="3.80931">
        <ele>588.5</ele>
        <time>2012-11-01T15:53:24.000Z</time>
      </trkpt>
      <trkpt lat="43.7767" lon="3.80925">
        <ele>587.8</ele>
        <time>2012-11-01T15:53:29.000Z</time>
      </trkpt>
      <trkpt lat="43.7767" lon="3.80924">
        <ele>587.7</ele>
        <time>2012-11-01T15:53:30.000Z</time>
      </trkpt>
      <trkpt lat="43.77669" lon="3.80919">
        <ele>587.2</ele>
        <time>2012-11-01T15:53:34.000Z</time>
      </trkpt>
      <trkpt lat="43.77669" lon="3.80918">
        <ele>587</ele>
        <time>2012-11-01T15:53:35.000Z</time>
      </trkpt>
      <trkpt lat="43.77667" lon="3.80912">
        <ele>586.4</ele>
        <time>2012-11-01T15:53:40.000Z</time>
      </trkpt>
      <trkpt lat="43.77667" lon="3.80911">
        <ele>586.2</ele>
        <time>2012-11-01T15:53:41.000Z</time>
      </trkpt>
      <trkpt lat="43.77666" lon="3.80905">
        <ele>585.7</ele>
        <time>2012-11-01T15:53:45.000Z</time>
      </trkpt>
      <trkpt lat="43.77666" lon="3.80904">
        <ele>585.6</ele>
        <time>2012-11-01T15:53:46.000Z</time>
      </trkpt>
      <trkpt lat="43.77665" lon="3.80899">
        <ele>585.2</ele>
        <time>2012-11-01T15:53:49.000Z</time>
      </trkpt>
      <trkpt lat="43.77665" lon="3.80898">
        <ele>585.1</ele>
        <time>2012-11-01T15:53:50.000Z</time>
      </trkpt>
      <trkpt lat="43.77663" lon="3.80892">
        <ele>584.4</ele>
        <time>2012-11-01T15:53:55.000Z</time>
      </trkpt>
      <trkpt lat="43.77663" lon="3.80891">
        <ele>584.3</ele>
        <time>2012-11-01T15:53:56.000Z</time>
      </trkpt>
      <trkpt lat="43.77662" lon="3.80886">
        <ele>583.8</ele>
        <time>2012-11-01T15:54:00.000Z</time>
      </trkpt>
      <trkpt lat="43.77662" lon="3.80884">
        <ele>583.6</ele>
        <time>2012-11-01T15:54:01.000Z</time>
      </trkpt>
      <trkpt lat="43.77661" lon="3.80879">
        <ele>583.1</ele>
        <time>2012-11-01T15:54:05.000Z</time>
      </trkpt>
      <trkpt lat="43.7766" lon="3.80878">
        <ele>583</ele>
        <time>2012-11-01T15:54:06.000Z</time>
      </trkpt>
      <trkpt lat="43.77659" lon="3.80873">
        <ele>582.5</ele>
        <time>2012-11-01T15:54:10.000Z</time>
      </trkpt>
      <trkpt lat="43.77659" lon="3.80872">
        <ele>582.4</ele>
        <time>2012-11-01T15:54:11.000Z</time>
      </trkpt>
      <trkpt lat="43.77657" lon="3.80866">
        <ele>581.8</ele>
        <time>2012-11-01T15:54:15.000Z</time>
      </trkpt>
      <trkpt lat="43.77657" lon="3.80865">
        <ele>581.7</ele>
        <time>2012-11-01T15:54:16.000Z</time>
      </trkpt>
      <trkpt lat="43.77656" lon="3.8086">
        <ele>581.3</ele>
        <time>2012-11-01T15:54:19.000Z</time>
      </trkpt>
      <trkpt lat="43.77656" lon="3.80859">
        <ele>581.2</ele>
        <time>2012-11-01T15:54:20.000Z</time>
      </trkpt>
      <trkpt lat="43.77654" lon="3.80853">
        <ele>580.7</ele>
        <time>2012-11-01T15:54:24.000Z</time>
      </trkpt>
      <trkpt lat="43.77654" lon="3.80852">
        <ele>580.6</ele>
        <time>2012-11-01T15:54:25.000Z</time>
      </trkpt>
      <trkpt lat="43.77653" lon="3.80846">
        <ele>580.1</ele>
        <time>2012-11-01T15:54:29.000Z</time>
      </trkpt>
      <trkpt lat="43.77653" lon="3.80845">
        <ele>579.9</ele>
        <time>2012-11-01T15:54:30.000Z</time>
      </trkpt>
      <trkpt lat="43.77652" lon="3.8084">
        <ele>579.3</ele>
        <time>2012-11-01T15:54:35.000Z</time>
      </trkpt>
      <trkpt lat="43.77652" lon="3.80839">
        <ele>579.2</ele>
        <time>2012-11-01T15:54:36.000Z</time>
      </trkpt>
      <trkpt lat="43.77652" lon="3.80833">
        <ele>578.5</ele>
        <time>2012-11-01T15:54:41.000Z</time>
      </trkpt>
      <trkpt lat="43.77651" lon="3.80832">
        <ele>578.4</ele>
        <time>2012-11-01T15:54:42.000Z</time>
      </trkpt>
      <trkpt lat="43.7765" lon="3.80827">
        <ele>577.6</ele>
        <time>2012-11-01T15:54:48.000Z</time>
      </trkpt>
      <trkpt lat="43.7765" lon="3.80826">
        <ele>577.4</ele>
        <time>2012-11-01T15:54:49.000Z</time>
      </trkpt>
      <trkpt lat="43.77648" lon="3.80821">
        <ele>576.7</ele>
        <time>2012-11-01T15:54:54.000Z</time>
      </trkpt>
      <trkpt lat="43.77648" lon="3.8082">
        <ele>576.6</ele>
        <time>2012-11-01T15:54:55.000Z</time>
      </trkpt>
      <trkpt lat="43.77647" lon="3.80815">
        <ele>576.2</ele>
        <time>2012-11-01T15:54:58.000Z</time>
      </trkpt>
      <trkpt lat="43.77647" lon="3.80813">
        <ele>576.1</ele>
        <time>2012-11-01T15:54:59.000Z</time>
      </trkpt>
      <trkpt lat="43.77646" lon="3.80808">
        <ele>575.7</ele>
        <time>2012-11-01T15:55:02.000Z</time>
      </trkpt>
      <trkpt lat="43.77646" lon="3.80807">
        <ele>575.5</ele>
        <time>2012-11-01T15:55:03.000Z</time>
      </trkpt>
      <trkpt lat="43.77644" lon="3.80802">
        <ele>575</ele>
        <time>2012-11-01T15:55:07.000Z</time>
      </trkpt>
      <trkpt lat="43.77644" lon="3.80801">
        <ele>574.9</ele>
        <time>2012-11-01T15:55:08.000Z</time>
      </trkpt>
      <trkpt lat="43.77643" lon="3.80796">
        <ele>574.4</ele>
        <time>2012-11-01T15:55:12.000Z</time>
      </trkpt>
      <trkpt lat="43.77642" lon="3.80795">
        <ele>574.2</ele>
        <time>2012-11-01T15:55:13.000Z</time>
      </trkpt>
      <trkpt lat="43.77641" lon="3.80789">
        <ele>573.7</ele>
        <time>2012-11-01T15:55:17.000Z</time>
      </trkpt>
      <trkpt lat="43.77641" lon="3.80788">
        <ele>573.5</ele>
        <time>2012-11-01T15:55:18.000Z</time>
      </trkpt>
      <trkpt lat="43.7764" lon="3.80783">
        <ele>573</ele>
        <time>2012-11-01T15:55:22.000Z</time>
      </trkpt>
      <trkpt lat="43.77639" lon="3.80782">
        <ele>572.9</ele>
        <time>2012-11-01T15:55:23.000Z</time>
      </trkpt>
      <trkpt lat="43.77637" lon="3.80777">
        <ele>572.1</ele>
        <time>2012-11-01T15:55:28.000Z</time>
      </trkpt>
      <trkpt lat="43.77637" lon="3.80776">
        <ele>572</ele>
        <time>2012-11-01T15:55:29.000Z</time>
      </trkpt>
      <trkpt lat="43.77634" lon="3.80771">
        <ele>571.3</ele>
        <time>2012-11-01T15:55:34.000Z</time>
      </trkpt>
      <trkpt lat="43.77634" lon="3.8077">
        <ele>571.2</ele>
        <time>2012-11-01T15:55:35.000Z</time>
      </trkpt>
      <trkpt lat="43.77632" lon="3.80765">
        <ele>570.6</ele>
        <time>2012-11-01T15:55:39.000Z</time>
      </trkpt>
      <trkpt lat="43.77631" lon="3.80764">
        <ele>570.5</ele>
        <time>2012-11-01T15:55:40.000Z</time>
      </trkpt>
      <trkpt lat="43.77629" lon="3.80759">
        <ele>570</ele>
        <time>2012-11-01T15:55:44.000Z</time>
      </trkpt>
      <trkpt lat="43.77629" lon="3.80757">
        <ele>569.8</ele>
        <time>2012-11-01T15:55:45.000Z</time>
      </trkpt>
      <trkpt lat="43.77627" lon="3.80751">
        <ele>569.2</ele>
        <time>2012-11-01T15:55:49.000Z</time>
      </trkpt>
      <trkpt lat="43.77627" lon="3.8075">
        <ele>569.1</ele>
        <time>2012-11-01T15:55:50.000Z</time>
      </trkpt>
      <trkpt lat="43.77625" lon="3.80745">
        <ele>568.5</ele>
        <time>2012-11-01T15:55:54.000Z</time>
      </trkpt>
      <trkpt lat="43.77624" lon="3.80744">
        <ele>568.4</ele>
        <time>2012-11-01T15:55:55.000Z</time>
      </trkpt>
      <trkpt lat="43.77622" lon="3.80739">
        <ele>567.6</ele>
        <time>2012-11-01T15:56:01.000Z</time>
      </trkpt>
      <trkpt lat="43.77621" lon="3.80738">
        <ele>567.4</ele>
        <time>2012-11-01T15:56:02.000Z</time>
      </trkpt>
      <trkpt lat="43.77619" lon="3.80733">
        <ele>566.7</ele>
        <time>2012-11-01T15:56:07.000Z</time>
      </trkpt>
      <trkpt lat="43.77619" lon="3.80732">
        <ele>566.5</ele>
        <time>2012-11-01T15:56:08.000Z</time>
      </trkpt>
      <trkpt lat="43.77617" lon="3.80726">
        <ele>566</ele>
        <time>2012-11-01T15:56:12.000Z</time>
      </trkpt>
      <trkpt lat="43.77616" lon="3.80725">
        <ele>565.8</ele>
        <time>2012-11-01T15:56:13.000Z</time>
      </trkpt>
      <trkpt lat="43.77615" lon="3.80721">
        <ele>565.4</ele>
        <time>2012-11-01T15:56:16.000Z</time>
      </trkpt>
      <trkpt lat="43.77614" lon="3.80719">
        <ele>565.2</ele>
        <time>2012-11-01T15:56:17.000Z</time>
      </trkpt>
      <trkpt lat="43.77613" lon="3.80715">
        <ele>565</ele>
        <time>2012-11-01T15:56:19.000Z</time>
      </trkpt>
      <trkpt lat="43.77612" lon="3.80713">
        <ele>564.8</ele>
        <time>2012-11-01T15:56:20.000Z</time>
      </trkpt>
      <trkpt lat="43.77611" lon="3.80708">
        <ele>564.6</ele>
        <time>2012-11-01T15:56:22.000Z</time>
      </trkpt>
      <trkpt lat="43.7761" lon="3.80706">
        <ele>564.5</ele>
        <time>2012-11-01T15:56:23.000Z</time>
      </trkpt>
      <trkpt lat="43.77608" lon="3.807">
        <ele>564.1</ele>
        <time>2012-11-01T15:56:26.000Z</time>
      </trkpt>
      <trkpt lat="43.77607" lon="3.80699">
        <ele>564</ele>
        <time>2012-11-01T15:56:27.000Z</time>
      </trkpt>
      <trkpt lat="43.77605" lon="3.80694">
        <ele>563.6</ele>
        <time>2012-11-01T15:56:30.000Z</time>
      </trkpt>
      <trkpt lat="43.77605" lon="3.80693">
        <ele>563.5</ele>
        <time>2012-11-01T15:56:31.000Z</time>
      </trkpt>
      <trkpt lat="43.77603" lon="3.80689">
        <ele>563.2</ele>
        <time>2012-11-01T15:56:33.000Z</time>
      </trkpt>
      <trkpt lat="43.77603" lon="3.80687">
        <ele>563.1</ele>
        <time>2012-11-01T15:56:34.000Z</time>
      </trkpt>
      <trkpt lat="43.77601" lon="3.80683">
        <ele>562.9</ele>
        <time>2012-11-01T15:56:36.000Z</time>
      </trkpt>
      <trkpt lat="43.77601" lon="3.80681">
        <ele>562.8</ele>
        <time>2012-11-01T15:56:37.000Z</time>
      </trkpt>
      <trkpt lat="43.77599" lon="3.80675">
        <ele>562.4</ele>
        <time>2012-11-01T15:56:40.000Z</time>
      </trkpt>
      <trkpt lat="43.77598" lon="3.80673">
        <ele>562.3</ele>
        <time>2012-11-01T15:56:41.000Z</time>
      </trkpt>
      <trkpt lat="43.77596" lon="3.80668">
        <ele>562</ele>
        <time>2012-11-01T15:56:44.000Z</time>
      </trkpt>
      <trkpt lat="43.77596" lon="3.80666">
        <ele>561.9</ele>
        <time>2012-11-01T15:56:45.000Z</time>
      </trkpt>
      <trkpt lat="43.77595" lon="3.80661">
        <ele>561.5</ele>
        <time>2012-11-01T15:56:47.999Z</time>
      </trkpt>
      <trkpt lat="43.77594" lon="3.80659">
        <ele>561.4</ele>
        <time>2012-11-01T15:56:48.999Z</time>
      </trkpt>
      <trkpt lat="43.77593" lon="3.80654">
        <ele>561.1</ele>
        <time>2012-11-01T15:56:51.999Z</time>
      </trkpt>
      <trkpt lat="43.77593" lon="3.80653">
        <ele>561</ele>
        <time>2012-11-01T15:56:52.999Z</time>
      </trkpt>
      <trkpt lat="43.77592" lon="3.80648">
        <ele>560.6</ele>
        <time>2012-11-01T15:56:55.999Z</time>
      </trkpt>
      <trkpt lat="43.77592" lon="3.80646">
        <ele>560.5</ele>
        <time>2012-11-01T15:56:56.999Z</time>
      </trkpt>
      <trkpt lat="43.77591" lon="3.80641">
        <ele>560.2</ele>
        <time>2012-11-01T15:56:59.999Z</time>
      </trkpt>
      <trkpt lat="43.7759" lon="3.8064">
        <ele>560.1</ele>
        <time>2012-11-01T15:57:00.999Z</time>
      </trkpt>
      <trkpt lat="43.7759" lon="3.80634">
        <ele>559.7</ele>
        <time>2012-11-01T15:57:03.999Z</time>
      </trkpt>
      <trkpt lat="43.77589" lon="3.80632">
        <ele>559.6</ele>
        <time>2012-11-01T15:57:04.999Z</time>
      </trkpt>
      <trkpt lat="43.77589" lon="3.80626">
        <ele>559.3</ele>
        <time>2012-11-01T15:57:07.999Z</time>
      </trkpt>
      <trkpt lat="43.77589" lon="3.80625">
        <ele>559.2</ele>
        <time>2012-11-01T15:57:08.999Z</time>
      </trkpt>
      <trkpt lat="43.77589" lon="3.80619">
        <ele>558.9</ele>
        <time>2012-11-01T15:57:11.999Z</time>
      </trkpt>
      <trkpt lat="43.77589" lon="3.80617">
        <ele>558.8</ele>
        <time>2012-11-01T15:57:12.999Z</time>
      </trkpt>
      <trkpt lat="43.77589" lon="3.80611">
        <ele>558.4</ele>
        <time>2012-11-01T15:57:15.999Z</time>
      </trkpt>
      <trkpt lat="43.77589" lon="3.8061">
        <ele>558.3</ele>
        <time>2012-11-01T15:57:16.999Z</time>
      </trkpt>
      <trkpt lat="43.77589" lon="3.80604">
        <ele>557.9</ele>
        <time>2012-11-01T15:57:20.999Z</time>
      </trkpt>
      <trkpt lat="43.77588" lon="3.80602">
        <ele>557.8</ele>
        <time>2012-11-01T15:57:21.999Z</time>
      </trkpt>
      <trkpt lat="43.77588" lon="3.80598">
        <ele>557.5</ele>
        <time>2012-11-01T15:57:24.999Z</time>
      </trkpt>
      <trkpt lat="43.77588" lon="3.80596">
        <ele>557.3</ele>
        <time>2012-11-01T15:57:25.999Z</time>
      </trkpt>
      <trkpt lat="43.77588" lon="3.8059">
        <ele>557</ele>
        <time>2012-11-01T15:57:28.999Z</time>
      </trkpt>
      <trkpt lat="43.77588" lon="3.80589">
        <ele>556.9</ele>
        <time>2012-11-01T15:57:29.999Z</time>
      </trkpt>
      <trkpt lat="43.77588" lon="3.80584">
        <ele>556.5</ele>
        <time>2012-11-01T15:57:33.999Z</time>
      </trkpt>
      <trkpt lat="43.77589" lon="3.80582">
        <ele>556.4</ele>
        <time>2012-11-01T15:57:34.999Z</time>
      </trkpt>
      <trkpt lat="43.77589" lon="3.80577">
        <ele>556</ele>
        <time>2012-11-01T15:57:38.999Z</time>
      </trkpt>
      <trkpt lat="43.77589" lon="3.80575">
        <ele>555.8</ele>
        <time>2012-11-01T15:57:39.999Z</time>
      </trkpt>
      <trkpt lat="43.7759" lon="3.8057">
        <ele>555.5</ele>
        <time>2012-11-01T15:57:42.999Z</time>
      </trkpt>
      <trkpt lat="43.7759" lon="3.80568">
        <ele>555.4</ele>
        <time>2012-11-01T15:57:43.999Z</time>
      </trkpt>
      <trkpt lat="43.7759" lon="3.80563">
        <ele>554.9</ele>
        <time>2012-11-01T15:57:48.999Z</time>
      </trkpt>
      <trkpt lat="43.7759" lon="3.80561">
        <ele>554.8</ele>
        <time>2012-11-01T15:57:49.999Z</time>
      </trkpt>
      <trkpt lat="43.77589" lon="3.80555">
        <ele>554.4</ele>
        <time>2012-11-01T15:57:53.999Z</time>
      </trkpt>
      <trkpt lat="43.77589" lon="3.80554">
        <ele>554.3</ele>
        <time>2012-11-01T15:57:54.999Z</time>
      </trkpt>
      <trkpt lat="43.77589" lon="3.80548">
        <ele>553.9</ele>
        <time>2012-11-01T15:57:58.999Z</time>
      </trkpt>
      <trkpt lat="43.77589" lon="3.80546">
        <ele>553.8</ele>
        <time>2012-11-01T15:57:59.999Z</time>
      </trkpt>
      <trkpt lat="43.77588" lon="3.80541">
        <ele>553.3</ele>
        <time>2012-11-01T15:58:04.999Z</time>
      </trkpt>
      <trkpt lat="43.77588" lon="3.8054">
        <ele>553.2</ele>
        <time>2012-11-01T15:58:05.999Z</time>
      </trkpt>
      <trkpt lat="43.77588" lon="3.80534">
        <ele>552.6</ele>
        <time>2012-11-01T15:58:11.999Z</time>
      </trkpt>
      <trkpt lat="43.77587" lon="3.80533">
        <ele>552.5</ele>
        <time>2012-11-01T15:58:12.999Z</time>
      </trkpt>
      <trkpt lat="43.77587" lon="3.80527">
        <ele>551.8</ele>
        <time>2012-11-01T15:58:18.999Z</time>
      </trkpt>
      <trkpt lat="43.77587" lon="3.80526">
        <ele>551.7</ele>
        <time>2012-11-01T15:58:19.999Z</time>
      </trkpt>
      <trkpt lat="43.77584" lon="3.80521">
        <ele>550.9</ele>
        <time>2012-11-01T15:58:27.999Z</time>
      </trkpt>
      <trkpt lat="43.77584" lon="3.8052">
        <ele>550.8</ele>
        <time>2012-11-01T15:58:28.999Z</time>
      </trkpt>
      <trkpt lat="43.77582" lon="3.80515">
        <ele>550.4</ele>
        <time>2012-11-01T15:58:32.999Z</time>
      </trkpt>
      <trkpt lat="43.77582" lon="3.80514">
        <ele>550.2</ele>
        <time>2012-11-01T15:58:33.999Z</time>
      </trkpt>
      <trkpt lat="43.7758" lon="3.80508">
        <ele>549.7</ele>
        <time>2012-11-01T15:58:38.999Z</time>
      </trkpt>
      <trkpt lat="43.77579" lon="3.80507">
        <ele>549.6</ele>
        <time>2012-11-01T15:58:39.999Z</time>
      </trkpt>
      <trkpt lat="43.77577" lon="3.80502">
        <ele>549.2</ele>
        <time>2012-11-01T15:58:43.999Z</time>
      </trkpt>
      <trkpt lat="43.77577" lon="3.80501">
        <ele>549.1</ele>
        <time>2012-11-01T15:58:44.999Z</time>
      </trkpt>
      <trkpt lat="43.77575" lon="3.80496">
        <ele>548.7</ele>
        <time>2012-11-01T15:58:48.999Z</time>
      </trkpt>
      <trkpt lat="43.77575" lon="3.80495">
        <ele>548.6</ele>
        <time>2012-11-01T15:58:49.999Z</time>
      </trkpt>
      <trkpt lat="43.77574" lon="3.8049">
        <ele>548.2</ele>
        <time>2012-11-01T15:58:53.999Z</time>
      </trkpt>
      <trkpt lat="43.77574" lon="3.80489">
        <ele>548.1</ele>
        <time>2012-11-01T15:58:54.999Z</time>
      </trkpt>
      <trkpt lat="43.77574" lon="3.80483">
        <ele>547.6</ele>
        <time>2012-11-01T15:58:59.999Z</time>
      </trkpt>
      <trkpt lat="43.77573" lon="3.80482">
        <ele>547.5</ele>
        <time>2012-11-01T15:59:00.999Z</time>
      </trkpt>
      <trkpt lat="43.77573" lon="3.80476">
        <ele>547.1</ele>
        <time>2012-11-01T15:59:04.999Z</time>
      </trkpt>
      <trkpt lat="43.77573" lon="3.80474">
        <ele>547</ele>
        <time>2012-11-01T15:59:05.999Z</time>
      </trkpt>
      <trkpt lat="43.77573" lon="3.80469">
        <ele>546.5</ele>
        <time>2012-11-01T15:59:09.999Z</time>
      </trkpt>
      <trkpt lat="43.77573" lon="3.80467">
        <ele>546.4</ele>
        <time>2012-11-01T15:59:10.999Z</time>
      </trkpt>
      <trkpt lat="43.77573" lon="3.80462">
        <ele>546</ele>
        <time>2012-11-01T15:59:14.999Z</time>
      </trkpt>
      <trkpt lat="43.77573" lon="3.8046">
        <ele>545.9</ele>
        <time>2012-11-01T15:59:15.999Z</time>
      </trkpt>
      <trkpt lat="43.77573" lon="3.80454">
        <ele>545.5</ele>
        <time>2012-11-01T15:59:19.999Z</time>
      </trkpt>
      <trkpt lat="43.77573" lon="3.80453">
        <ele>545.4</ele>
        <time>2012-11-01T15:59:20.999Z</time>
      </trkpt>
      <trkpt lat="43.77575" lon="3.80448">
        <ele>544.8</ele>
        <time>2012-11-01T15:59:25.999Z</time>
      </trkpt>
      <trkpt lat="43.77575" lon="3.80447">
        <ele>544.7</ele>
        <time>2012-11-01T15:59:26.999Z</time>
      </trkpt>
      <trkpt lat="43.77575" lon="3.80441">
        <ele>544.3</ele>
        <time>2012-11-01T15:59:30.999Z</time>
      </trkpt>
      <trkpt lat="43.77575" lon="3.80439">
        <ele>544.2</ele>
        <time>2012-11-01T15:59:31.999Z</time>
      </trkpt>
      <trkpt lat="43.77575" lon="3.80435">
        <ele>543.9</ele>
        <time>2012-11-01T15:59:34.999Z</time>
      </trkpt>
      <trkpt lat="43.77575" lon="3.80433">
        <ele>543.8</ele>
        <time>2012-11-01T15:59:35.999Z</time>
      </trkpt>
      <trkpt lat="43.77575" lon="3.80427">
        <ele>543.4</ele>
        <time>2012-11-01T15:59:40.999Z</time>
      </trkpt>
      <trkpt lat="43.77575" lon="3.80426">
        <ele>543.3</ele>
        <time>2012-11-01T15:59:41.999Z</time>
      </trkpt>
      <trkpt lat="43.77575" lon="3.80419">
        <ele>542.9</ele>
        <time>2012-11-01T15:59:45.999Z</time>
      </trkpt>
      <trkpt lat="43.77575" lon="3.80418">
        <ele>542.8</ele>
        <time>2012-11-01T15:59:46.999Z</time>
      </trkpt>
      <trkpt lat="43.77577" lon="3.80413">
        <ele>542.1</ele>
        <time>2012-11-01T15:59:52.999Z</time>
      </trkpt>
      <trkpt lat="43.77577" lon="3.80412">
        <ele>542</ele>
        <time>2012-11-01T15:59:53.999Z</time>
      </trkpt>
      <trkpt lat="43.77576" lon="3.80407">
        <ele>541.4</ele>
        <time>2012-11-01T15:59:59.999Z</time>
      </trkpt>
      <trkpt lat="43.77576" lon="3.80406">
        <ele>541.3</ele>
        <time>2012-11-01T16:00:00.999Z</time>
      </trkpt>
      <trkpt lat="43.77575" lon="3.804">
        <ele>540.4</ele>
        <time>2012-11-01T16:00:08.999Z</time>
      </trkpt>
      <trkpt lat="43.77575" lon="3.80399">
        <ele>540.3</ele>
        <time>2012-11-01T16:00:09.999Z</time>
      </trkpt>
      <trkpt lat="43.77574" lon="3.80393">
        <ele>539.8</ele>
        <time>2012-11-01T16:00:14.999Z</time>
      </trkpt>
      <trkpt lat="43.77574" lon="3.80392">
        <ele>539.7</ele>
        <time>2012-11-01T16:00:15.999Z</time>
      </trkpt>
      <trkpt lat="43.77574" lon="3.80386">
        <ele>539.3</ele>
        <time>2012-11-01T16:00:19.999Z</time>
      </trkpt>
      <trkpt lat="43.77574" lon="3.80385">
        <ele>539.2</ele>
        <time>2012-11-01T16:00:20.999Z</time>
      </trkpt>
      <trkpt lat="43.77574" lon="3.80379">
        <ele>538.6</ele>
        <time>2012-11-01T16:00:26.999Z</time>
      </trkpt>
      <trkpt lat="43.77574" lon="3.80378">
        <ele>538.5</ele>
        <time>2012-11-01T16:00:27.999Z</time>
      </trkpt>
      <trkpt lat="43.77573" lon="3.80372">
        <ele>538</ele>
        <time>2012-11-01T16:00:32.999Z</time>
      </trkpt>
      <trkpt lat="43.77573" lon="3.80371">
        <ele>537.9</ele>
        <time>2012-11-01T16:00:33.999Z</time>
      </trkpt>
      <trkpt lat="43.77572" lon="3.80366">
        <ele>537.4</ele>
        <time>2012-11-01T16:00:38.999Z</time>
      </trkpt>
      <trkpt lat="43.77572" lon="3.80365">
        <ele>537.3</ele>
        <time>2012-11-01T16:00:39.999Z</time>
      </trkpt>
      <trkpt lat="43.7757" lon="3.80359">
        <ele>536.2</ele>
        <time>2012-11-01T16:00:51.999Z</time>
      </trkpt>
      <trkpt lat="43.7757" lon="3.80359">
        <ele>536.1</ele>
        <time>2012-11-01T16:00:52.999Z</time>
      </trkpt>
      <trkpt lat="43.77571" lon="3.80353">
        <ele>535.2</ele>
        <time>2012-11-01T16:01:01.999Z</time>
      </trkpt>
      <trkpt lat="43.77571" lon="3.80352">
        <ele>535.1</ele>
        <time>2012-11-01T16:01:02.999Z</time>
      </trkpt>
      <trkpt lat="43.77572" lon="3.80346">
        <ele>534.3</ele>
        <time>2012-11-01T16:01:10.999Z</time>
      </trkpt>
      <trkpt lat="43.77572" lon="3.80345">
        <ele>534.2</ele>
        <time>2012-11-01T16:01:11.999Z</time>
      </trkpt>
      <trkpt lat="43.77571" lon="3.80339">
        <ele>533.5</ele>
        <time>2012-11-01T16:01:18.999Z</time>
      </trkpt>
      <trkpt lat="43.77571" lon="3.80339">
        <ele>533.4</ele>
        <time>2012-11-01T16:01:19.999Z</time>
      </trkpt>
      <trkpt lat="43.7757" lon="3.80333">
        <ele>532.8</ele>
        <time>2012-11-01T16:01:26.999Z</time>
      </trkpt>
      <trkpt lat="43.77569" lon="3.80331">
        <ele>532.7</ele>
        <time>2012-11-01T16:01:27.999Z</time>
      </trkpt>
      <trkpt lat="43.77569" lon="3.80326">
        <ele>532.2</ele>
        <time>2012-11-01T16:01:32.999Z</time>
      </trkpt>
      <trkpt lat="43.77569" lon="3.80325">
        <ele>532.1</ele>
        <time>2012-11-01T16:01:33.999Z</time>
      </trkpt>
      <trkpt lat="43.77568" lon="3.8032">
        <ele>531.7</ele>
        <time>2012-11-01T16:01:37.999Z</time>
      </trkpt>
      <trkpt lat="43.77568" lon="3.80319">
        <ele>531.6</ele>
        <time>2012-11-01T16:01:38.999Z</time>
      </trkpt>
      <trkpt lat="43.77568" lon="3.80313">
        <ele>531.2</ele>
        <time>2012-11-01T16:01:43.999Z</time>
      </trkpt>
      <trkpt lat="43.77567" lon="3.80312">
        <ele>531.1</ele>
        <time>2012-11-01T16:01:44.999Z</time>
      </trkpt>
      <trkpt lat="43.77567" lon="3.80306">
        <ele>530.7</ele>
        <time>2012-11-01T16:01:49.999Z</time>
      </trkpt>
      <trkpt lat="43.77566" lon="3.80306">
        <ele>530.6</ele>
        <time>2012-11-01T16:01:50.999Z</time>
      </trkpt>
      <trkpt lat="43.77565" lon="3.803">
        <ele>530.1</ele>
        <time>2012-11-01T16:01:55.999Z</time>
      </trkpt>
      <trkpt lat="43.77565" lon="3.80299">
        <ele>530.1</ele>
        <time>2012-11-01T16:01:56.999Z</time>
      </trkpt>
      <trkpt lat="43.77565" lon="3.80293">
        <ele>529.6</ele>
        <time>2012-11-01T16:02:01.999Z</time>
      </trkpt>
      <trkpt lat="43.77565" lon="3.80292">
        <ele>529.6</ele>
        <time>2012-11-01T16:02:02.999Z</time>
      </trkpt>
      <trkpt lat="43.77564" lon="3.80287">
        <ele>529.1</ele>
        <time>2012-11-01T16:02:07.999Z</time>
      </trkpt>
      <trkpt lat="43.77564" lon="3.80286">
        <ele>529.1</ele>
        <time>2012-11-01T16:02:08.999Z</time>
      </trkpt>
      <trkpt lat="43.77562" lon="3.8028">
        <ele>528.6</ele>
        <time>2012-11-01T16:02:13.999Z</time>
      </trkpt>
      <trkpt lat="43.77562" lon="3.80279">
        <ele>528.6</ele>
        <time>2012-11-01T16:02:14.999Z</time>
      </trkpt>
      <trkpt lat="43.77561" lon="3.80273">
        <ele>528.1</ele>
        <time>2012-11-01T16:02:19.999Z</time>
      </trkpt>
      <trkpt lat="43.7756" lon="3.80272">
        <ele>528</ele>
        <time>2012-11-01T16:02:20.999Z</time>
      </trkpt>
      <trkpt lat="43.7756" lon="3.80267">
        <ele>527.8</ele>
        <time>2012-11-01T16:02:24.999Z</time>
      </trkpt>
      <trkpt lat="43.77559" lon="3.80266">
        <ele>527.7</ele>
        <time>2012-11-01T16:02:25.999Z</time>
      </trkpt>
      <trkpt lat="43.7756" lon="3.8026">
        <ele>527.1</ele>
        <time>2012-11-01T16:02:33.999Z</time>
      </trkpt>
      <trkpt lat="43.7756" lon="3.80259">
        <ele>527.1</ele>
        <time>2012-11-01T16:02:34.999Z</time>
      </trkpt>
      <trkpt lat="43.77562" lon="3.80253">
        <ele>526.6</ele>
        <time>2012-11-01T16:02:41.999Z</time>
      </trkpt>
      <trkpt lat="43.77562" lon="3.80253">
        <ele>526.5</ele>
        <time>2012-11-01T16:02:42.999Z</time>
      </trkpt>
      <trkpt lat="43.77562" lon="3.80247">
        <ele>526.1</ele>
        <time>2012-11-01T16:02:48.999Z</time>
      </trkpt>
      <trkpt lat="43.77562" lon="3.80246">
        <ele>526</ele>
        <time>2012-11-01T16:02:49.999Z</time>
      </trkpt>
      <trkpt lat="43.77562" lon="3.8024">
        <ele>525.5</ele>
        <time>2012-11-01T16:02:56.999Z</time>
      </trkpt>
      <trkpt lat="43.77562" lon="3.8024">
        <ele>525.4</ele>
        <time>2012-11-01T16:02:57.999Z</time>
      </trkpt>
      <trkpt lat="43.77561" lon="3.80234">
        <ele>524.9</ele>
        <time>2012-11-01T16:03:03.999Z</time>
      </trkpt>
      <trkpt lat="43.77561" lon="3.80233">
        <ele>524.9</ele>
        <time>2012-11-01T16:03:04.999Z</time>
      </trkpt>
      <trkpt lat="43.77561" lon="3.80228">
        <ele>524.6</ele>
        <time>2012-11-01T16:03:08.999Z</time>
      </trkpt>
      <trkpt lat="43.77561" lon="3.80227">
        <ele>524.5</ele>
        <time>2012-11-01T16:03:09.999Z</time>
      </trkpt>
      <trkpt lat="43.77561" lon="3.80221">
        <ele>524.1</ele>
        <time>2012-11-01T16:03:15.999Z</time>
      </trkpt>
      <trkpt lat="43.77561" lon="3.8022">
        <ele>524.1</ele>
        <time>2012-11-01T16:03:16.999Z</time>
      </trkpt>
      <trkpt lat="43.77559" lon="3.80215">
        <ele>523.4</ele>
        <time>2012-11-01T16:03:25.999Z</time>
      </trkpt>
      <trkpt lat="43.77559" lon="3.80214">
        <ele>523.4</ele>
        <time>2012-11-01T16:03:26.999Z</time>
      </trkpt>
      <trkpt lat="43.77558" lon="3.80209">
        <ele>523</ele>
        <time>2012-11-01T16:03:31.999Z</time>
      </trkpt>
      <trkpt lat="43.77558" lon="3.80207">
        <ele>522.9</ele>
        <time>2012-11-01T16:03:32.999Z</time>
      </trkpt>
      <trkpt lat="43.77557" lon="3.80202">
        <ele>522.6</ele>
        <time>2012-11-01T16:03:37.999Z</time>
      </trkpt>
      <trkpt lat="43.77556" lon="3.80201">
        <ele>522.5</ele>
        <time>2012-11-01T16:03:38.999Z</time>
      </trkpt>
      <trkpt lat="43.77555" lon="3.80195">
        <ele>522.1</ele>
        <time>2012-11-01T16:03:44.999Z</time>
      </trkpt>
      <trkpt lat="43.77555" lon="3.80193">
        <ele>522.1</ele>
        <time>2012-11-01T16:03:45.999Z</time>
      </trkpt>
      <trkpt lat="43.77556" lon="3.80188">
        <ele>521.7</ele>
        <time>2012-11-01T16:03:50.999Z</time>
      </trkpt>
      <trkpt lat="43.77556" lon="3.80187">
        <ele>521.7</ele>
        <time>2012-11-01T16:03:51.999Z</time>
      </trkpt>
      <trkpt lat="43.77555" lon="3.80181">
        <ele>521.1</ele>
        <time>2012-11-01T16:03:58.999Z</time>
      </trkpt>
      <trkpt lat="43.77555" lon="3.8018">
        <ele>521</ele>
        <time>2012-11-01T16:03:59.999Z</time>
      </trkpt>
      <trkpt lat="43.77554" lon="3.80175">
        <ele>520.7</ele>
        <time>2012-11-01T16:04:04.999Z</time>
      </trkpt>
      <trkpt lat="43.77554" lon="3.80174">
        <ele>520.6</ele>
        <time>2012-11-01T16:04:05.999Z</time>
      </trkpt>
      <trkpt lat="43.77553" lon="3.80168">
        <ele>520.2</ele>
        <time>2012-11-01T16:04:11.999Z</time>
      </trkpt>
      <trkpt lat="43.77553" lon="3.80167">
        <ele>520.1</ele>
        <time>2012-11-01T16:04:12.999Z</time>
      </trkpt>
      <trkpt lat="43.77551" lon="3.80162">
        <ele>519.8</ele>
        <time>2012-11-01T16:04:17.999Z</time>
      </trkpt>
      <trkpt lat="43.77551" lon="3.80161">
        <ele>519.7</ele>
        <time>2012-11-01T16:04:18.999Z</time>
      </trkpt>
      <trkpt lat="43.7755" lon="3.80155">
        <ele>519.3</ele>
        <time>2012-11-01T16:04:24.999Z</time>
      </trkpt>
      <trkpt lat="43.77549" lon="3.80155">
        <ele>519.3</ele>
        <time>2012-11-01T16:04:25.999Z</time>
      </trkpt>
      <trkpt lat="43.77548" lon="3.80149">
        <ele>518.8</ele>
        <time>2012-11-01T16:04:31.999Z</time>
      </trkpt>
      <trkpt lat="43.77548" lon="3.80148">
        <ele>518.8</ele>
        <time>2012-11-01T16:04:32.999Z</time>
      </trkpt>
      <trkpt lat="43.77547" lon="3.80142">
        <ele>518.3</ele>
        <time>2012-11-01T16:04:39.999Z</time>
      </trkpt>
      <trkpt lat="43.77547" lon="3.80141">
        <ele>518.2</ele>
        <time>2012-11-01T16:04:40.999Z</time>
      </trkpt>
      <trkpt lat="43.77547" lon="3.80136">
        <ele>517.8</ele>
        <time>2012-11-01T16:04:45.999Z</time>
      </trkpt>
      <trkpt lat="43.77546" lon="3.80134">
        <ele>517.8</ele>
        <time>2012-11-01T16:04:46.999Z</time>
      </trkpt>
      <trkpt lat="43.77545" lon="3.80129">
        <ele>517.4</ele>
        <time>2012-11-01T16:04:51.999Z</time>
      </trkpt>
      <trkpt lat="43.77545" lon="3.80128">
        <ele>517.3</ele>
        <time>2012-11-01T16:04:52.999Z</time>
      </trkpt>
      <trkpt lat="43.77545" lon="3.80122">
        <ele>516.7</ele>
        <time>2012-11-01T16:05:00.999Z</time>
      </trkpt>
      <trkpt lat="43.77545" lon="3.80121">
        <ele>516.7</ele>
        <time>2012-11-01T16:05:01.999Z</time>
      </trkpt>
      <trkpt lat="43.77545" lon="3.80115">
        <ele>515.9</ele>
        <time>2012-11-01T16:05:11.999Z</time>
      </trkpt>
      <trkpt lat="43.77545" lon="3.80115">
        <ele>515.8</ele>
        <time>2012-11-01T16:05:12.999Z</time>
      </trkpt>
      <trkpt lat="43.77544" lon="3.80109">
        <ele>515.3</ele>
        <time>2012-11-01T16:05:19.999Z</time>
      </trkpt>
      <trkpt lat="43.77544" lon="3.80108">
        <ele>515.2</ele>
        <time>2012-11-01T16:05:20.999Z</time>
      </trkpt>
      <trkpt lat="43.77543" lon="3.80102">
        <ele>514.7</ele>
        <time>2012-11-01T16:05:26.999Z</time>
      </trkpt>
      <trkpt lat="43.77542" lon="3.80102">
        <ele>514.6</ele>
        <time>2012-11-01T16:05:27.999Z</time>
      </trkpt>
      <trkpt lat="43.7754" lon="3.80097">
        <ele>514.2</ele>
        <time>2012-11-01T16:05:33.999Z</time>
      </trkpt>
      <trkpt lat="43.77539" lon="3.80096">
        <ele>514.1</ele>
        <time>2012-11-01T16:05:34.999Z</time>
      </trkpt>
      <trkpt lat="43.77538" lon="3.8009">
        <ele>513.8</ele>
        <time>2012-11-01T16:05:38.999Z</time>
      </trkpt>
      <trkpt lat="43.77538" lon="3.80089">
        <ele>513.7</ele>
        <time>2012-11-01T16:05:39.999Z</time>
      </trkpt>
      <trkpt lat="43.77537" lon="3.80083">
        <ele>513.4</ele>
        <time>2012-11-01T16:05:44.999Z</time>
      </trkpt>
      <trkpt lat="43.77537" lon="3.80082">
        <ele>513.3</ele>
        <time>2012-11-01T16:05:45.999Z</time>
      </trkpt>
      <trkpt lat="43.77536" lon="3.80077">
        <ele>512.9</ele>
        <time>2012-11-01T16:05:50.999Z</time>
      </trkpt>
      <trkpt lat="43.77536" lon="3.80075">
        <ele>512.9</ele>
        <time>2012-11-01T16:05:51.999Z</time>
      </trkpt>
      <trkpt lat="43.77536" lon="3.8007">
        <ele>512.4</ele>
        <time>2012-11-01T16:05:57.999Z</time>
      </trkpt>
      <trkpt lat="43.77535" lon="3.80069">
        <ele>512.3</ele>
        <time>2012-11-01T16:05:58.999Z</time>
      </trkpt>
      <trkpt lat="43.77533" lon="3.80064">
        <ele>511.9</ele>
        <time>2012-11-01T16:06:04.999Z</time>
      </trkpt>
      <trkpt lat="43.77533" lon="3.80063">
        <ele>511.8</ele>
        <time>2012-11-01T16:06:05.999Z</time>
      </trkpt>
      <trkpt lat="43.77531" lon="3.80057">
        <ele>511.3</ele>
        <time>2012-11-01T16:06:12.999Z</time>
      </trkpt>
      <trkpt lat="43.77531" lon="3.80057">
        <ele>511.3</ele>
        <time>2012-11-01T16:06:13.999Z</time>
      </trkpt>
      <trkpt lat="43.77529" lon="3.80051">
        <ele>510.8</ele>
        <time>2012-11-01T16:06:19.999Z</time>
      </trkpt>
      <trkpt lat="43.77529" lon="3.8005">
        <ele>510.8</ele>
        <time>2012-11-01T16:06:20.999Z</time>
      </trkpt>
      <trkpt lat="43.77527" lon="3.80045">
        <ele>510.1</ele>
        <time>2012-11-01T16:06:30.999Z</time>
      </trkpt>
      <trkpt lat="43.77527" lon="3.80044">
        <ele>510</ele>
        <time>2012-11-01T16:06:31.999Z</time>
      </trkpt>
      <trkpt lat="43.77526" lon="3.80039">
        <ele>509.7</ele>
        <time>2012-11-01T16:06:35.999Z</time>
      </trkpt>
      <trkpt lat="43.77526" lon="3.80038">
        <ele>509.6</ele>
        <time>2012-11-01T16:06:36.999Z</time>
      </trkpt>
      <trkpt lat="43.77525" lon="3.80033">
        <ele>509.2</ele>
        <time>2012-11-01T16:06:42.999Z</time>
      </trkpt>
      <trkpt lat="43.77525" lon="3.80032">
        <ele>509.1</ele>
        <time>2012-11-01T16:06:43.999Z</time>
      </trkpt>
      <trkpt lat="43.77524" lon="3.80027">
        <ele>508.6</ele>
        <time>2012-11-01T16:06:49.999Z</time>
      </trkpt>
      <trkpt lat="43.77524" lon="3.80026">
        <ele>508.5</ele>
        <time>2012-11-01T16:06:50.999Z</time>
      </trkpt>
      <trkpt lat="43.77522" lon="3.80021">
        <ele>508.1</ele>
        <time>2012-11-01T16:06:55.999Z</time>
      </trkpt>
      <trkpt lat="43.77521" lon="3.8002">
        <ele>508</ele>
        <time>2012-11-01T16:06:56.999Z</time>
      </trkpt>
      <trkpt lat="43.7752" lon="3.80014">
        <ele>507.7</ele>
        <time>2012-11-01T16:07:00.999Z</time>
      </trkpt>
      <trkpt lat="43.77519" lon="3.80013">
        <ele>507.6</ele>
        <time>2012-11-01T16:07:01.999Z</time>
      </trkpt>
      <trkpt lat="43.77518" lon="3.80007">
        <ele>507.4</ele>
        <time>2012-11-01T16:07:04.999Z</time>
      </trkpt>
      <trkpt lat="43.77518" lon="3.80006">
        <ele>507.3</ele>
        <time>2012-11-01T16:07:05.999Z</time>
      </trkpt>
      <trkpt lat="43.77517" lon="3.8">
        <ele>507.1</ele>
        <time>2012-11-01T16:07:08.999Z</time>
      </trkpt>
      <trkpt lat="43.77517" lon="3.79999">
        <ele>507</ele>
        <time>2012-11-01T16:07:09.999Z</time>
      </trkpt>
      <trkpt lat="43.77515" lon="3.79994">
        <ele>506.7</ele>
        <time>2012-11-01T16:07:13.999Z</time>
      </trkpt>
      <trkpt lat="43.77515" lon="3.79993">
        <ele>506.6</ele>
        <time>2012-11-01T16:07:14.999Z</time>
      </trkpt>
      <trkpt lat="43.77513" lon="3.79987">
        <ele>506.3</ele>
        <time>2012-11-01T16:07:18.999Z</time>
      </trkpt>
      <trkpt lat="43.77513" lon="3.79986">
        <ele>506.2</ele>
        <time>2012-11-01T16:07:19.999Z</time>
      </trkpt>
      <trkpt lat="43.77511" lon="3.79981">
        <ele>505.9</ele>
        <time>2012-11-01T16:07:23.999Z</time>
      </trkpt>
      <trkpt lat="43.77511" lon="3.7998">
        <ele>505.8</ele>
        <time>2012-11-01T16:07:24.999Z</time>
      </trkpt>
      <trkpt lat="43.7751" lon="3.79974">
        <ele>505.5</ele>
        <time>2012-11-01T16:07:28.999Z</time>
      </trkpt>
      <trkpt lat="43.77509" lon="3.79973">
        <ele>505.4</ele>
        <time>2012-11-01T16:07:29.999Z</time>
      </trkpt>
      <trkpt lat="43.77509" lon="3.79968">
        <ele>505.1</ele>
        <time>2012-11-01T16:07:33.999Z</time>
      </trkpt>
      <trkpt lat="43.77509" lon="3.79966">
        <ele>505</ele>
        <time>2012-11-01T16:07:34.999Z</time>
      </trkpt>
      <trkpt lat="43.77509" lon="3.79961">
        <ele>504.8</ele>
        <time>2012-11-01T16:07:37.999Z</time>
      </trkpt>
      <trkpt lat="43.7751" lon="3.79959">
        <ele>504.7</ele>
        <time>2012-11-01T16:07:38.999Z</time>
      </trkpt>
      <trkpt lat="43.7751" lon="3.79953">
        <ele>504.4</ele>
        <time>2012-11-01T16:07:41.999Z</time>
      </trkpt>
      <trkpt lat="43.7751" lon="3.79951">
        <ele>504.4</ele>
        <time>2012-11-01T16:07:42.999Z</time>
      </trkpt>
      <trkpt lat="43.77511" lon="3.79946">
        <ele>504.1</ele>
        <time>2012-11-01T16:07:45.999Z</time>
      </trkpt>
      <trkpt lat="43.77511" lon="3.79944">
        <ele>504</ele>
        <time>2012-11-01T16:07:46.999Z</time>
      </trkpt>
      <trkpt lat="43.77512" lon="3.7994">
        <ele>503.9</ele>
        <time>2012-11-01T16:07:48.999Z</time>
      </trkpt>
      <trkpt lat="43.77512" lon="3.79937">
        <ele>503.8</ele>
        <time>2012-11-01T16:07:49.999Z</time>
      </trkpt>
      <trkpt lat="43.77513" lon="3.79933">
        <ele>503.5</ele>
        <time>2012-11-01T16:07:52.999Z</time>
      </trkpt>
      <trkpt lat="43.77513" lon="3.79931">
        <ele>503.4</ele>
        <time>2012-11-01T16:07:53.999Z</time>
      </trkpt>
      <trkpt lat="43.77513" lon="3.79925">
        <ele>503</ele>
        <time>2012-11-01T16:07:58.999Z</time>
      </trkpt>
      <trkpt lat="43.77513" lon="3.79924">
        <ele>502.9</ele>
        <time>2012-11-01T16:07:59.999Z</time>
      </trkpt>
      <trkpt lat="43.77512" lon="3.79918">
        <ele>502.5</ele>
        <time>2012-11-01T16:08:04.999Z</time>
      </trkpt>
      <trkpt lat="43.77512" lon="3.79917">
        <ele>502.4</ele>
        <time>2012-11-01T16:08:05.999Z</time>
      </trkpt>
      <trkpt lat="43.77511" lon="3.79911">
        <ele>502</ele>
        <time>2012-11-01T16:08:09.999Z</time>
      </trkpt>
      <trkpt lat="43.7751" lon="3.7991">
        <ele>502</ele>
        <time>2012-11-01T16:08:10.999Z</time>
      </trkpt>
      <trkpt lat="43.77509" lon="3.79905">
        <ele>501.6</ele>
        <time>2012-11-01T16:08:14.999Z</time>
      </trkpt>
      <trkpt lat="43.77508" lon="3.79904">
        <ele>501.5</ele>
        <time>2012-11-01T16:08:15.999Z</time>
      </trkpt>
      <trkpt lat="43.77507" lon="3.79899">
        <ele>501.1</ele>
        <time>2012-11-01T16:08:19.999Z</time>
      </trkpt>
      <trkpt lat="43.77506" lon="3.79898">
        <ele>501</ele>
        <time>2012-11-01T16:08:20.999Z</time>
      </trkpt>
      <trkpt lat="43.77505" lon="3.79892">
        <ele>500.6</ele>
        <time>2012-11-01T16:08:25.999Z</time>
      </trkpt>
      <trkpt lat="43.77505" lon="3.79891">
        <ele>500.5</ele>
        <time>2012-11-01T16:08:26.999Z</time>
      </trkpt>
      <trkpt lat="43.77502" lon="3.79886">
        <ele>500.2</ele>
        <time>2012-11-01T16:08:30.999Z</time>
      </trkpt>
      <trkpt lat="43.77502" lon="3.79885">
        <ele>500.1</ele>
        <time>2012-11-01T16:08:31.999Z</time>
      </trkpt>
      <trkpt lat="43.775" lon="3.7988">
        <ele>499.8</ele>
        <time>2012-11-01T16:08:34.999Z</time>
      </trkpt>
      <trkpt lat="43.77499" lon="3.79879">
        <ele>499.8</ele>
        <time>2012-11-01T16:08:35.999Z</time>
      </trkpt>
      <trkpt lat="43.77497" lon="3.79874">
        <ele>499.4</ele>
        <time>2012-11-01T16:08:39.999Z</time>
      </trkpt>
      <trkpt lat="43.77497" lon="3.79873">
        <ele>499.4</ele>
        <time>2012-11-01T16:08:40.999Z</time>
      </trkpt>
      <trkpt lat="43.77494" lon="3.79868">
        <ele>499</ele>
        <time>2012-11-01T16:08:44.999Z</time>
      </trkpt>
      <trkpt lat="43.77494" lon="3.79867">
        <ele>499</ele>
        <time>2012-11-01T16:08:45.999Z</time>
      </trkpt>
      <trkpt lat="43.77492" lon="3.79862">
        <ele>498.7</ele>
        <time>2012-11-01T16:08:48.999Z</time>
      </trkpt>
      <trkpt lat="43.77491" lon="3.79861">
        <ele>498.7</ele>
        <time>2012-11-01T16:08:49.999Z</time>
      </trkpt>
      <trkpt lat="43.77489" lon="3.79858">
        <ele>498.5</ele>
        <time>2012-11-01T16:08:51.999Z</time>
      </trkpt>
      <trkpt lat="43.77488" lon="3.79856">
        <ele>498.5</ele>
        <time>2012-11-01T16:08:52.999Z</time>
      </trkpt>
      <trkpt lat="43.77485" lon="3.79852">
        <ele>498.3</ele>
        <time>2012-11-01T16:08:55.999Z</time>
      </trkpt>
      <trkpt lat="43.77484" lon="3.79851">
        <ele>498.2</ele>
        <time>2012-11-01T16:08:56.999Z</time>
      </trkpt>
      <trkpt lat="43.77482" lon="3.79847">
        <ele>497.9</ele>
        <time>2012-11-01T16:09:00.999Z</time>
      </trkpt>
      <trkpt lat="43.77482" lon="3.79846">
        <ele>497.9</ele>
        <time>2012-11-01T16:09:01.999Z</time>
      </trkpt>
      <trkpt lat="43.77479" lon="3.79841">
        <ele>497.6</ele>
        <time>2012-11-01T16:09:05.999Z</time>
      </trkpt>
      <trkpt lat="43.77479" lon="3.79839">
        <ele>497.6</ele>
        <time>2012-11-01T16:09:06.999Z</time>
      </trkpt>
      <trkpt lat="43.77477" lon="3.79834">
        <ele>497.4</ele>
        <time>2012-11-01T16:09:10.999Z</time>
      </trkpt>
      <trkpt lat="43.77476" lon="3.79832">
        <ele>497.3</ele>
        <time>2012-11-01T16:09:11.999Z</time>
      </trkpt>
      <trkpt lat="43.77474" lon="3.79827">
        <ele>497.1</ele>
        <time>2012-11-01T16:09:15.999Z</time>
      </trkpt>
      <trkpt lat="43.77474" lon="3.79826">
        <ele>497</ele>
        <time>2012-11-01T16:09:16.999Z</time>
      </trkpt>
      <trkpt lat="43.77473" lon="3.79821">
        <ele>496.8</ele>
        <time>2012-11-01T16:09:20.999Z</time>
      </trkpt>
      <trkpt lat="43.77472" lon="3.7982">
        <ele>496.7</ele>
        <time>2012-11-01T16:09:21.999Z</time>
      </trkpt>
      <trkpt lat="43.77471" lon="3.79814">
        <ele>496.4</ele>
        <time>2012-11-01T16:09:26.999Z</time>
      </trkpt>
      <trkpt lat="43.7747" lon="3.79813">
        <ele>496.4</ele>
        <time>2012-11-01T16:09:27.999Z</time>
      </trkpt>
      <trkpt lat="43.77469" lon="3.79808">
        <ele>496.1</ele>
        <time>2012-11-01T16:09:32.999Z</time>
      </trkpt>
      <trkpt lat="43.77468" lon="3.79807">
        <ele>496</ele>
        <time>2012-11-01T16:09:33.999Z</time>
      </trkpt>
      <trkpt lat="43.77467" lon="3.79801">
        <ele>495.7</ele>
        <time>2012-11-01T16:09:38.999Z</time>
      </trkpt>
      <trkpt lat="43.77466" lon="3.798">
        <ele>495.7</ele>
        <time>2012-11-01T16:09:39.999Z</time>
      </trkpt>
      <trkpt lat="43.77464" lon="3.79795">
        <ele>495.4</ele>
        <time>2012-11-01T16:09:43.999Z</time>
      </trkpt>
      <trkpt lat="43.77463" lon="3.79793">
        <ele>495.4</ele>
        <time>2012-11-01T16:09:44.999Z</time>
      </trkpt>
      <trkpt lat="43.77461" lon="3.79788">
        <ele>495.2</ele>
        <time>2012-11-01T16:09:48.999Z</time>
      </trkpt>
      <trkpt lat="43.77461" lon="3.79787">
        <ele>495.1</ele>
        <time>2012-11-01T16:09:49.999Z</time>
      </trkpt>
      <trkpt lat="43.77459" lon="3.79782">
        <ele>495</ele>
        <time>2012-11-01T16:09:53.999Z</time>
      </trkpt>
      <trkpt lat="43.77458" lon="3.79781">
        <ele>494.9</ele>
        <time>2012-11-01T16:09:54.999Z</time>
      </trkpt>
      <trkpt lat="43.77457" lon="3.79776">
        <ele>494.7</ele>
        <time>2012-11-01T16:09:57.999Z</time>
      </trkpt>
      <trkpt lat="43.77457" lon="3.79774">
        <ele>494.7</ele>
        <time>2012-11-01T16:09:58.999Z</time>
      </trkpt>
      <trkpt lat="43.77456" lon="3.7977">
        <ele>494.5</ele>
        <time>2012-11-01T16:10:01.999Z</time>
      </trkpt>
      <trkpt lat="43.77456" lon="3.79768">
        <ele>494.5</ele>
        <time>2012-11-01T16:10:02.999Z</time>
      </trkpt>
      <trkpt lat="43.77455" lon="3.79763">
        <ele>494.2</ele>
        <time>2012-11-01T16:10:06.999Z</time>
      </trkpt>
      <trkpt lat="43.77455" lon="3.79762">
        <ele>494.2</ele>
        <time>2012-11-01T16:10:07.999Z</time>
      </trkpt>
      <trkpt lat="43.77455" lon="3.79756">
        <ele>494</ele>
        <time>2012-11-01T16:10:11.999Z</time>
      </trkpt>
      <trkpt lat="43.77454" lon="3.79754">
        <ele>493.9</ele>
        <time>2012-11-01T16:10:12.999Z</time>
      </trkpt>
      <trkpt lat="43.77454" lon="3.79749">
        <ele>493.7</ele>
        <time>2012-11-01T16:10:16.999Z</time>
      </trkpt>
      <trkpt lat="43.77454" lon="3.79748">
        <ele>493.7</ele>
        <time>2012-11-01T16:10:17.999Z</time>
      </trkpt>
      <trkpt lat="43.77453" lon="3.79744">
        <ele>493.5</ele>
        <time>2012-11-01T16:10:20.999Z</time>
      </trkpt>
      <trkpt lat="43.77452" lon="3.79742">
        <ele>493.5</ele>
        <time>2012-11-01T16:10:21.999Z</time>
      </trkpt>
      <trkpt lat="43.77452" lon="3.79736">
        <ele>493.3</ele>
        <time>2012-11-01T16:10:25.999Z</time>
      </trkpt>
      <trkpt lat="43.77451" lon="3.79734">
        <ele>493.2</ele>
        <time>2012-11-01T16:10:26.999Z</time>
      </trkpt>
      <trkpt lat="43.77452" lon="3.79729">
        <ele>493</ele>
        <time>2012-11-01T16:10:30.999Z</time>
      </trkpt>
      <trkpt lat="43.77451" lon="3.79727">
        <ele>493</ele>
        <time>2012-11-01T16:10:31.999Z</time>
      </trkpt>
      <trkpt lat="43.77451" lon="3.79721">
        <ele>492.8</ele>
        <time>2012-11-01T16:10:35.999Z</time>
      </trkpt>
      <trkpt lat="43.77451" lon="3.7972">
        <ele>492.7</ele>
        <time>2012-11-01T16:10:36.999Z</time>
      </trkpt>
      <trkpt lat="43.77451" lon="3.79714">
        <ele>492.5</ele>
        <time>2012-11-01T16:10:40.999Z</time>
      </trkpt>
      <trkpt lat="43.77451" lon="3.79713">
        <ele>492.4</ele>
        <time>2012-11-01T16:10:41.999Z</time>
      </trkpt>
      <trkpt lat="43.7745" lon="3.79709">
        <ele>492.3</ele>
        <time>2012-11-01T16:10:44.999Z</time>
      </trkpt>
      <trkpt lat="43.77449" lon="3.79707">
        <ele>492.2</ele>
        <time>2012-11-01T16:10:45.999Z</time>
      </trkpt>
      <trkpt lat="43.77447" lon="3.79702">
        <ele>492</ele>
        <time>2012-11-01T16:10:49.999Z</time>
      </trkpt>
      <trkpt lat="43.77447" lon="3.79701">
        <ele>492</ele>
        <time>2012-11-01T16:10:50.999Z</time>
      </trkpt>
      <trkpt lat="43.77445" lon="3.79696">
        <ele>491.8</ele>
        <time>2012-11-01T16:10:53.999Z</time>
      </trkpt>
      <trkpt lat="43.77445" lon="3.79694">
        <ele>491.8</ele>
        <time>2012-11-01T16:10:54.999Z</time>
      </trkpt>
      <trkpt lat="43.77444" lon="3.79688">
        <ele>491.6</ele>
        <time>2012-11-01T16:10:58.999Z</time>
      </trkpt>
      <trkpt lat="43.77444" lon="3.79687">
        <ele>491.5</ele>
        <time>2012-11-01T16:10:59.999Z</time>
      </trkpt>
      <trkpt lat="43.77443" lon="3.79681">
        <ele>491.3</ele>
        <time>2012-11-01T16:11:03.999Z</time>
      </trkpt>
      <trkpt lat="43.77443" lon="3.7968">
        <ele>491.3</ele>
        <time>2012-11-01T16:11:04.999Z</time>
      </trkpt>
      <trkpt lat="43.77443" lon="3.79675">
        <ele>491.1</ele>
        <time>2012-11-01T16:11:08.999Z</time>
      </trkpt>
      <trkpt lat="43.77442" lon="3.79674">
        <ele>491</ele>
        <time>2012-11-01T16:11:09.999Z</time>
      </trkpt>
      <trkpt lat="43.77441" lon="3.79669">
        <ele>490.7</ele>
        <time>2012-11-01T16:11:14.999Z</time>
      </trkpt>
      <trkpt lat="43.7744" lon="3.79668">
        <ele>490.7</ele>
        <time>2012-11-01T16:11:15.999Z</time>
      </trkpt>
      <trkpt lat="43.77439" lon="3.79663">
        <ele>490.4</ele>
        <time>2012-11-01T16:11:20.999Z</time>
      </trkpt>
      <trkpt lat="43.77439" lon="3.79662">
        <ele>490.4</ele>
        <time>2012-11-01T16:11:21.999Z</time>
      </trkpt>
      <trkpt lat="43.77438" lon="3.79656">
        <ele>490.2</ele>
        <time>2012-11-01T16:11:25.999Z</time>
      </trkpt>
      <trkpt lat="43.77438" lon="3.79654">
        <ele>490.1</ele>
        <time>2012-11-01T16:11:26.999Z</time>
      </trkpt>
      <trkpt lat="43.77438" lon="3.79649">
        <ele>489.9</ele>
        <time>2012-11-01T16:11:31.999Z</time>
      </trkpt>
      <trkpt lat="43.77437" lon="3.79647">
        <ele>489.8</ele>
        <time>2012-11-01T16:11:32.999Z</time>
      </trkpt>
      <trkpt lat="43.77435" lon="3.79642">
        <ele>489.5</ele>
        <time>2012-11-01T16:11:37.999Z</time>
      </trkpt>
      <trkpt lat="43.77435" lon="3.79641">
        <ele>489.4</ele>
        <time>2012-11-01T16:11:38.999Z</time>
      </trkpt>
      <trkpt lat="43.77434" lon="3.79635">
        <ele>489.1</ele>
        <time>2012-11-01T16:11:43.999Z</time>
      </trkpt>
      <trkpt lat="43.77433" lon="3.79635">
        <ele>489.1</ele>
        <time>2012-11-01T16:11:44.999Z</time>
      </trkpt>
      <trkpt lat="43.7743" lon="3.79631">
        <ele>488.7</ele>
        <time>2012-11-01T16:11:50.999Z</time>
      </trkpt>
      <trkpt lat="43.7743" lon="3.7963">
        <ele>488.7</ele>
        <time>2012-11-01T16:11:51.999Z</time>
      </trkpt>
      <trkpt lat="43.77428" lon="3.79625">
        <ele>488.3</ele>
        <time>2012-11-01T16:11:58.999Z</time>
      </trkpt>
      <trkpt lat="43.77427" lon="3.79624">
        <ele>488.2</ele>
        <time>2012-11-01T16:11:59.999Z</time>
      </trkpt>
      <trkpt lat="43.77426" lon="3.79619">
        <ele>487.8</ele>
        <time>2012-11-01T16:12:06.999Z</time>
      </trkpt>
      <trkpt lat="43.77425" lon="3.79618">
        <ele>487.8</ele>
        <time>2012-11-01T16:12:07.999Z</time>
      </trkpt>
      <trkpt lat="43.77424" lon="3.79613">
        <ele>487.6</ele>
        <time>2012-11-01T16:12:11.999Z</time>
      </trkpt>
      <trkpt lat="43.77423" lon="3.79612">
        <ele>487.5</ele>
        <time>2012-11-01T16:12:12.999Z</time>
      </trkpt>
      <trkpt lat="43.7742" lon="3.79608">
        <ele>487.2</ele>
        <time>2012-11-01T16:12:18.999Z</time>
      </trkpt>
      <trkpt lat="43.77419" lon="3.79607">
        <ele>487.1</ele>
        <time>2012-11-01T16:12:19.999Z</time>
      </trkpt>
      <trkpt lat="43.77416" lon="3.79603">
        <ele>486.8</ele>
        <time>2012-11-01T16:12:24.999Z</time>
      </trkpt>
      <trkpt lat="43.77416" lon="3.79602">
        <ele>486.8</ele>
        <time>2012-11-01T16:12:25.999Z</time>
      </trkpt>
      <trkpt lat="43.77412" lon="3.796">
        <ele>486.5</ele>
        <time>2012-11-01T16:12:30.999Z</time>
      </trkpt>
      <trkpt lat="43.77411" lon="3.79599">
        <ele>486.4</ele>
        <time>2012-11-01T16:12:31.999Z</time>
      </trkpt>
      <trkpt lat="43.77408" lon="3.79596">
        <ele>486.2</ele>
        <time>2012-11-01T16:12:35.999Z</time>
      </trkpt>
      <trkpt lat="43.77407" lon="3.79595">
        <ele>486.1</ele>
        <time>2012-11-01T16:12:36.999Z</time>
      </trkpt>
      <trkpt lat="43.77404" lon="3.79593">
        <ele>485.9</ele>
        <time>2012-11-01T16:12:39.999Z</time>
      </trkpt>
      <trkpt lat="43.77403" lon="3.79593">
        <ele>485.9</ele>
        <time>2012-11-01T16:12:40.999Z</time>
      </trkpt>
      <trkpt lat="43.774" lon="3.79589">
        <ele>485.6</ele>
        <time>2012-11-01T16:12:45.999Z</time>
      </trkpt>
      <trkpt lat="43.77399" lon="3.79588">
        <ele>485.5</ele>
        <time>2012-11-01T16:12:46.999Z</time>
      </trkpt>
      <trkpt lat="43.77398" lon="3.79582">
        <ele>485.3</ele>
        <time>2012-11-01T16:12:50.999Z</time>
      </trkpt>
      <trkpt lat="43.77398" lon="3.79581">
        <ele>485.2</ele>
        <time>2012-11-01T16:12:51.999Z</time>
      </trkpt>
      <trkpt lat="43.77396" lon="3.79576">
        <ele>484.9</ele>
        <time>2012-11-01T16:12:55.999Z</time>
      </trkpt>
      <trkpt lat="43.77395" lon="3.79574">
        <ele>484.9</ele>
        <time>2012-11-01T16:12:56.999Z</time>
      </trkpt>
      <trkpt lat="43.77393" lon="3.7957">
        <ele>484.6</ele>
        <time>2012-11-01T16:13:00.999Z</time>
      </trkpt>
      <trkpt lat="43.77393" lon="3.79569">
        <ele>484.6</ele>
        <time>2012-11-01T16:13:01.999Z</time>
      </trkpt>
      <trkpt lat="43.7739" lon="3.79564">
        <ele>484.3</ele>
        <time>2012-11-01T16:13:05.999Z</time>
      </trkpt>
      <trkpt lat="43.7739" lon="3.79563">
        <ele>484.2</ele>
        <time>2012-11-01T16:13:06.999Z</time>
      </trkpt>
      <trkpt lat="43.77387" lon="3.79559">
        <ele>484</ele>
        <time>2012-11-01T16:13:10.999Z</time>
      </trkpt>
      <trkpt lat="43.77387" lon="3.79557">
        <ele>483.9</ele>
        <time>2012-11-01T16:13:11.999Z</time>
      </trkpt>
      <trkpt lat="43.77384" lon="3.79553">
        <ele>483.6</ele>
        <time>2012-11-01T16:13:15.999Z</time>
      </trkpt>
      <trkpt lat="43.77384" lon="3.79552">
        <ele>483.6</ele>
        <time>2012-11-01T16:13:16.999Z</time>
      </trkpt>
      <trkpt lat="43.77382" lon="3.79548">
        <ele>483.3</ele>
        <time>2012-11-01T16:13:20.999Z</time>
      </trkpt>
      <trkpt lat="43.77381" lon="3.79547">
        <ele>483.2</ele>
        <time>2012-11-01T16:13:21.999Z</time>
      </trkpt>
      <trkpt lat="43.77379" lon="3.79544">
        <ele>483.1</ele>
        <time>2012-11-01T16:13:24.999Z</time>
      </trkpt>
      <trkpt lat="43.77378" lon="3.79542">
        <ele>483</ele>
        <time>2012-11-01T16:13:25.999Z</time>
      </trkpt>
      <trkpt lat="43.77376" lon="3.79537">
        <ele>482.8</ele>
        <time>2012-11-01T16:13:28.999Z</time>
      </trkpt>
      <trkpt lat="43.77376" lon="3.79536">
        <ele>482.7</ele>
        <time>2012-11-01T16:13:29.999Z</time>
      </trkpt>
      <trkpt lat="43.77375" lon="3.79532">
        <ele>482.5</ele>
        <time>2012-11-01T16:13:32.999Z</time>
      </trkpt>
      <trkpt lat="43.77375" lon="3.7953">
        <ele>482.5</ele>
        <time>2012-11-01T16:13:33.999Z</time>
      </trkpt>
      <trkpt lat="43.77373" lon="3.79526">
        <ele>482.3</ele>
        <time>2012-11-01T16:13:36.999Z</time>
      </trkpt>
      <trkpt lat="43.77373" lon="3.79524">
        <ele>482.2</ele>
        <time>2012-11-01T16:13:37.999Z</time>
      </trkpt>
      <trkpt lat="43.77371" lon="3.7952">
        <ele>482</ele>
        <time>2012-11-01T16:13:40.999Z</time>
      </trkpt>
      <trkpt lat="43.7737" lon="3.79518">
        <ele>481.9</ele>
        <time>2012-11-01T16:13:41.999Z</time>
      </trkpt>
      <trkpt lat="43.77368" lon="3.79514">
        <ele>481.7</ele>
        <time>2012-11-01T16:13:44.999Z</time>
      </trkpt>
      <trkpt lat="43.77367" lon="3.79512">
        <ele>481.7</ele>
        <time>2012-11-01T16:13:45.999Z</time>
      </trkpt>
      <trkpt lat="43.77365" lon="3.79508">
        <ele>481.3</ele>
        <time>2012-11-01T16:13:50.999Z</time>
      </trkpt>
      <trkpt lat="43.77364" lon="3.79507">
        <ele>481.2</ele>
        <time>2012-11-01T16:13:51.999Z</time>
      </trkpt>
      <trkpt lat="43.77361" lon="3.79503">
        <ele>481</ele>
        <time>2012-11-01T16:13:55.999Z</time>
      </trkpt>
      <trkpt lat="43.77361" lon="3.79502">
        <ele>480.9</ele>
        <time>2012-11-01T16:13:56.999Z</time>
      </trkpt>
      <trkpt lat="43.77359" lon="3.79497">
        <ele>480.6</ele>
        <time>2012-11-01T16:14:00.999Z</time>
      </trkpt>
      <trkpt lat="43.77358" lon="3.79496">
        <ele>480.6</ele>
        <time>2012-11-01T16:14:01.999Z</time>
      </trkpt>
      <trkpt lat="43.77357" lon="3.79491">
        <ele>480.3</ele>
        <time>2012-11-01T16:14:06.999Z</time>
      </trkpt>
      <trkpt lat="43.77356" lon="3.7949">
        <ele>480.2</ele>
        <time>2012-11-01T16:14:07.999Z</time>
      </trkpt>
      <trkpt lat="43.77355" lon="3.79484">
        <ele>479.9</ele>
        <time>2012-11-01T16:14:11.999Z</time>
      </trkpt>
      <trkpt lat="43.77355" lon="3.79483">
        <ele>479.9</ele>
        <time>2012-11-01T16:14:12.999Z</time>
      </trkpt>
      <trkpt lat="43.77354" lon="3.79477">
        <ele>479.4</ele>
        <time>2012-11-01T16:14:19.999Z</time>
      </trkpt>
      <trkpt lat="43.77353" lon="3.79476">
        <ele>479.3</ele>
        <time>2012-11-01T16:14:20.999Z</time>
      </trkpt>
      <trkpt lat="43.77353" lon="3.7947">
        <ele>478.8</ele>
        <time>2012-11-01T16:14:27.999Z</time>
      </trkpt>
      <trkpt lat="43.77353" lon="3.7947">
        <ele>478.7</ele>
        <time>2012-11-01T16:14:28.999Z</time>
      </trkpt>
      <trkpt lat="43.7735" lon="3.79465">
        <ele>478.2</ele>
        <time>2012-11-01T16:14:35.999Z</time>
      </trkpt>
      <trkpt lat="43.7735" lon="3.79464">
        <ele>478.1</ele>
        <time>2012-11-01T16:14:36.999Z</time>
      </trkpt>
      <trkpt lat="43.77348" lon="3.7946">
        <ele>477.8</ele>
        <time>2012-11-01T16:14:40.999Z</time>
      </trkpt>
      <trkpt lat="43.77347" lon="3.79459">
        <ele>477.8</ele>
        <time>2012-11-01T16:14:41.999Z</time>
      </trkpt>
      <trkpt lat="43.77345" lon="3.79454">
        <ele>477.5</ele>
        <time>2012-11-01T16:14:45.999Z</time>
      </trkpt>
      <trkpt lat="43.77345" lon="3.79453">
        <ele>477.4</ele>
        <time>2012-11-01T16:14:46.999Z</time>
      </trkpt>
      <trkpt lat="43.77342" lon="3.79449">
        <ele>477</ele>
        <time>2012-11-01T16:14:53.000Z</time>
      </trkpt>
      <trkpt lat="43.77342" lon="3.79448">
        <ele>476.9</ele>
        <time>2012-11-01T16:14:54.000Z</time>
      </trkpt>
      <trkpt lat="43.77339" lon="3.79444">
        <ele>476.5</ele>
        <time>2012-11-01T16:14:59.000Z</time>
      </trkpt>
      <trkpt lat="43.77338" lon="3.79443">
        <ele>476.5</ele>
        <time>2012-11-01T16:15:00.000Z</time>
      </trkpt>
      <trkpt lat="43.77336" lon="3.79439">
        <ele>476.1</ele>
        <time>2012-11-01T16:15:05.000Z</time>
      </trkpt>
      <trkpt lat="43.77335" lon="3.79438">
        <ele>476</ele>
        <time>2012-11-01T16:15:06.000Z</time>
      </trkpt>
      <trkpt lat="43.77332" lon="3.79433">
        <ele>475.6</ele>
        <time>2012-11-01T16:15:11.000Z</time>
      </trkpt>
      <trkpt lat="43.77332" lon="3.79432">
        <ele>475.5</ele>
        <time>2012-11-01T16:15:12.000Z</time>
      </trkpt>
      <trkpt lat="43.7733" lon="3.79426">
        <ele>475.1</ele>
        <time>2012-11-01T16:15:18.000Z</time>
      </trkpt>
      <trkpt lat="43.7733" lon="3.79425">
        <ele>475</ele>
        <time>2012-11-01T16:15:19.000Z</time>
      </trkpt>
      <trkpt lat="43.77327" lon="3.79421">
        <ele>474.5</ele>
        <time>2012-11-01T16:15:26.000Z</time>
      </trkpt>
      <trkpt lat="43.77327" lon="3.7942">
        <ele>474.4</ele>
        <time>2012-11-01T16:15:27.000Z</time>
      </trkpt>
      <trkpt lat="43.77322" lon="3.7942">
        <ele>473.7</ele>
        <time>2012-11-01T16:15:36.000Z</time>
      </trkpt>
      <trkpt lat="43.77322" lon="3.7942">
        <ele>473.6</ele>
        <time>2012-11-01T16:15:37.000Z</time>
      </trkpt>
      <trkpt lat="43.77318" lon="3.79419">
        <ele>473.2</ele>
        <time>2012-11-01T16:15:42.000Z</time>
      </trkpt>
      <trkpt lat="43.77317" lon="3.79419">
        <ele>473.1</ele>
        <time>2012-11-01T16:15:43.000Z</time>
      </trkpt>
      <trkpt lat="43.77313" lon="3.79419">
        <ele>472.4</ele>
        <time>2012-11-01T16:15:52.000Z</time>
      </trkpt>
      <trkpt lat="43.77312" lon="3.79419">
        <ele>472.3</ele>
        <time>2012-11-01T16:15:53.000Z</time>
      </trkpt>
      <trkpt lat="43.77308" lon="3.79416">
        <ele>471.7</ele>
        <time>2012-11-01T16:16:01.000Z</time>
      </trkpt>
      <trkpt lat="43.77308" lon="3.79416">
        <ele>471.6</ele>
        <time>2012-11-01T16:16:02.000Z</time>
      </trkpt>
      <trkpt lat="43.77307" lon="3.7941">
        <ele>471</ele>
        <time>2012-11-01T16:16:09.000Z</time>
      </trkpt>
      <trkpt lat="43.77307" lon="3.79409">
        <ele>470.9</ele>
        <time>2012-11-01T16:16:10.000Z</time>
      </trkpt>
      <trkpt lat="43.77306" lon="3.79404">
        <ele>470.3</ele>
        <time>2012-11-01T16:16:17.000Z</time>
      </trkpt>
      <trkpt lat="43.77306" lon="3.79403">
        <ele>470.3</ele>
        <time>2012-11-01T16:16:18.000Z</time>
      </trkpt>
      <trkpt lat="43.77306" lon="3.79397">
        <ele>469.8</ele>
        <time>2012-11-01T16:16:24.000Z</time>
      </trkpt>
      <trkpt lat="43.77305" lon="3.79396">
        <ele>469.7</ele>
        <time>2012-11-01T16:16:25.000Z</time>
      </trkpt>
      <trkpt lat="43.77304" lon="3.79391">
        <ele>469</ele>
        <time>2012-11-01T16:16:33.000Z</time>
      </trkpt>
      <trkpt lat="43.77304" lon="3.7939">
        <ele>468.9</ele>
        <time>2012-11-01T16:16:34.000Z</time>
      </trkpt>
      <trkpt lat="43.77302" lon="3.79384">
        <ele>468.2</ele>
        <time>2012-11-01T16:16:43.000Z</time>
      </trkpt>
      <trkpt lat="43.77302" lon="3.79384">
        <ele>468.1</ele>
        <time>2012-11-01T16:16:44.000Z</time>
      </trkpt>
      <trkpt lat="43.77302" lon="3.79378">
        <ele>467.6</ele>
        <time>2012-11-01T16:16:49.000Z</time>
      </trkpt>
      <trkpt lat="43.77302" lon="3.79377">
        <ele>467.6</ele>
        <time>2012-11-01T16:16:50.000Z</time>
      </trkpt>
      <trkpt lat="43.77303" lon="3.79371">
        <ele>467.2</ele>
        <time>2012-11-01T16:16:54.000Z</time>
      </trkpt>
      <trkpt lat="43.77303" lon="3.7937">
        <ele>467.1</ele>
        <time>2012-11-01T16:16:55.000Z</time>
      </trkpt>
      <trkpt lat="43.77304" lon="3.79364">
        <ele>466.5</ele>
        <time>2012-11-01T16:17:02.000Z</time>
      </trkpt>
      <trkpt lat="43.77304" lon="3.79363">
        <ele>466.4</ele>
        <time>2012-11-01T16:17:03.000Z</time>
      </trkpt>
      <trkpt lat="43.77304" lon="3.79358">
        <ele>465.2</ele>
        <time>2012-11-01T16:17:16.000Z</time>
      </trkpt>
      <trkpt lat="43.77304" lon="3.79357">
        <ele>465.1</ele>
        <time>2012-11-01T16:17:17.000Z</time>
      </trkpt>
      <trkpt lat="43.77301" lon="3.79352">
        <ele>464.4</ele>
        <time>2012-11-01T16:17:25.000Z</time>
      </trkpt>
      <trkpt lat="43.773" lon="3.79352">
        <ele>464.3</ele>
        <time>2012-11-01T16:17:26.000Z</time>
      </trkpt>
      <trkpt lat="43.77298" lon="3.79346">
        <ele>463.6</ele>
        <time>2012-11-01T16:17:34.000Z</time>
      </trkpt>
      <trkpt lat="43.77298" lon="3.79346">
        <ele>463.5</ele>
        <time>2012-11-01T16:17:35.000Z</time>
      </trkpt>
      <trkpt lat="43.77299" lon="3.7934">
        <ele>462.9</ele>
        <time>2012-11-01T16:17:41.000Z</time>
      </trkpt>
      <trkpt lat="43.77299" lon="3.79339">
        <ele>462.8</ele>
        <time>2012-11-01T16:17:42.000Z</time>
      </trkpt>
      <trkpt lat="43.77298" lon="3.79334">
        <ele>462.1</ele>
        <time>2012-11-01T16:17:49.000Z</time>
      </trkpt>
      <trkpt lat="43.77298" lon="3.79333">
        <ele>462.1</ele>
        <time>2012-11-01T16:17:50.000Z</time>
      </trkpt>
      <trkpt lat="43.77298" lon="3.79327">
        <ele>461.4</ele>
        <time>2012-11-01T16:17:57.000Z</time>
      </trkpt>
      <trkpt lat="43.77298" lon="3.79326">
        <ele>461.3</ele>
        <time>2012-11-01T16:17:58.000Z</time>
      </trkpt>
      <trkpt lat="43.77297" lon="3.7932">
        <ele>460.6</ele>
        <time>2012-11-01T16:18:05.000Z</time>
      </trkpt>
      <trkpt lat="43.77297" lon="3.79319">
        <ele>460.5</ele>
        <time>2012-11-01T16:18:06.000Z</time>
      </trkpt>
      <trkpt lat="43.77295" lon="3.79315">
        <ele>460</ele>
        <time>2012-11-01T16:18:12.000Z</time>
      </trkpt>
      <trkpt lat="43.77294" lon="3.79314">
        <ele>459.9</ele>
        <time>2012-11-01T16:18:13.000Z</time>
      </trkpt>
      <trkpt lat="43.77293" lon="3.79308">
        <ele>459.1</ele>
        <time>2012-11-01T16:18:21.000Z</time>
      </trkpt>
      <trkpt lat="43.77293" lon="3.79307">
        <ele>459</ele>
        <time>2012-11-01T16:18:22.000Z</time>
      </trkpt>
      <trkpt lat="43.77291" lon="3.79302">
        <ele>458.1</ele>
        <time>2012-11-01T16:18:31.000Z</time>
      </trkpt>
      <trkpt lat="43.77291" lon="3.79301">
        <ele>458</ele>
        <time>2012-11-01T16:18:32.000Z</time>
      </trkpt>
      <trkpt lat="43.77291" lon="3.79295">
        <ele>457.1</ele>
        <time>2012-11-01T16:18:41.000Z</time>
      </trkpt>
      <trkpt lat="43.77291" lon="3.79294">
        <ele>457</ele>
        <time>2012-11-01T16:18:42.000Z</time>
      </trkpt>
      <trkpt lat="43.77289" lon="3.79289">
        <ele>456.1</ele>
        <time>2012-11-01T16:18:51.000Z</time>
      </trkpt>
      <trkpt lat="43.77289" lon="3.79288">
        <ele>456</ele>
        <time>2012-11-01T16:18:52.000Z</time>
      </trkpt>
      <trkpt lat="43.77286" lon="3.79283">
        <ele>455.1</ele>
        <time>2012-11-01T16:19:01.000Z</time>
      </trkpt>
      <trkpt lat="43.77285" lon="3.79283">
        <ele>455</ele>
        <time>2012-11-01T16:19:02.000Z</time>
      </trkpt>
      <trkpt lat="43.77282" lon="3.7928">
        <ele>453.9</ele>
        <time>2012-11-01T16:19:11.000Z</time>
      </trkpt>
      <trkpt lat="43.77282" lon="3.79279">
        <ele>453.8</ele>
        <time>2012-11-01T16:19:12.000Z</time>
      </trkpt>
      <trkpt lat="43.77279" lon="3.79275">
        <ele>452.9</ele>
        <time>2012-11-01T16:19:20.000Z</time>
      </trkpt>
      <trkpt lat="43.77279" lon="3.79274">
        <ele>452.8</ele>
        <time>2012-11-01T16:19:21.000Z</time>
      </trkpt>
      <trkpt lat="43.77276" lon="3.79271">
        <ele>452.1</ele>
        <time>2012-11-01T16:19:27.000Z</time>
      </trkpt>
      <trkpt lat="43.77275" lon="3.7927">
        <ele>452</ele>
        <time>2012-11-01T16:19:28.000Z</time>
      </trkpt>
      <trkpt lat="43.77272" lon="3.79266">
        <ele>451.5</ele>
        <time>2012-11-01T16:19:33.000Z</time>
      </trkpt>
      <trkpt lat="43.77271" lon="3.79265">
        <ele>451.4</ele>
        <time>2012-11-01T16:19:34.000Z</time>
      </trkpt>
      <trkpt lat="43.77268" lon="3.79261">
        <ele>450.6</ele>
        <time>2012-11-01T16:19:41.000Z</time>
      </trkpt>
      <trkpt lat="43.77267" lon="3.79261">
        <ele>450.5</ele>
        <time>2012-11-01T16:19:42.000Z</time>
      </trkpt>
      <trkpt lat="43.77264" lon="3.79258">
        <ele>449.8</ele>
        <time>2012-11-01T16:19:48.000Z</time>
      </trkpt>
      <trkpt lat="43.77263" lon="3.79257">
        <ele>449.7</ele>
        <time>2012-11-01T16:19:49.000Z</time>
      </trkpt>
      <trkpt lat="43.7726" lon="3.79253">
        <ele>448.8</ele>
        <time>2012-11-01T16:19:56.000Z</time>
      </trkpt>
      <trkpt lat="43.7726" lon="3.79252">
        <ele>448.7</ele>
        <time>2012-11-01T16:19:57.000Z</time>
      </trkpt>
      <trkpt lat="43.77257" lon="3.79247">
        <ele>447.9</ele>
        <time>2012-11-01T16:20:04.000Z</time>
      </trkpt>
      <trkpt lat="43.77257" lon="3.79247">
        <ele>447.8</ele>
        <time>2012-11-01T16:20:05.000Z</time>
      </trkpt>
      <trkpt lat="43.77254" lon="3.79242">
        <ele>447.1</ele>
        <time>2012-11-01T16:20:11.000Z</time>
      </trkpt>
      <trkpt lat="43.77253" lon="3.79242">
        <ele>447</ele>
        <time>2012-11-01T16:20:12.000Z</time>
      </trkpt>
      <trkpt lat="43.7725" lon="3.79237">
        <ele>446.2</ele>
        <time>2012-11-01T16:20:19.000Z</time>
      </trkpt>
      <trkpt lat="43.7725" lon="3.79237">
        <ele>446.1</ele>
        <time>2012-11-01T16:20:20.000Z</time>
      </trkpt>
      <trkpt lat="43.77246" lon="3.79232">
        <ele>445.5</ele>
        <time>2012-11-01T16:20:26.000Z</time>
      </trkpt>
      <trkpt lat="43.77246" lon="3.79232">
        <ele>445.4</ele>
        <time>2012-11-01T16:20:27.000Z</time>
      </trkpt>
      <trkpt lat="43.77242" lon="3.79229">
        <ele>444.8</ele>
        <time>2012-11-01T16:20:32.000Z</time>
      </trkpt>
      <trkpt lat="43.77242" lon="3.79229">
        <ele>444.7</ele>
        <time>2012-11-01T16:20:33.000Z</time>
      </trkpt>
      <trkpt lat="43.77237" lon="3.79227">
        <ele>444.1</ele>
        <time>2012-11-01T16:20:39.000Z</time>
      </trkpt>
      <trkpt lat="43.77237" lon="3.79227">
        <ele>444</ele>
        <time>2012-11-01T16:20:40.000Z</time>
      </trkpt>
      <trkpt lat="43.77233" lon="3.79225">
        <ele>443.5</ele>
        <time>2012-11-01T16:20:45.000Z</time>
      </trkpt>
      <trkpt lat="43.77232" lon="3.79225">
        <ele>443.4</ele>
        <time>2012-11-01T16:20:46.000Z</time>
      </trkpt>
      <trkpt lat="43.77227" lon="3.79224">
        <ele>442.8</ele>
        <time>2012-11-01T16:20:51.000Z</time>
      </trkpt>
      <trkpt lat="43.77227" lon="3.79224">
        <ele>442.7</ele>
        <time>2012-11-01T16:20:52.000Z</time>
      </trkpt>
      <trkpt lat="43.77223" lon="3.79225">
        <ele>442.1</ele>
        <time>2012-11-01T16:20:58.000Z</time>
      </trkpt>
      <trkpt lat="43.77222" lon="3.79225">
        <ele>441.9</ele>
        <time>2012-11-01T16:20:59.000Z</time>
      </trkpt>
      <trkpt lat="43.77217" lon="3.79226">
        <ele>441.3</ele>
        <time>2012-11-01T16:21:04.000Z</time>
      </trkpt>
      <trkpt lat="43.77217" lon="3.79226">
        <ele>441.2</ele>
        <time>2012-11-01T16:21:05.000Z</time>
      </trkpt>
      <trkpt lat="43.77213" lon="3.79226">
        <ele>440.5</ele>
        <time>2012-11-01T16:21:11.000Z</time>
      </trkpt>
      <trkpt lat="43.77212" lon="3.79226">
        <ele>440.3</ele>
        <time>2012-11-01T16:21:12.000Z</time>
      </trkpt>
      <trkpt lat="43.77208" lon="3.79226">
        <ele>439.8</ele>
        <time>2012-11-01T16:21:17.000Z</time>
      </trkpt>
      <trkpt lat="43.77207" lon="3.79226">
        <ele>439.7</ele>
        <time>2012-11-01T16:21:18.000Z</time>
      </trkpt>
      <trkpt lat="43.77203" lon="3.79227">
        <ele>439.1</ele>
        <time>2012-11-01T16:21:23.000Z</time>
      </trkpt>
      <trkpt lat="43.77202" lon="3.79226">
        <ele>438.9</ele>
        <time>2012-11-01T16:21:24.000Z</time>
      </trkpt>
      <trkpt lat="43.77199" lon="3.79224">
        <ele>438.1</ele>
        <time>2012-11-01T16:21:31.000Z</time>
      </trkpt>
      <trkpt lat="43.77198" lon="3.79224">
        <ele>438</ele>
        <time>2012-11-01T16:21:32.000Z</time>
      </trkpt>
      <trkpt lat="43.77196" lon="3.79218">
        <ele>437.2</ele>
        <time>2012-11-01T16:21:39.000Z</time>
      </trkpt>
      <trkpt lat="43.77196" lon="3.79217">
        <ele>437.1</ele>
        <time>2012-11-01T16:21:40.000Z</time>
      </trkpt>
      <trkpt lat="43.77195" lon="3.79211">
        <ele>435.3</ele>
        <time>2012-11-01T16:21:55.000Z</time>
      </trkpt>
      <trkpt lat="43.77194" lon="3.79211">
        <ele>435.2</ele>
        <time>2012-11-01T16:21:56.000Z</time>
      </trkpt>
      <trkpt lat="43.77193" lon="3.79205">
        <ele>434.3</ele>
        <time>2012-11-01T16:22:03.000Z</time>
      </trkpt>
      <trkpt lat="43.77193" lon="3.79204">
        <ele>434.2</ele>
        <time>2012-11-01T16:22:04.000Z</time>
      </trkpt>
      <trkpt lat="43.77191" lon="3.79199">
        <ele>433.3</ele>
        <time>2012-11-01T16:22:11.000Z</time>
      </trkpt>
      <trkpt lat="43.7719" lon="3.79199">
        <ele>433.2</ele>
        <time>2012-11-01T16:22:12.000Z</time>
      </trkpt>
      <trkpt lat="43.77188" lon="3.79194">
        <ele>432.5</ele>
        <time>2012-11-01T16:22:18.000Z</time>
      </trkpt>
      <trkpt lat="43.77187" lon="3.79193">
        <ele>432.4</ele>
        <time>2012-11-01T16:22:19.000Z</time>
      </trkpt>
      <trkpt lat="43.77185" lon="3.79189">
        <ele>431.6</ele>
        <time>2012-11-01T16:22:25.000Z</time>
      </trkpt>
      <trkpt lat="43.77184" lon="3.79188">
        <ele>431.5</ele>
        <time>2012-11-01T16:22:26.000Z</time>
      </trkpt>
      <trkpt lat="43.77184" lon="3.79182">
        <ele>430.9</ele>
        <time>2012-11-01T16:22:31.000Z</time>
      </trkpt>
      <trkpt lat="43.77183" lon="3.7918">
        <ele>430.8</ele>
        <time>2012-11-01T16:22:32.000Z</time>
      </trkpt>
      <trkpt lat="43.77183" lon="3.79174">
        <ele>430.2</ele>
        <time>2012-11-01T16:22:37.000Z</time>
      </trkpt>
      <trkpt lat="43.77183" lon="3.79173">
        <ele>430.1</ele>
        <time>2012-11-01T16:22:38.000Z</time>
      </trkpt>
      <trkpt lat="43.7718" lon="3.79168">
        <ele>429.2</ele>
        <time>2012-11-01T16:22:46.000Z</time>
      </trkpt>
      <trkpt lat="43.7718" lon="3.79167">
        <ele>429</ele>
        <time>2012-11-01T16:22:47.000Z</time>
      </trkpt>
      <trkpt lat="43.77176" lon="3.79165">
        <ele>428.4</ele>
        <time>2012-11-01T16:22:52.000Z</time>
      </trkpt>
      <trkpt lat="43.77175" lon="3.79164">
        <ele>428.3</ele>
        <time>2012-11-01T16:22:53.000Z</time>
      </trkpt>
      <trkpt lat="43.77172" lon="3.7916">
        <ele>427.6</ele>
        <time>2012-11-01T16:22:59.000Z</time>
      </trkpt>
      <trkpt lat="43.77171" lon="3.79159">
        <ele>427.5</ele>
        <time>2012-11-01T16:23:00.000Z</time>
      </trkpt>
      <trkpt lat="43.77168" lon="3.79156">
        <ele>426.9</ele>
        <time>2012-11-01T16:23:05.000Z</time>
      </trkpt>
      <trkpt lat="43.77167" lon="3.79156">
        <ele>426.7</ele>
        <time>2012-11-01T16:23:06.000Z</time>
      </trkpt>
      <trkpt lat="43.77163" lon="3.79153">
        <ele>425.8</ele>
        <time>2012-11-01T16:23:14.000Z</time>
      </trkpt>
      <trkpt lat="43.77163" lon="3.79152">
        <ele>425.7</ele>
        <time>2012-11-01T16:23:15.000Z</time>
      </trkpt>
      <trkpt lat="43.77159" lon="3.79151">
        <ele>424.8</ele>
        <time>2012-11-01T16:23:22.000Z</time>
      </trkpt>
      <trkpt lat="43.77158" lon="3.79151">
        <ele>424.7</ele>
        <time>2012-11-01T16:23:23.000Z</time>
      </trkpt>
      <trkpt lat="43.77155" lon="3.79147">
        <ele>423.8</ele>
        <time>2012-11-01T16:23:31.000Z</time>
      </trkpt>
      <trkpt lat="43.77155" lon="3.79146">
        <ele>423.7</ele>
        <time>2012-11-01T16:23:32.000Z</time>
      </trkpt>
      <trkpt lat="43.77151" lon="3.79146">
        <ele>422.7</ele>
        <time>2012-11-01T16:23:40.000Z</time>
      </trkpt>
      <trkpt lat="43.77149" lon="3.79146">
        <ele>422.6</ele>
        <time>2012-11-01T16:23:41.000Z</time>
      </trkpt>
      <trkpt lat="43.77146" lon="3.79146">
        <ele>422.2</ele>
        <time>2012-11-01T16:23:44.000Z</time>
      </trkpt>
      <trkpt lat="43.77145" lon="3.79145">
        <ele>422.1</ele>
        <time>2012-11-01T16:23:45.000Z</time>
      </trkpt>
      <trkpt lat="43.77141" lon="3.79143">
        <ele>421.4</ele>
        <time>2012-11-01T16:23:51.000Z</time>
      </trkpt>
      <trkpt lat="43.7714" lon="3.79143">
        <ele>421.3</ele>
        <time>2012-11-01T16:23:52.000Z</time>
      </trkpt>
      <trkpt lat="43.77136" lon="3.79142">
        <ele>420.7</ele>
        <time>2012-11-01T16:23:57.000Z</time>
      </trkpt>
      <trkpt lat="43.77135" lon="3.79141">
        <ele>420.6</ele>
        <time>2012-11-01T16:23:58.000Z</time>
      </trkpt>
      <trkpt lat="43.77131" lon="3.7914">
        <ele>420.3</ele>
        <time>2012-11-01T16:24:01.000Z</time>
      </trkpt>
      <trkpt lat="43.7713" lon="3.79139">
        <ele>420.1</ele>
        <time>2012-11-01T16:24:02.000Z</time>
      </trkpt>
      <trkpt lat="43.77126" lon="3.79137">
        <ele>419.6</ele>
        <time>2012-11-01T16:24:07.000Z</time>
      </trkpt>
      <trkpt lat="43.77125" lon="3.79137">
        <ele>419.4</ele>
        <time>2012-11-01T16:24:08.000Z</time>
      </trkpt>
      <trkpt lat="43.77121" lon="3.79135">
        <ele>418.9</ele>
        <time>2012-11-01T16:24:12.000Z</time>
      </trkpt>
      <trkpt lat="43.77121" lon="3.79135">
        <ele>418.8</ele>
        <time>2012-11-01T16:24:13.000Z</time>
      </trkpt>
      <trkpt lat="43.77117" lon="3.79132">
        <ele>418.2</ele>
        <time>2012-11-01T16:24:18.000Z</time>
      </trkpt>
      <trkpt lat="43.77116" lon="3.79133">
        <ele>418.1</ele>
        <time>2012-11-01T16:24:19.000Z</time>
      </trkpt>
      <trkpt lat="43.77112" lon="3.79132">
        <ele>417.6</ele>
        <time>2012-11-01T16:24:23.000Z</time>
      </trkpt>
      <trkpt lat="43.77111" lon="3.79132">
        <ele>417.5</ele>
        <time>2012-11-01T16:24:24.000Z</time>
      </trkpt>
      <trkpt lat="43.77107" lon="3.79132">
        <ele>417</ele>
        <time>2012-11-01T16:24:28.000Z</time>
      </trkpt>
      <trkpt lat="43.77105" lon="3.79133">
        <ele>416.9</ele>
        <time>2012-11-01T16:24:29.000Z</time>
      </trkpt>
      <trkpt lat="43.77102" lon="3.79135">
        <ele>416.5</ele>
        <time>2012-11-01T16:24:33.000Z</time>
      </trkpt>
      <trkpt lat="43.77101" lon="3.79136">
        <ele>416.4</ele>
        <time>2012-11-01T16:24:34.000Z</time>
      </trkpt>
      <trkpt lat="43.77098" lon="3.7914">
        <ele>415.8</ele>
        <time>2012-11-01T16:24:39.000Z</time>
      </trkpt>
      <trkpt lat="43.77098" lon="3.79141">
        <ele>415.7</ele>
        <time>2012-11-01T16:24:40.000Z</time>
      </trkpt>
      <trkpt lat="43.77097" lon="3.79147">
        <ele>415.2</ele>
        <time>2012-11-01T16:24:44.000Z</time>
      </trkpt>
      <trkpt lat="43.77096" lon="3.79148">
        <ele>415</ele>
        <time>2012-11-01T16:24:45.000Z</time>
      </trkpt>
      <trkpt lat="43.77094" lon="3.79153">
        <ele>414.2</ele>
        <time>2012-11-01T16:24:52.000Z</time>
      </trkpt>
      <trkpt lat="43.77094" lon="3.79154">
        <ele>414.1</ele>
        <time>2012-11-01T16:24:53.000Z</time>
      </trkpt>
      <trkpt lat="43.77091" lon="3.79158">
        <ele>413.5</ele>
        <time>2012-11-01T16:24:58.000Z</time>
      </trkpt>
      <trkpt lat="43.7709" lon="3.79159">
        <ele>413.4</ele>
        <time>2012-11-01T16:24:59.000Z</time>
      </trkpt>
      <trkpt lat="43.77086" lon="3.79162">
        <ele>412.6</ele>
        <time>2012-11-01T16:25:06.000Z</time>
      </trkpt>
      <trkpt lat="43.77086" lon="3.79163">
        <ele>412.5</ele>
        <time>2012-11-01T16:25:07.000Z</time>
      </trkpt>
      <trkpt lat="43.77082" lon="3.79165">
        <ele>411.9</ele>
        <time>2012-11-01T16:25:13.000Z</time>
      </trkpt>
      <trkpt lat="43.77081" lon="3.79166">
        <ele>411.8</ele>
        <time>2012-11-01T16:25:14.000Z</time>
      </trkpt>
      <trkpt lat="43.77078" lon="3.79169">
        <ele>411.2</ele>
        <time>2012-11-01T16:25:19.000Z</time>
      </trkpt>
      <trkpt lat="43.77077" lon="3.7917">
        <ele>411.1</ele>
        <time>2012-11-01T16:25:20.000Z</time>
      </trkpt>
      <trkpt lat="43.77076" lon="3.79175">
        <ele>410.7</ele>
        <time>2012-11-01T16:25:23.000Z</time>
      </trkpt>
      <trkpt lat="43.77076" lon="3.79177">
        <ele>410.6</ele>
        <time>2012-11-01T16:25:24.000Z</time>
      </trkpt>
      <trkpt lat="43.77074" lon="3.79182">
        <ele>410.2</ele>
        <time>2012-11-01T16:25:27.000Z</time>
      </trkpt>
      <trkpt lat="43.77074" lon="3.79184">
        <ele>410.1</ele>
        <time>2012-11-01T16:25:28.000Z</time>
      </trkpt>
      <trkpt lat="43.77071" lon="3.79188">
        <ele>409.5</ele>
        <time>2012-11-01T16:25:33.000Z</time>
      </trkpt>
      <trkpt lat="43.77071" lon="3.79189">
        <ele>409.4</ele>
        <time>2012-11-01T16:25:34.000Z</time>
      </trkpt>
      <trkpt lat="43.77068" lon="3.79193">
        <ele>408.8</ele>
        <time>2012-11-01T16:25:39.000Z</time>
      </trkpt>
      <trkpt lat="43.77067" lon="3.79194">
        <ele>408.7</ele>
        <time>2012-11-01T16:25:40.000Z</time>
      </trkpt>
      <trkpt lat="43.77065" lon="3.79198">
        <ele>408.2</ele>
        <time>2012-11-01T16:25:44.000Z</time>
      </trkpt>
      <trkpt lat="43.77064" lon="3.79198">
        <ele>408.1</ele>
        <time>2012-11-01T16:25:45.000Z</time>
      </trkpt>
      <trkpt lat="43.77062" lon="3.79203">
        <ele>407.6</ele>
        <time>2012-11-01T16:25:49.000Z</time>
      </trkpt>
      <trkpt lat="43.77062" lon="3.79205">
        <ele>407.5</ele>
        <time>2012-11-01T16:25:50.000Z</time>
      </trkpt>
      <trkpt lat="43.77061" lon="3.7921">
        <ele>407</ele>
        <time>2012-11-01T16:25:54.000Z</time>
      </trkpt>
      <trkpt lat="43.7706" lon="3.79211">
        <ele>406.9</ele>
        <time>2012-11-01T16:25:55.000Z</time>
      </trkpt>
      <trkpt lat="43.77058" lon="3.79216">
        <ele>406.2</ele>
        <time>2012-11-01T16:26:01.000Z</time>
      </trkpt>
      <trkpt lat="43.77058" lon="3.79217">
        <ele>406.1</ele>
        <time>2012-11-01T16:26:02.000Z</time>
      </trkpt>
      <trkpt lat="43.77054" lon="3.79219">
        <ele>405.5</ele>
        <time>2012-11-01T16:26:07.000Z</time>
      </trkpt>
      <trkpt lat="43.77053" lon="3.79219">
        <ele>405.4</ele>
        <time>2012-11-01T16:26:08.000Z</time>
      </trkpt>
      <trkpt lat="43.77049" lon="3.79218">
        <ele>404.9</ele>
        <time>2012-11-01T16:26:12.000Z</time>
      </trkpt>
      <trkpt lat="43.77048" lon="3.79218">
        <ele>404.8</ele>
        <time>2012-11-01T16:26:13.000Z</time>
      </trkpt>
      <trkpt lat="43.77045" lon="3.79217">
        <ele>404.5</ele>
        <time>2012-11-01T16:26:16.000Z</time>
      </trkpt>
      <trkpt lat="43.77043" lon="3.79217">
        <ele>404.3</ele>
        <time>2012-11-01T16:26:17.000Z</time>
      </trkpt>
      <trkpt lat="43.7704" lon="3.79217">
        <ele>404.1</ele>
        <time>2012-11-01T16:26:19.000Z</time>
      </trkpt>
      <trkpt lat="43.77039" lon="3.79217">
        <ele>404</ele>
        <time>2012-11-01T16:26:20.000Z</time>
      </trkpt>
      <trkpt lat="43.77036" lon="3.79218">
        <ele>403.8</ele>
        <time>2012-11-01T16:26:22.000Z</time>
      </trkpt>
      <trkpt lat="43.77034" lon="3.79218">
        <ele>403.7</ele>
        <time>2012-11-01T16:26:23.000Z</time>
      </trkpt>
      <trkpt lat="43.77031" lon="3.79219">
        <ele>403.4</ele>
        <time>2012-11-01T16:26:25.000Z</time>
      </trkpt>
      <trkpt lat="43.77029" lon="3.7922">
        <ele>403.3</ele>
        <time>2012-11-01T16:26:26.000Z</time>
      </trkpt>
      <trkpt lat="43.77026" lon="3.79221">
        <ele>403</ele>
        <time>2012-11-01T16:26:29.000Z</time>
      </trkpt>
      <trkpt lat="43.77024" lon="3.79222">
        <ele>402.9</ele>
        <time>2012-11-01T16:26:30.000Z</time>
      </trkpt>
      <trkpt lat="43.7702" lon="3.79224">
        <ele>402.5</ele>
        <time>2012-11-01T16:26:34.000Z</time>
      </trkpt>
      <trkpt lat="43.7702" lon="3.79224">
        <ele>402.4</ele>
        <time>2012-11-01T16:26:35.000Z</time>
      </trkpt>
      <trkpt lat="43.77016" lon="3.79227">
        <ele>401.9</ele>
        <time>2012-11-01T16:26:39.000Z</time>
      </trkpt>
      <trkpt lat="43.77015" lon="3.79229">
        <ele>401.8</ele>
        <time>2012-11-01T16:26:40.000Z</time>
      </trkpt>
      <trkpt lat="43.77011" lon="3.79231">
        <ele>401.5</ele>
        <time>2012-11-01T16:26:43.000Z</time>
      </trkpt>
      <trkpt lat="43.7701" lon="3.79232">
        <ele>401.4</ele>
        <time>2012-11-01T16:26:44.000Z</time>
      </trkpt>
      <trkpt lat="43.77006" lon="3.79235">
        <ele>401</ele>
        <time>2012-11-01T16:26:47.000Z</time>
      </trkpt>
      <trkpt lat="43.77006" lon="3.79236">
        <ele>400.9</ele>
        <time>2012-11-01T16:26:48.000Z</time>
      </trkpt>
      <trkpt lat="43.77002" lon="3.79238">
        <ele>400.3</ele>
        <time>2012-11-01T16:26:53.000Z</time>
      </trkpt>
      <trkpt lat="43.77001" lon="3.79239">
        <ele>400.2</ele>
        <time>2012-11-01T16:26:54.000Z</time>
      </trkpt>
      <trkpt lat="43.76998" lon="3.79241">
        <ele>399.2</ele>
        <time>2012-11-01T16:27:03.000Z</time>
      </trkpt>
    </trkseg>
  </trk>
</gpx>